[[{"header":{"parameterUnit":"m.s-1","parameterCategory":1,"la1":31.0,"la2":29.5877,"lo1":-88.7671,"lo2":-86.6584,"dy":0.0162,"dx":0.0185,"nx":115,"ny":88,"refTime":"2023-11-01T06:00:00:Z","depth":0,"parameterNumber":2,"parameterNumberName":"U-component_of_WINDS"},"data":[0.0,0.0,0.0,0.0,0.0,0.0,0.0,0.0,0.0,0.0,0.0,0.0,0.0,0.0,0.0,0.0,0.0,0.0,0.0,0.0,0.0,0.0,0.0,0.0,0.0,0.0,0.0,0.0,0.0,0.0,0.0,0.0,0.0,0.0,0.0,0.0,0.0,0.0,0.0,0.0,0.0,0.0,0.0,0.0,0.0,0.0,0.0,0.0,0.0,0.0,0.0,0.0,0.0,0.0,0.0,0.0,0.0,0.0,0.0,0.0,0.0,0.0,0.0,0.0,0.0,0.0,0.0,0.0,0.0,0.0,0.0,0.0,0.0,0.0,0.0,0.0,0.0,0.0,0.0,0.0,0.0,0.0,0.0,0.0,0.0,0.0,0.0,0.0,0.0,0.0,0.0,0.0,0.0,0.0,0.0,0.0,0.0,0.0,0.0,0.0,0.0,0.0,0.0,0.0,0.0,0.0,0.0,0.0,0.0,0.0,0.0,0.0,0.0,0.0,0.0,0.0,0.0,0.0,0.0,0.0,0.0,0.0,0.0,0.0,0.0,0.0,0.0,0.0,0.0,0.0,0.0,0.0,0.0,0.0,0.0,0.0,0.0,0.0,0.0,0.0,0.0,0.0,0.0,0.0,0.0,0.0,0.0,0.0,0.0,0.0,0.0,0.0,0.0,0.0,0.0,0.0,0.0,0.0,0.0,0.0,0.0,0.0,0.0,0.0,0.0,0.0,0.0,0.0,0.0,0.0,0.0,0.0,0.0,0.0,0.0,0.0,0.0,0.0,0.0,0.0,0.0,0.0,0.0,0.0,0.0,0.0,0.0,0.0,0.0,0.0,0.0,0.0,0.0,0.0,0.0,0.0,0.0,0.0,0.0,0.0,0.0,0.0,0.0,0.0,0.0,0.0,0.0,0.0,0.0,0.0,0.0,0.0,0.0,0.0,0.0,0.0,0.0,0.0,0.0,0.0,0.0,0.0,0.0,0.0,0.0,0.0,0.0,0.0,0.0,0.0,0.0,0.0,0.0,0.0,0.0,0.0,0.0,0.0,0.0,0.0,0.0,0.0,0.0,0.0,0.0,0.0,0.0,0.0,0.0,0.0,0.0,0.0,0.0,0.0,0.0,0.0,0.0,0.0,0.0,0.0,0.0,0.0,0.0,0.0,0.0,0.0,0.0,0.0,0.0,0.0,0.0,0.0,0.0,0.0,0.0,0.0,0.0,0.0,0.0,0.0,0.0,0.0,0.0,0.0,0.0,0.0,0.0,0.0,0.0,0.0,0.0,0.0,0.0,0.0,0.0,0.0,0.0,0.0,0.0,0.0,0.0,0.0,0.0,0.0,0.0,0.0,0.0,0.0,0.0,0.0,0.0,0.0,0.0,0.0,0.0,0.0,0.0,0.0,0.0,0.0,0.0,0.0,0.0,0.0,0.0,0.0,0.0,0.0,0.0,0.0,0.0,0.0,0.0,0.0,0.0,0.0,0.0,0.0,0.0,0.0,0.0,0.0,0.0,0.0,0.0,0.0,0.0,0.0,0.0,0.0,0.0,0.0,0.0,0.0,0.0,0.0,0.0,0.0,0.0,0.0,0.0,0.0,0.0,0.0,0.0,0.0,0.0,0.0,0.0,0.0,0.0,0.0,0.0,0.0,0.0,0.0,0.0,0.0,0.0,0.0,0.0,0.0,0.0,0.0,0.0,0.0,0.0,0.0,0.0,0.0,0.0,0.0,0.0,0.0,0.0,0.0,0.0,0.0,0.0,0.0,0.0,0.0,0.0,0.0,0.0,0.0,0.0,0.0,0.0,0.0,0.0,0.0,0.0,0.0,0.0,0.0,0.0,0.0,0.0,0.0,0.0,0.0,0.0,0.0,0.0,0.0,0.0,0.0,0.0,0.0,0.0,0.0,0.0,0.0,0.0,0.0,0.0,0.0,0.0,0.0,0.0,0.0,0.0,0.0,0.0,0.0,0.0,0.0,0.0,0.0,0.0,0.0,0.0,0.0,0.0,0.0,0.0,0.0,0.0,0.0,0.0,0.0,0.0,0.0,0.0,0.0,0.0,0.0,0.0,0.0,0.0,0.0,0.0,0.0,0.0,0.0,0.0,0.0,0.0,0.0,0.0,0.0,0.0,0.0,0.0,0.0,0.0,0.0,0.0,0.0,0.0,0.0,0.0,0.0,0.0,0.0,0.0,0.0,0.0,0.0,0.0,0.0,0.0,0.0,0.0,0.0,0.0,0.0,0.0,0.0,0.0,0.0,0.0,0.0,0.0,0.0,0.0,0.0,0.0,0.0,0.0,0.0,0.0,0.0,0.0,0.0,0.0,0.0,0.0,0.0,0.0,0.0,0.0,0.0,0.0,0.0,0.0,0.0,0.0,0.0,0.0,0.0,0.0,0.0,0.0,0.0,0.0,0.0,0.0,0.0,0.0,0.0,0.0,0.0,0.0,0.0,0.0,0.0,0.0,0.0,0.0,0.0,0.0,0.0,0.0,0.0,0.0,0.0,0.0,0.0,0.0,0.0,0.0,0.0,0.0,0.0,0.0,0.0,0.0,0.0,0.0,0.0,0.0,0.0,0.0,0.0,0.0,0.0,0.0,0.0,0.0,0.0,0.0,0.0,0.0,0.0,0.0,0.0,0.0,0.0,0.0,0.0,0.0,0.0,0.0,0.0,0.0,0.0,0.0,0.0,0.0,0.0,0.0,0.0,0.0,0.0,0.0,0.0,0.0,0.0,0.0,0.0,0.0,0.0,0.0,0.0,0.0,0.0,0.0,0.0,0.0,0.0,0.0,0.0,0.0,0.0,0.0,0.0,0.0,0.0,0.0,0.0,0.0,0.0,0.0,0.0,0.0,0.0,0.0,0.0,0.0,0.0,0.0,0.0,0.0,0.0,0.0,0.0,0.0,0.0,0.0,0.0,0.0,0.0,0.0,0.0,0.0,0.0,0.0,0.0,0.0,0.0,0.0,0.0,0.0,0.0,0.0,0.0,0.0,0.0,0.0,0.0,0.0,0.0,0.0,0.0,0.0,0.0,0.0,0.0,0.0,0.0,0.0,0.0,0.0,0.0,0.0,0.0,0.0,0.0,0.0,0.0,0.0,0.0,0.0,0.0,0.0,0.0,0.0,0.0,0.0,0.0,0.0,0.0,0.0,0.0,0.0,0.0,0.0,0.0,0.0,0.0,0.0,0.0,0.0,0.0,0.0,0.0,0.0,0.0,0.0,0.0,0.0,0.0,0.0,0.0,0.0,0.0,0.0,0.0,0.0,0.0,0.0,0.0,0.0,0.0,0.0,0.0,0.0,0.0,0.0,0.0,0.0,0.0,0.0,0.0,0.0,0.0,0.0,0.0,0.0,0.0,0.0,0.0,0.0,0.0,0.0,0.0,0.0,0.0,0.0,0.0,0.0,0.0,0.0,0.0,0.0,0.0,0.0,0.0,0.0,0.0,0.0,0.0,0.0,0.0,0.0,0.0,0.0,0.0,0.0,0.0,0.0,0.0,0.0,0.0,0.0,0.0,0.0,0.0,0.0,0.0,0.0,0.0,0.0,0.0,0.0,0.0,0.0,0.0,0.0,0.0,0.0,0.0,0.0,0.0,0.0,0.0,0.0,0.0,0.0,0.0,0.0,0.0,0.0,0.0,0.0,0.0,0.0,0.0,0.0,0.0,0.0,0.0,0.0,0.0,0.0,0.0,0.0,0.0,0.0,0.0,0.0,0.0,0.0,0.0,0.0,0.0,0.0,0.0,0.0,0.0,0.0,0.0,0.0,0.0,0.0,0.0,0.0,0.0,0.0,0.0,0.0,0.0,0.0,0.0,0.0,0.0,0.0,0.0,0.0,0.0,0.0,0.0,0.0,0.0,0.0,0.0,0.0,0.0,0.0,0.0,0.0,0.0,0.0,0.0,0.0,0.0,0.0,0.0,0.0,0.0,0.0,0.0,0.0,0.0,0.0,0.0,0.0,0.0,0.0,0.0,0.0,0.0,0.0,0.0,0.0,0.0,0.0,0.0,0.0,0.0,0.0,0.0,0.0,0.0,0.0,0.0,0.0,0.0,0.0,0.0,0.0,0.0,0.0,0.0,0.0,0.0,0.0,0.0,0.0,0.0,0.0,0.0,0.0,0.0,0.0,0.0,0.0,0.0,0.0,0.0,0.0,0.0,0.0,0.0,0.0,0.0,0.0,0.0,0.0,0.0,0.0,0.0,0.0,0.0,0.0,0.0,0.0,0.0,0.0,0.0,0.0,0.0,0.0,0.0,6.4294,0.0,0.0,0.0,0.0,0.0,0.0,0.0,0.0,0.0,0.0,0.0,0.0,0.0,0.0,0.0,0.0,0.0,0.0,0.0,0.0,0.0,0.0,0.0,0.0,0.0,0.0,0.0,0.0,0.0,0.0,0.0,0.0,0.0,0.0,0.0,0.0,0.0,0.0,0.0,0.0,0.0,0.0,0.0,0.0,0.0,0.0,0.0,0.0,0.0,0.0,0.0,0.0,0.0,0.0,0.0,0.0,0.0,0.0,0.0,0.0,0.0,0.0,0.0,0.0,0.0,0.0,0.0,0.0,0.0,0.0,0.0,0.0,0.0,0.0,0.0,0.0,0.0,0.0,0.0,0.0,0.0,0.0,0.0,0.0,0.0,0.0,0.0,0.0,0.0,0.0,0.0,0.0,0.0,0.0,0.0,0.0,0.0,0.0,0.0,0.0,0.0,0.0,0.0,0.0,0.0,0.0,0.0,0.0,0.0,0.0,6.6979,6.6555,6.5747,6.5271,6.5242,0.0,0.0,0.0,0.0,0.0,0.0,0.0,0.0,0.0,0.0,0.0,0.0,0.0,0.0,0.0,0.0,0.0,0.0,0.0,0.0,0.0,0.0,0.0,0.0,0.0,0.0,0.0,0.0,0.0,0.0,0.0,0.0,0.0,0.0,0.0,0.0,0.0,0.0,0.0,0.0,0.0,0.0,0.0,0.0,0.0,0.0,0.0,0.0,0.0,0.0,0.0,0.0,0.0,0.0,0.0,0.0,0.0,0.0,0.0,0.0,0.0,0.0,0.0,0.0,0.0,0.0,0.0,0.0,0.0,0.0,0.0,0.0,0.0,0.0,0.0,0.0,0.0,0.0,0.0,0.0,0.0,0.0,0.0,0.0,0.0,0.0,0.0,0.0,0.0,0.0,0.0,0.0,0.0,0.0,0.0,0.0,0.0,0.0,0.0,0.0,0.0,0.0,0.0,0.0,0.0,0.0,0.0,0.0,0.0,0.0,0.0,0.0,6.6901,6.6361,6.6128,0.0,0.0,0.0,0.0,0.0,0.0,0.0,0.0,0.0,0.0,0.0,0.0,0.0,0.0,0.0,0.0,0.0,0.0,0.0,0.0,0.0,0.0,0.0,0.0,0.0,0.0,0.0,0.0,0.0,0.0,0.0,0.0,0.0,0.0,0.0,0.0,0.0,0.0,0.0,0.0,0.0,0.0,0.0,0.0,0.0,0.0,0.0,0.0,0.0,0.0,0.0,0.0,0.0,0.0,0.0,0.0,0.0,0.0,0.0,0.0,0.0,0.0,0.0,0.0,0.0,0.0,0.0,0.0,0.0,0.0,0.0,0.0,0.0,0.0,0.0,0.0,0.0,0.0,0.0,0.0,0.0,0.0,0.0,0.0,0.0,0.0,0.0,0.0,0.0,0.0,0.0,0.0,0.0,0.0,0.0,0.0,0.0,0.0,0.0,0.0,0.0,0.0,0.0,0.0,0.0,0.0,0.0,0.0,0.0,0.0,6.8737,6.9435,6.8585,0.0,6.6934,0.0,0.0,0.0,0.0,0.0,0.0,0.0,0.0,0.0,0.0,0.0,0.0,0.0,0.0,0.0,0.0,0.0,0.0,0.0,0.0,0.0,0.0,0.0,0.0,0.0,0.0,0.0,0.0,0.0,0.0,0.0,0.0,0.0,0.0,0.0,0.0,0.0,0.0,0.0,0.0,0.0,0.0,0.0,0.0,0.0,0.0,0.0,0.0,0.0,0.0,0.0,0.0,0.0,0.0,0.0,0.0,0.0,0.0,0.0,0.0,0.0,0.0,0.0,0.0,0.0,0.0,0.0,0.0,0.0,0.0,0.0,0.0,0.0,0.0,0.0,0.0,0.0,0.0,0.0,0.0,0.0,0.0,0.0,0.0,0.0,0.0,0.0,0.0,0.0,0.0,0.0,0.0,0.0,0.0,0.0,0.0,0.0,0.0,0.0,0.0,0.0,0.0,0.0,0.0,0.0,0.0,0.0,0.0,0.0,0.0,6.9879,6.9765,6.8921,6.8023,0.0,0.0,0.0,0.0,0.0,0.0,0.0,0.0,0.0,0.0,0.0,0.0,0.0,0.0,0.0,0.0,0.0,0.0,0.0,0.0,0.0,0.0,0.0,0.0,0.0,0.0,0.0,0.0,0.0,0.0,0.0,0.0,0.0,0.0,0.0,0.0,0.0,0.0,0.0,0.0,0.0,0.0,0.0,0.0,0.0,0.0,0.0,0.0,0.0,0.0,0.0,0.0,0.0,0.0,0.0,0.0,0.0,0.0,0.0,0.0,0.0,0.0,0.0,0.0,0.0,0.0,0.0,0.0,0.0,0.0,0.0,0.0,0.0,0.0,0.0,0.0,0.0,0.0,0.0,0.0,0.0,0.0,0.0,0.0,0.0,0.0,0.0,0.0,0.0,0.0,0.0,0.0,0.0,0.0,0.0,0.0,0.0,0.0,0.0,0.0,0.0,0.0,0.0,0.0,0.0,0.0,0.0,0.0,0.0,0.0,7.1619,7.0965,7.0152,6.9294,6.8379,6.7479,0.0,0.0,0.0,0.0,0.0,0.0,0.0,0.0,0.0,0.0,0.0,0.0,0.0,0.0,0.0,0.0,0.0,0.0,0.0,0.0,0.0,0.0,0.0,0.0,0.0,0.0,0.0,0.0,0.0,0.0,0.0,0.0,0.0,0.0,0.0,0.0,0.0,0.0,0.0,0.0,0.0,0.0,0.0,0.0,0.0,0.0,0.0,0.0,0.0,0.0,0.0,0.0,0.0,0.0,0.0,0.0,0.0,0.0,0.0,0.0,0.0,0.0,0.0,0.0,0.0,0.0,0.0,0.0,0.0,0.0,0.0,0.0,0.0,0.0,0.0,0.0,0.0,0.0,0.0,0.0,0.0,0.0,0.0,0.0,0.0,0.0,0.0,0.0,0.0,0.0,0.0,0.0,0.0,0.0,0.0,0.0,0.0,0.0,0.0,0.0,0.0,0.0,0.0,0.0,0.0,0.0,0.0,0.0,7.4509,7.3048,7.1814,7.0965,7.0094,6.9244,0.0,0.0,0.0,0.0,0.0,0.0,0.0,0.0,0.0,0.0,0.0,0.0,0.0,0.0,0.0,0.0,0.0,0.0,0.0,0.0,0.0,0.0,0.0,0.0,0.0,0.0,0.0,0.0,0.0,0.0,0.0,0.0,0.0,0.0,0.0,0.0,0.0,0.0,0.0,0.0,0.0,0.0,0.0,0.0,0.0,0.0,0.0,0.0,0.0,0.0,0.0,0.0,0.0,0.0,0.0,0.0,0.0,0.0,0.0,0.0,0.0,0.0,0.0,0.0,0.0,0.0,0.0,0.0,0.0,0.0,0.0,0.0,0.0,0.0,0.0,0.0,0.0,0.0,0.0,0.0,0.0,0.0,0.0,0.0,0.0,0.0,0.0,0.0,0.0,0.0,0.0,0.0,0.0,0.0,0.0,0.0,0.0,0.0,0.0,0.0,0.0,0.0,0.0,0.0,0.0,0.0,0.0,0.0,0.0,7.4008,7.3435,7.2744,7.1978,7.1567,7.0445,0.0,0.0,0.0,0.0,0.0,0.0,0.0,0.0,0.0,0.0,0.0,0.0,0.0,0.0,0.0,0.0,0.0,0.0,0.0,0.0,0.0,0.0,0.0,0.0,0.0,0.0,0.0,0.0,0.0,0.0,0.0,0.0,0.0,0.0,0.0,0.0,0.0,0.0,0.0,0.0,0.0,0.0,0.0,0.0,0.0,0.0,0.0,0.0,0.0,0.0,0.0,0.0,0.0,0.0,0.0,0.0,0.0,0.0,0.0,0.0,0.0,0.0,0.0,0.0,0.0,0.0,0.0,0.0,0.0,0.0,0.0,0.0,0.0,0.0,0.0,0.0,0.0,0.0,0.0,0.0,0.0,0.0,0.0,0.0,0.0,0.0,0.0,0.0,0.0,0.0,0.0,0.0,0.0,0.0,0.0,0.0,0.0,0.0,0.0,0.0,0.0,0.0,0.0,0.0,0.0,0.0,0.0,0.0,0.0,7.408,0.0,7.3814,7.2486,7.2346,7.1178,0.0,0.0,0.0,0.0,0.0,0.0,0.0,0.0,0.0,0.0,0.0,0.0,0.0,0.0,0.0,0.0,0.0,0.0,0.0,0.0,0.0,0.0,0.0,0.0,0.0,0.0,0.0,0.0,0.0,0.0,0.0,0.0,0.0,0.0,0.0,0.0,0.0,0.0,0.0,0.0,0.0,0.0,0.0,0.0,0.0,0.0,0.0,0.0,0.0,0.0,0.0,0.0,0.0,0.0,0.0,0.0,0.0,0.0,0.0,0.0,0.0,0.0,0.0,0.0,0.0,0.0,0.0,0.0,0.0,0.0,0.0,0.0,0.0,0.0,0.0,0.0,0.0,0.0,0.0,0.0,0.0,0.0,0.0,0.0,0.0,0.0,0.0,0.0,0.0,0.0,0.0,0.0,0.0,0.0,0.0,0.0,0.0,0.0,0.0,0.0,0.0,0.0,0.0,0.0,0.0,0.0,0.0,0.0,7.5781,7.5034,7.5811,7.5085,7.2475,7.241,7.1479,0.0,0.0,0.0,0.0,0.0,0.0,0.0,0.0,0.0,0.0,0.0,0.0,0.0,0.0,0.0,0.0,0.0,0.0,0.0,0.0,0.0,0.0,0.0,0.0,0.0,0.0,0.0,0.0,0.0,0.0,0.0,0.0,0.0,0.0,0.0,0.0,0.0,0.0,0.0,0.0,0.0,0.0,0.0,0.0,0.0,0.0,0.0,0.0,0.0,0.0,0.0,0.0,0.0,0.0,0.0,0.0,0.0,0.0,0.0,0.0,0.0,0.0,0.0,0.0,0.0,0.0,0.0,0.0,0.0,0.0,0.0,0.0,0.0,0.0,0.0,0.0,0.0,0.0,0.0,0.0,0.0,0.0,0.0,0.0,0.0,0.0,0.0,0.0,0.0,0.0,0.0,0.0,0.0,0.0,0.0,0.0,0.0,0.0,0.0,0.0,0.0,0.0,0.0,0.0,0.0,0.0,0.0,0.0,0.0,7.765,7.832,7.7778,7.5922,7.5159,7.3747,0.0,0.0,0.0,0.0,0.0,0.0,0.0,0.0,0.0,0.0,0.0,0.0,0.0,0.0,0.0,0.0,0.0,0.0,0.0,0.0,0.0,0.0,0.0,0.0,0.0,0.0,0.0,0.0,0.0,0.0,0.0,0.0,0.0,0.0,0.0,0.0,0.0,0.0,0.0,0.0,0.0,0.0,0.0,0.0,0.0,0.0,0.0,0.0,0.0,0.0,0.0,0.0,0.0,0.0,0.0,0.0,0.0,0.0,0.0,0.0,0.0,0.0,0.0,0.0,0.0,0.0,0.0,0.0,0.0,0.0,0.0,0.0,0.0,0.0,0.0,0.0,0.0,0.0,0.0,0.0,0.0,0.0,0.0,0.0,0.0,0.0,0.0,0.0,0.0,0.0,0.0,0.0,0.0,0.0,0.0,0.0,0.0,0.0,0.0,0.0,0.0,0.0,0.0,0.0,0.0,0.0,0.0,0.0,0.0,8.2282,8.1774,8.0732,7.9025,7.8124,7.6093,7.2813,0.0,0.0,0.0,0.0,0.0,0.0,0.0,0.0,0.0,0.0,0.0,0.0,0.0,0.0,0.0,0.0,0.0,0.0,0.0,0.0,0.0,0.0,0.0,0.0,0.0,0.0,0.0,0.0,0.0,0.0,0.0,0.0,0.0,0.0,0.0,0.0,0.0,0.0,0.0,0.0,0.0,0.0,0.0,0.0,0.0,0.0,0.0,0.0,0.0,0.0,0.0,0.0,0.0,0.0,0.0,0.0,0.0,0.0,0.0,0.0,0.0,0.0,0.0,0.0,0.0,0.0,0.0,0.0,0.0,0.0,0.0,0.0,0.0,0.0,0.0,0.0,0.0,0.0,0.0,0.0,0.0,0.0,0.0,0.0,0.0,0.0,0.0,0.0,0.0,0.0,0.0,0.0,0.0,0.0,0.0,0.0,0.0,0.0,0.0,0.0,0.0,0.0,0.0,0.0,0.0,0.0,0.0,0.0,8.8461,8.636,8.4285,8.212,8.1231,7.8552,0.0,0.0,0.0,0.0,0.0,0.0,0.0,0.0,0.0,0.0,0.0,0.0,0.0,0.0,0.0,0.0,0.0,0.0,0.0,0.0,0.0,0.0,0.0,0.0,0.0,0.0,0.0,0.0,0.0,0.0,0.0,0.0,0.0,0.0,0.0,0.0,0.0,0.0,0.0,0.0,0.0,0.0,0.0,0.0,0.0,0.0,0.0,0.0,0.0,0.0,0.0,0.0,0.0,0.0,0.0,0.0,0.0,0.0,0.0,0.0,0.0,0.0,0.0,0.0,0.0,0.0,0.0,0.0,0.0,0.0,0.0,0.0,0.0,0.0,0.0,0.0,0.0,0.0,0.0,0.0,0.0,0.0,0.0,0.0,0.0,0.0,0.0,0.0,0.0,0.0,0.0,0.0,0.0,0.0,0.0,0.0,0.0,0.0,0.0,0.0,0.0,0.0,0.0,0.0,0.0,0.0,0.0,0.0,0.0,9.3946,9.4851,9.2449,8.6738,8.4864,8.1927,0.0,0.0,0.0,0.0,0.0,0.0,0.0,0.0,0.0,0.0,0.0,0.0,0.0,0.0,0.0,0.0,0.0,0.0,0.0,0.0,0.0,0.0,0.0,0.0,0.0,0.0,0.0,0.0,0.0,0.0,0.0,0.0,0.0,0.0,0.0,0.0,0.0,0.0,0.0,0.0,0.0,0.0,0.0,0.0,0.0,0.0,0.0,0.0,0.0,0.0,0.0,0.0,0.0,0.0,0.0,0.0,0.0,0.0,0.0,0.0,0.0,0.0,0.0,0.0,0.0,0.0,0.0,0.0,0.0,0.0,0.0,0.0,0.0,0.0,0.0,0.0,0.0,0.0,0.0,0.0,0.0,0.0,0.0,0.0,0.0,0.0,0.0,0.0,0.0,0.0,0.0,0.0,0.0,0.0,0.0,0.0,0.0,0.0,0.0,0.0,0.0,0.0,0.0,0.0,0.0,0.0,0.0,0.0,9.4712,9.7072,10.0496,9.9587,9.3926,9.0086,8.5507,0.0,0.0,0.0,0.0,0.0,0.0,0.0,0.0,0.0,0.0,0.0,0.0,0.0,0.0,0.0,0.0,0.0,0.0,0.0,0.0,0.0,0.0,0.0,0.0,0.0,0.0,0.0,0.0,0.0,0.0,0.0,0.0,0.0,0.0,0.0,0.0,0.0,0.0,0.0,0.0,0.0,0.0,0.0,0.0,0.0,0.0,0.0,0.0,0.0,0.0,0.0,0.0,0.0,0.0,0.0,0.0,0.0,0.0,0.0,0.0,0.0,0.0,0.0,0.0,0.0,0.0,0.0,0.0,0.0,0.0,0.0,0.0,0.0,0.0,0.0,0.0,0.0,0.0,0.0,0.0,0.0,0.0,0.0,0.0,0.0,0.0,0.0,0.0,0.0,0.0,0.0,0.0,0.0,0.0,0.0,0.0,0.0,0.0,0.0,0.0,0.0,0.0,0.0,0.0,0.0,0.0,0.0,0.0,9.806,9.915,10.4326,10.5516,10.2126,9.5776,8.9033,0.0,0.0,0.0,0.0,0.0,0.0,0.0,0.0,0.0,0.0,0.0,0.0,0.0,0.0,0.0,0.0,0.0,0.0,0.0,0.0,0.0,0.0,0.0,0.0,0.0,0.0,0.0,0.0,0.0,0.0,0.0,0.0,0.0,0.0,0.0,0.0,0.0,0.0,0.0,0.0,0.0,0.0,0.0,0.0,0.0,0.0,0.0,0.0,0.0,0.0,0.0,0.0,0.0,0.0,0.0,0.0,0.0,0.0,0.0,0.0,0.0,0.0,0.0,0.0,0.0,0.0,0.0,0.0,0.0,0.0,0.0,0.0,0.0,0.0,0.0,0.0,0.0,0.0,0.0,0.0,0.0,0.0,0.0,0.0,0.0,0.0,0.0,0.0,0.0,0.0,0.0,0.0,0.0,0.0,0.0,0.0,0.0,0.0,0.0,0.0,0.0,0.0,0.0,0.0,0.0,0.0,0.0,0.0,10.0286,10.4373,10.7823,10.8531,10.6325,9.816,9.1181,0.0,0.0,0.0,0.0,0.0,0.0,0.0,0.0,0.0,0.0,0.0,0.0,0.0,0.0,0.0,0.0,0.0,0.0,0.0,0.0,0.0,0.0,0.0,0.0,0.0,0.0,0.0,0.0,0.0,0.0,0.0,0.0,0.0,0.0,0.0,0.0,0.0,0.0,0.0,0.0,0.0,0.0,0.0,0.0,0.0,0.0,0.0,0.0,7.6821,0.0,0.0,0.0,0.0,0.0,0.0,0.0,0.0,0.0,0.0,0.0,0.0,0.0,0.0,0.0,0.0,0.0,0.0,0.0,0.0,0.0,0.0,0.0,0.0,0.0,0.0,0.0,0.0,0.0,0.0,0.0,0.0,0.0,0.0,0.0,0.0,0.0,0.0,0.0,0.0,0.0,0.0,0.0,0.0,0.0,0.0,0.0,0.0,0.0,0.0,0.0,0.0,0.0,0.0,0.0,0.0,0.0,0.0,0.0,10.2021,10.7048,10.9561,11.0184,10.8583,10.1334,9.4342,0.0,0.0,0.0,0.0,0.0,0.0,0.0,0.0,0.0,0.0,0.0,0.0,0.0,0.0,0.0,0.0,0.0,0.0,0.0,0.0,0.0,0.0,0.0,0.0,0.0,0.0,0.0,0.0,0.0,0.0,0.0,0.0,0.0,0.0,0.0,0.0,0.0,0.0,0.0,0.0,0.0,0.0,0.0,0.0,0.0,0.0,0.0,0.0,0.0,0.0,0.0,0.0,0.0,0.0,0.0,0.0,0.0,0.0,0.0,0.0,0.0,0.0,0.0,0.0,0.0,0.0,0.0,0.0,0.0,0.0,0.0,0.0,0.0,0.0,0.0,0.0,0.0,0.0,0.0,0.0,0.0,0.0,0.0,0.0,0.0,0.0,0.0,0.0,0.0,0.0,0.0,0.0,0.0,0.0,0.0,0.0,0.0,0.0,0.0,0.0,0.0,0.0,0.0,0.0,0.0,0.0,0.0,9.8793,10.3524,10.8797,11.0766,11.1224,11.0226,10.4431,9.7622,8.995,0.0,0.0,0.0,0.0,0.0,0.0,0.0,0.0,0.0,0.0,0.0,0.0,0.0,0.0,0.0,0.0,0.0,0.0,0.0,0.0,0.0,0.0,0.0,0.0,0.0,0.0,0.0,0.0,0.0,0.0,0.0,0.0,0.0,0.0,0.0,0.0,0.0,0.0,7.3327,7.439,0.0,0.0,0.0,0.0,0.0,0.0,0.0,0.0,7.6951,0.0,0.0,0.0,0.0,0.0,0.0,0.0,0.0,0.0,0.0,0.0,0.0,0.0,0.0,0.0,0.0,0.0,0.0,0.0,0.0,0.0,0.0,0.0,0.0,0.0,0.0,0.0,0.0,0.0,0.0,0.0,0.0,0.0,0.0,0.0,0.0,0.0,0.0,0.0,0.0,0.0,0.0,0.0,0.0,0.0,0.0,0.0,0.0,0.0,0.0,0.0,0.0,0.0,0.0,0.0,0.0,9.7351,10.0199,10.4949,11.1638,11.2839,11.2668,11.1048,10.5834,9.9584,9.2393,0.0,0.0,0.0,0.0,0.0,0.0,0.0,0.0,0.0,0.0,0.0,0.0,0.0,0.0,0.0,0.0,0.0,0.0,0.0,0.0,0.0,0.0,0.0,0.0,0.0,0.0,0.0,0.0,0.0,0.0,0.0,0.0,0.0,0.0,0.0,0.0,0.0,0.0,0.0,7.6685,7.6834,0.0,0.0,0.0,0.0,0.0,0.0,0.0,0.0,7.8722,0.0,0.0,0.0,0.0,0.0,0.0,0.0,0.0,0.0,0.0,0.0,0.0,0.0,0.0,0.0,0.0,0.0,0.0,0.0,0.0,0.0,0.0,0.0,0.0,0.0,0.0,0.0,0.0,0.0,0.0,0.0,0.0,0.0,0.0,0.0,0.0,0.0,0.0,0.0,0.0,0.0,0.0,0.0,0.0,0.0,0.0,0.0,0.0,0.0,0.0,0.0,0.0,0.0,0.0,0.0,9.9071,10.2798,10.782,11.4115,11.4005,11.3416,11.2492,10.6117,10.0087,0.0,0.0,0.0,0.0,0.0,0.0,0.0,0.0,0.0,0.0,0.0,0.0,0.0,0.0,0.0,0.0,0.0,0.0,0.0,0.0,0.0,0.0,0.0,0.0,0.0,0.0,0.0,0.0,0.0,0.0,0.0,0.0,0.0,0.0,0.0,0.0,0.0,0.0,0.0,0.0,7.9348,7.9879,8.1107,0.0,0.0,0.0,0.0,0.0,0.0,8.0362,8.0206,0.0,0.0,0.0,0.0,0.0,0.0,0.0,0.0,0.0,0.0,0.0,0.0,0.0,0.0,0.0,0.0,0.0,0.0,0.0,0.0,0.0,0.0,0.0,0.0,0.0,0.0,0.0,0.0,0.0,0.0,0.0,0.0,0.0,0.0,0.0,0.0,0.0,0.0,0.0,0.0,0.0,0.0,0.0,0.0,0.0,0.0,0.0,0.0,0.0,0.0,0.0,0.0,0.0,0.0,0.0,10.0581,10.5296,11.0436,11.5856,11.4744,11.3932,11.3644,10.5978,10.0037,0.0,0.0,0.0,0.0,0.0,0.0,0.0,0.0,0.0,0.0,0.0,0.0,0.0,0.0,0.0,0.0,0.0,0.0,0.0,0.0,0.0,0.0,0.0,0.0,0.0,0.0,0.0,0.0,0.0,0.0,0.0,0.0,0.0,0.0,0.0,0.0,0.0,0.0,0.0,0.0,0.0,8.293,8.336,8.3632,0.0,0.0,0.0,0.0,8.0319,8.187,0.0,0.0,0.0,0.0,0.0,0.0,0.0,0.0,0.0,0.0,0.0,0.0,0.0,0.0,0.0,0.0,0.0,0.0,0.0,0.0,0.0,0.0,0.0,0.0,0.0,0.0,0.0,0.0,0.0,0.0,0.0,0.0,0.0,0.0,0.0,0.0,0.0,0.0,0.0,0.0,0.0,0.0,0.0,0.0,0.0,0.0,0.0,0.0,0.0,0.0,0.0,0.0,0.0,0.0,0.0,0.0,10.1497,10.6677,11.1548,11.5893,11.5093,11.4267,11.3708,10.5532,9.9592,0.0,0.0,0.0,0.0,0.0,0.0,0.0,0.0,0.0,0.0,0.0,0.0,0.0,0.0,0.0,0.0,0.0,0.0,0.0,0.0,0.0,0.0,0.0,0.0,0.0,0.0,0.0,0.0,0.0,0.0,0.0,0.0,0.0,0.0,0.0,0.0,0.0,0.0,0.0,0.0,0.0,8.441,8.5105,8.518,8.4439,0.0,0.0,0.0,8.4163,8.7159,0.0,0.0,0.0,0.0,0.0,0.0,0.0,0.0,0.0,0.0,0.0,0.0,0.0,0.0,0.0,0.0,0.0,0.0,0.0,0.0,0.0,0.0,0.0,0.0,0.0,0.0,0.0,0.0,0.0,0.0,0.0,0.0,0.0,0.0,0.0,0.0,0.0,0.0,0.0,0.0,0.0,0.0,0.0,0.0,0.0,0.0,0.0,0.0,0.0,0.0,0.0,0.0,0.0,0.0,0.0,9.8133,10.2291,10.8956,11.3855,11.6571,11.6095,11.5027,11.3424,10.5217,9.9494,0.0,0.0,0.0,0.0,0.0,0.0,0.0,0.0,0.0,0.0,0.0,0.0,0.0,0.0,0.0,0.0,0.0,0.0,0.0,0.0,0.0,0.0,0.0,0.0,0.0,0.0,0.0,0.0,0.0,0.0,0.0,0.0,0.0,0.0,0.0,0.0,0.0,0.0,0.0,0.0,0.0,0.0,8.5646,8.7442,0.0,0.0,0.0,8.7136,8.525,0.0,0.0,0.0,0.0,0.0,0.0,0.0,0.0,0.0,0.0,0.0,0.0,0.0,0.0,0.0,0.0,0.0,0.0,0.0,0.0,0.0,0.0,0.0,0.0,0.0,0.0,0.0,0.0,0.0,0.0,0.0,0.0,0.0,0.0,0.0,0.0,0.0,0.0,0.0,0.0,0.0,0.0,0.0,0.0,0.0,0.0,0.0,0.0,0.0,0.0,0.0,0.0,0.0,0.0,0.0,0.0,0.0,10.3263,11.0936,11.5714,11.7302,11.6693,11.5402,11.3325,10.5595,0.0,0.0,0.0,0.0,0.0,0.0,0.0,0.0,0.0,0.0,0.0,0.0,0.0,0.0,0.0,0.0,0.0,0.0,0.0,0.0,0.0,0.0,0.0,0.0,0.0,0.0,0.0,6.5769,0.0,0.0,0.0,0.0,0.0,0.0,0.0,0.0,0.0,0.0,0.0,0.0,0.0,0.0,9.0062,8.6945,9.0103,9.1447,0.0,0.0,9.0023,8.7491,9.039,9.1246,0.0,0.0,0.0,0.0,0.0,0.0,0.0,0.0,0.0,0.0,0.0,0.0,0.0,0.0,0.0,0.0,0.0,0.0,0.0,0.0,0.0,0.0,0.0,0.0,0.0,0.0,0.0,0.0,0.0,0.0,0.0,0.0,0.0,0.0,0.0,0.0,0.0,0.0,0.0,0.0,0.0,0.0,0.0,0.0,0.0,0.0,0.0,0.0,0.0,0.0,0.0,0.0,0.0,0.0,0.0,10.497,11.2089,11.6598,11.8079,11.6287,11.4969,11.4111,10.7237,10.2139,0.0,0.0,0.0,0.0,0.0,0.0,0.0,0.0,0.0,0.0,0.0,0.0,0.0,0.0,0.0,0.0,0.0,0.0,0.0,0.0,0.0,0.0,0.0,0.0,0.0,0.0,0.0,0.0,0.0,0.0,0.0,0.0,0.0,0.0,0.0,0.0,0.0,0.0,0.0,0.0,0.0,9.1832,9.0023,9.3242,9.5279,0.0,0.0,9.3157,9.2643,9.6375,9.658,8.8126,0.0,0.0,0.0,0.0,0.0,0.0,0.0,0.0,0.0,0.0,0.0,0.0,0.0,0.0,0.0,0.0,0.0,0.0,0.0,0.0,0.0,0.0,0.0,0.0,0.0,0.0,0.0,0.0,0.0,0.0,0.0,0.0,0.0,0.0,0.0,0.0,0.0,0.0,0.0,0.0,0.0,0.0,0.0,0.0,0.0,0.0,0.0,0.0,0.0,0.0,0.0,0.0,0.0,10.2653,10.547,11.3175,11.7395,11.7848,11.7411,11.5876,11.3176,10.7777,10.2763,0.0,0.0,0.0,0.0,0.0,0.0,0.0,0.0,0.0,0.0,0.0,0.0,0.0,0.0,0.0,0.0,0.0,0.0,0.0,0.0,0.0,0.0,0.0,0.0,0.0,0.0,0.0,0.0,6.9504,7.0324,7.146,0.0,0.0,0.0,0.0,0.0,0.0,0.0,0.0,0.0,0.0,9.3911,9.3501,9.6142,0.0,0.0,9.6002,9.5726,9.4177,9.5257,9.4351,8.8701,8.6618,0.0,0.0,0.0,0.0,0.0,0.0,0.0,0.0,0.0,0.0,0.0,0.0,0.0,0.0,0.0,0.0,0.0,0.0,0.0,0.0,0.0,0.0,0.0,0.0,0.0,0.0,0.0,0.0,0.0,0.0,0.0,0.0,0.0,0.0,0.0,0.0,0.0,0.0,0.0,0.0,0.0,0.0,0.0,0.0,0.0,0.0,0.0,0.0,0.0,0.0,0.0,0.0,10.3335,10.6103,11.3865,11.7919,11.7957,11.7993,11.636,11.2816,10.8782,10.4172,0.0,0.0,0.0,0.0,0.0,0.0,0.0,0.0,0.0,0.0,0.0,0.0,0.0,0.0,0.0,0.0,0.0,0.0,0.0,0.0,0.0,0.0,0.0,0.0,0.0,0.0,0.0,0.0,7.1065,7.1856,7.2734,0.0,0.0,0.0,0.0,0.0,0.0,0.0,0.0,0.0,0.0,9.5985,9.5371,9.7841,9.9058,9.7008,9.694,9.667,9.5475,9.4807,9.3136,8.9254,0.0,0.0,0.0,0.0,0.0,0.0,0.0,0.0,0.0,0.0,0.0,0.0,0.0,0.0,0.0,0.0,0.0,0.0,0.0,0.0,0.0,0.0,0.0,0.0,0.0,0.0,0.0,0.0,0.0,0.0,0.0,0.0,0.0,0.0,0.0,0.0,0.0,0.0,0.0,0.0,0.0,0.0,0.0,0.0,0.0,0.0,0.0,0.0,0.0,0.0,0.0,0.0,0.0,0.0,10.7024,11.4167,11.8183,11.8694,11.7736,11.6066,11.3587,11.0589,10.6735,10.1889,0.0,0.0,0.0,0.0,0.0,0.0,0.0,0.0,0.0,0.0,0.0,0.0,0.0,0.0,0.0,0.0,0.0,0.0,0.0,0.0,0.0,0.0,0.0,0.0,0.0,0.0,7.0239,7.2129,7.354,0.0,0.0,0.0,0.0,0.0,0.0,0.0,0.0,0.0,0.0,9.4288,9.7989,9.5152,9.8097,9.9842,9.7566,9.6186,9.5702,9.6876,9.6279,9.4266,0.0,0.0,0.0,0.0,0.0,0.0,0.0,0.0,0.0,0.0,0.0,0.0,0.0,0.0,0.0,0.0,0.0,0.0,0.0,0.0,0.0,0.0,0.0,0.0,0.0,0.0,0.0,0.0,0.0,0.0,0.0,0.0,0.0,0.0,0.0,0.0,0.0,0.0,0.0,0.0,8.5637,8.6817,0.0,0.0,0.0,0.0,0.0,0.0,0.0,0.0,0.0,0.0,0.0,0.0,10.4927,10.8387,11.4493,11.7952,11.8477,11.768,11.6061,11.3655,11.1083,10.6202,9.8809,0.0,0.0,0.0,0.0,0.0,0.0,0.0,0.0,0.0,0.0,0.0,0.0,0.0,0.0,0.0,0.0,0.0,0.0,0.0,0.0,0.0,0.0,0.0,0.0,0.0,7.2582,0.0,0.0,0.0,0.0,0.0,0.0,0.0,0.0,0.0,0.0,0.0,8.6671,9.1095,9.4435,9.6594,9.6911,9.9246,10.064,0.0,0.0,0.0,0.0,0.0,0.0,0.0,0.0,0.0,0.0,0.0,0.0,0.0,0.0,8.9321,8.6247,8.5334,8.5251,8.5978,0.0,0.0,0.0,0.0,0.0,0.0,0.0,0.0,0.0,0.0,0.0,0.0,0.0,0.0,0.0,0.0,7.7743,0.0,0.0,0.0,0.0,0.0,0.0,0.0,0.0,8.604,8.8194,8.9856,9.1042,9.1326,0.0,9.0195,8.9063,0.0,0.0,0.0,0.0,0.0,0.0,0.0,0.0,10.5304,10.8942,11.4645,11.7869,11.8311,11.7264,11.5646,11.3494,11.0298,10.529,9.8328,9.4321,9.0493,0.0,0.0,0.0,0.0,0.0,0.0,0.0,0.0,0.0,0.0,0.0,0.0,0.0,0.0,0.0,0.0,0.0,0.0,0.0,0.0,0.0,0.0,0.0,7.4939,0.0,0.0,0.0,0.0,0.0,0.0,0.0,0.0,0.0,8.5192,8.6687,8.9377,9.4072,9.6104,9.734,9.7777,0.0,0.0,0.0,0.0,0.0,0.0,0.0,9.4294,9.2738,9.2167,9.2004,9.2282,9.308,9.3667,9.3651,0.0,0.0,8.9631,8.8581,8.8483,8.9267,8.9846,9.0397,9.1074,9.2008,9.3013,0.0,0.0,0.0,0.0,0.0,0.0,0.0,0.0,8.0295,7.9938,0.0,0.0,0.0,0.0,0.0,0.0,0.0,0.0,0.0,0.0,9.1071,9.2948,9.3673,9.3962,9.3966,0.0,9.3244,9.2934,9.2724,8.9582,0.0,0.0,0.0,0.0,0.0,0.0,10.5886,10.9058,11.4655,11.7815,11.8331,11.6634,11.4869,11.3071,10.8575,10.4326,10.0466,9.7386,9.4392,9.1332,8.6786,0.0,0.0,0.0,0.0,0.0,0.0,0.0,0.0,0.0,0.0,0.0,0.0,0.0,0.0,0.0,0.0,0.0,0.0,0.0,0.0,7.7036,0.0,0.0,0.0,0.0,0.0,0.0,0.0,0.0,0.0,0.0,8.7688,9.0095,9.2987,9.604,0.0,0.0,0.0,0.0,10.0368,9.7428,9.6782,9.6682,9.6578,9.6204,9.58,9.5291,0.0,0.0,9.5736,9.6017,9.6182,9.6076,9.5926,9.5341,9.4146,9.2961,9.2313,9.2608,9.3118,9.3562,9.3749,9.5069,9.642,8.7474,0.0,0.0,0.0,0.0,8.3266,8.445,8.627,8.5829,8.5224,8.4501,8.428,0.0,0.0,0.0,0.0,0.0,0.0,8.8692,9.1033,9.4152,9.6289,9.7532,9.8724,9.9054,9.8509,9.7248,9.6404,9.5841,9.3784,9.2508,9.2033,0.0,0.0,0.0,0.0,10.7239,11.0858,11.4595,11.7015,11.8167,11.6509,11.4309,11.1542,10.8823,10.54,10.1325,9.934,9.6598,9.2849,8.9747,0.0,0.0,0.0,0.0,0.0,0.0,0.0,0.0,0.0,0.0,0.0,0.0,0.0,0.0,0.0,0.0,0.0,0.0,0.0,7.7981,7.9398,7.9886,0.0,0.0,0.0,0.0,0.0,0.0,0.0,0.0,0.0,9.4038,9.3649,9.3852,0.0,0.0,9.7524,9.6787,9.8715,10.0165,10.0138,0.0,0.0,0.0,9.9492,9.8557,9.7838,9.8174,9.8449,9.8399,9.8754,9.909,9.9038,9.8999,9.8857,9.854,9.6344,9.4949,9.5586,9.6232,9.7039,9.8211,9.9265,10.0351,9.3903,8.9691,8.7994,8.7514,8.7949,8.8019,8.9076,9.0694,9.0316,8.9527,8.8481,8.8173,8.6341,8.3496,8.4453,0.0,0.0,0.0,9.2698,9.4986,9.7532,9.9537,10.1017,10.2018,10.2262,10.1853,10.0593,9.9774,9.9369,9.816,9.7409,0.0,0.0,0.0,9.9912,10.4773,10.8718,11.1679,11.4412,11.6396,11.7529,11.5568,11.332,11.0889,10.9031,10.6481,10.3041,10.1504,9.9033,9.5387,9.2693,8.98,0.0,0.0,0.0,0.0,0.0,0.0,0.0,0.0,0.0,0.0,0.0,7.4505,0.0,0.0,0.0,0.0,7.9921,8.0811,8.0866,8.1748,0.0,0.0,0.0,0.0,0.0,0.0,0.0,8.8946,9.1181,9.396,9.7476,9.7231,9.7214,9.8657,9.9025,9.9093,9.8977,0.0,10.1784,10.2365,10.2369,10.2373,10.2619,10.1871,10.1155,10.0911,10.0796,10.106,10.1676,10.1806,10.1871,10.216,10.2234,10.2275,10.2391,10.0679,9.9126,9.902,9.969,10.069,10.1704,10.2715,10.3886,9.9775,9.7991,9.3813,9.2265,9.2658,9.2827,9.3405,9.4093,9.3998,9.3102,9.171,9.1728,9.015,8.7536,8.8719,0.0,0.0,9.5028,9.7334,9.9539,10.1132,10.2715,10.4173,10.4226,10.4273,10.4284,10.3456,10.3083,10.3046,10.2456,10.2583,10.3371,10.0904,10.0727,10.3136,10.7396,11.0366,11.1973,11.4363,11.5932,11.6573,11.4142,11.2177,11.0903,10.929,10.7424,10.5285,10.3581,10.1354,9.8497,9.546,9.2726,9.025,0.0,0.0,0.0,0.0,0.0,0.0,0.0,0.0,0.0,0.0,0.0,0.0,0.0,0.0,0.0,8.2419,0.0,8.3981,8.4103,0.0,0.0,0.0,8.5405,8.7834,8.949,9.1388,9.3717,0.0,0.0,0.0,0.0,10.2032,10.3399,10.337,10.3131,10.2809,10.3714,10.4468,10.4081,10.4054,10.3989,10.4001,10.3574,10.3413,10.3732,10.3423,10.3404,10.4597,10.4472,10.4426,10.4871,10.5164,10.5094,10.5164,10.4881,10.463,10.25,10.3104,10.4059,10.4291,10.5322,10.6632,10.4121,10.3113,10.2035,9.9955,9.7356,9.7399,9.7892,9.8519,9.7486,9.6463,9.5486,9.4465,9.327,9.2095,9.3574,9.5016,9.6402,9.881,10.0927,10.281,10.4478,10.5762,10.6717,10.7143,10.7441,10.7571,10.6598,10.6243,10.6386,10.5663,10.6014,10.7342,10.7358,10.7094,10.681,11.0145,11.2626,11.4073,11.5063,11.5515,11.5324,11.366,11.2363,11.1412,10.965,10.7895,10.6124,10.3917,10.1808,9.9838,9.7346,9.4642,9.1726,8.9089,0.0,0.0,0.0,0.0,0.0,0.0,0.0,0.0,0.0,7.7645,7.8043,0.0,8.1725,0.0,8.4689,8.6337,8.7094,8.7209,0.0,0.0,8.8115,8.9258,9.1223,9.2683,9.4101,9.5536,9.7486,9.9619,10.1866,10.3025,10.4394,10.6247,10.4846,10.3551,10.3511,10.4587,10.5367,10.5393,10.602,10.6437,10.5785,10.5177,10.4759,10.4885,10.476,10.476,10.5127,10.5057,10.4978,10.5169,10.5201,10.5201,10.528,10.5689,10.5963,10.5373,10.5122,10.5317,10.6469,10.7058,10.7922,10.6916,10.6487,10.6113,10.4701,10.2636,10.1906,10.1658,10.167,10.0922,9.995,9.8826,9.7419,9.6399,9.587,9.7545,9.8962,10.024,10.2349,10.4075,10.541,10.6591,10.7462,10.8132,10.8328,10.8559,10.8751,10.8186,10.8166,10.8626,10.8222,10.8846,11.0382,11.1195,11.152,11.1405,11.2732,11.3997,11.5117,11.5576,11.5518,11.4885,11.3515,11.2636,11.2291,11.025,10.8433,10.6969,10.4808,10.2446,9.9874,9.7548,9.4843,9.1585,8.9363,8.689,0.0,0.0,0.0,0.0,0.0,0.0,0.0,0.0,0.0,0.0,0.0,8.5443,0.0,0.0,0.0,8.9365,8.9376,8.9675,9.0472,9.1312,9.2612,9.4714,9.6543,9.8071,9.9034,10.0835,10.2665,10.4424,10.5016,10.599,10.79,10.6934,10.5995,10.6057,10.6708,10.7139,10.7167,10.7414,10.7314,10.6538,10.6018,10.5758,10.5689,10.5424,10.5429,10.6093,10.5944,10.5833,10.6167,10.6283,10.6432,10.6766,10.7175,10.7578,10.7913,10.7695,10.762,10.8061,10.8772,10.977,10.8956,10.8883,10.8214,10.7912,10.7803,10.6294,10.5105,10.4157,10.4054,10.3143,10.1628,10.0407,9.9579,9.9218,10.0996,10.2493,10.3728,10.5535,10.6825,10.7614,10.8212,10.8706,10.913,10.8921,10.8876,10.9038,10.9049,10.9474,11.0278,11.0314,11.1117,11.2653,11.3514,11.4509,11.5682,11.5134,11.5099,11.5642,11.5955,11.5684,11.4854,11.3473,11.2867,11.3005,11.0818,10.9024,10.7723,10.5844,10.3159,9.9607,9.7298,9.46,9.1418,8.9225,8.7427,0.0,8.5134,0.0,0.0,0.0,0.0,0.0,0.0,0.0,0.0,8.7649,8.9851,9.1501,9.2269,9.2367,9.1603,9.152,9.2112,9.3491,9.4365,9.5834,9.8255,10.0488,10.2118,10.294,10.4384,10.5647,10.6367,10.658,10.7175,10.8693,10.8945,10.8876,10.9126,10.8912,10.8689,10.8809,10.8099,10.7351,10.6798,10.6576,10.6538,10.6501,10.6204,10.6172,10.7499,10.7318,10.7128,10.7689,10.7823,10.8073,10.8848,10.8922,10.9206,10.9721,10.9894,10.9882,10.951,11.0216,11.1256,11.1407,11.1401,11.1256,11.1183,11.1111,11.0175,10.8576,10.6578,10.5926,10.4737,10.3258,10.2971,10.283,10.2838,10.4432,10.5417,10.5959,10.7574,10.8871,10.982,11.0576,11.0964,11.1051,11.1005,11.0791,11.0413,11.043,11.0934,11.1924,11.1961,11.2768,11.4341,11.5154,11.5908,0.0,0.0,0.0,0.0,11.6073,11.5584,11.4573,11.3255,11.2576,11.2606,11.0647,0.0,10.8248,10.618,10.3797,10.1169,9.879,0.0,0.0,0.0,0.0,0.0,0.0,0.0,0.0,0.0,0.0,0.0,9.1309,9.084,8.9727,9.2145,9.4145,9.4989,9.5761,9.6141,9.5989,9.5993,9.6421,9.7554,9.8387,9.9673,10.1575,10.2828,10.3831,10.4644,10.5577,10.6501,10.7244,10.7356,10.8024,10.9589,10.9886,11.0147,11.0736,10.9738,10.8693,10.8024,10.7839,10.7611,10.7388,10.7388,10.7467,10.743,10.7913,10.8247,10.8535,10.9092,10.9251,10.9304,10.9302,10.9242,10.9341,10.9436,10.965,10.9752,11.0474,11.1033,11.0885,11.1075,11.1474,11.2704,0.0,11.2234,11.2095,0.0,0.0,11.0785,10.9554,10.7966,10.6372,10.4918,10.5316,10.5244,10.5002,10.6713,10.7714,10.8161,10.9477,11.0582,11.1428,11.1698,11.1957,11.2188,11.22,11.2116,11.1992,11.2123,11.2651,11.3565,11.3974,11.4818,11.5976,11.6661,11.7247,11.7799,11.8199,11.7577,11.5932,11.6295,11.5856,11.4534,11.3297,11.2624,11.2593,0.0,0.0,0.0,0.0,0.0,0.0,0.0,0.0,0.0,0.0,0.0,9.2691,9.1965,9.1799,9.2316,9.3428,9.465,9.5933,9.7483,9.7278,9.4719,9.6623,9.8267,9.8933,9.9057,9.9135,9.9447,9.9133,9.9481,10.087,10.1457,10.2278,10.3729,10.5015,10.5907,10.6432,10.7467,10.8396,10.8762,10.8841,10.932,11.0476,11.0699,11.0805,11.1145,11.0625,10.9775,10.899,10.8841,10.8846,10.8837,10.8841,10.88,10.8916,10.9213,10.9392,10.9304,10.9623,10.9814,10.9613,10.9563,10.9586,10.9963,11.0165,11.0465,11.086,11.1451,11.1878,11.1888,11.1888,11.1999,11.3936,11.387,11.3211,11.2964,11.2928,11.2789,11.2566,11.2161,0.0,0.0,0.0,10.7634,10.755,10.7061,10.8723,10.9685,11.0193,11.1179,11.2008,11.2625,11.2556,11.2636,11.2878,11.2967,11.3041,11.3167,11.344,11.4096,11.4996,11.5659,11.6401,11.7319,11.7894,11.8407,11.8907,11.9115,11.8143,11.6055,11.6562,11.6115,11.4558,11.3328,11.2671,11.2671,11.1362,11.0031,10.8639,10.7071,10.4865,10.1984,9.9612,9.7713,9.6419,9.5474,9.5109,9.5511,9.5525,9.5953,9.6907,9.8322,9.9549,10.0407,10.2404,10.2376,9.9412,10.0735,10.1897,10.2384,10.1951,10.1814,10.2131,10.1636,10.1886,10.3465,10.3782,10.4326,10.5516,10.691,10.7839,10.8131,10.9213,11.0142,11.0216,11.0109,11.0461,11.1212,11.1261,11.1293,11.1348,11.1046,11.057,11.0058,10.9805,10.9939,11.0058,10.9944,11.0018,10.9883,11.0044,11.0118,10.9941,11.0002,10.9985,10.9964,10.9775,11.0102,11.064,11.0948,11.1387,11.2058,11.2454,11.2645,11.2677,11.2753,11.2802,11.6375,11.6375,11.6266,11.623,11.6194,11.5476,11.4419,11.2994,11.1334,11.0429,11.0248,11.0356,11.0326,11.0284,11.1226,11.1697,11.1805,11.2633,11.308,0.0,11.384,11.3822,11.3269,11.3631,11.35,11.2914,11.3355,11.4389,11.5682,11.573,11.6418,11.7785,11.8401,11.895,11.9449,11.9308,11.839,11.678,11.6846,11.6121,11.4545,11.299,11.2199,11.2139,11.0893,10.9435,10.7928,10.7293,10.5893,10.3395,10.1168,9.9847,9.9585,9.8237,9.8026,9.9331,9.9478,9.9823,10.0666,10.1574,10.2451,10.3232,10.4251,10.4139,10.2564,10.3863,10.4529,10.3809,10.4124,10.4241,10.3716,10.369,10.3918,10.4472,10.5203,10.6142,10.7141,10.8136,10.8995,10.9622,10.9924,11.0434,11.0944,11.0568,11.0674,11.163,11.1627,11.1275,11.1638,11.0727,11.0093,11.0036,10.9915,10.9895,11.018,10.9915,10.9947,10.9769,11.0252,11.0552,11.049,11.0965,11.1251,11.1214,11.104,11.1156,11.134,11.1579,11.1809,11.2165,11.2691,11.3163,11.321,11.3604,11.3853,11.6882,11.6882,11.6882,11.6882,11.6846,11.649,11.594,11.521,11.4492,11.3151,11.1588,11.1558,11.1552,11.1624,11.2385,11.2741,11.2777,11.3574,11.3966,11.3966,11.4321,11.4292,11.4003,11.4303,11.4517,11.4632,11.5074,11.5931,11.7018,11.7524,11.8094,11.8657,11.9049,11.9297,11.9347,11.9282,11.8637,11.757,11.7106,11.6121,11.4551,11.3064,11.231,11.2273,11.0994,10.9699,10.8533,10.7547,10.6331,10.4941,10.3118,10.2132,10.2223,10.1572,10.1467,10.2196,10.2265,10.2422,10.2789,10.3995,10.5238,10.6455,10.689,10.6853,10.6182,10.646,10.6413,10.5925,10.5904,10.5673,10.528,10.5374,10.5717,10.6461,10.7352,10.816,10.8885,10.9696,11.0327,11.0726,11.1046,11.1389,11.1723,11.1367,11.1229,11.1935,11.1988,11.238,11.2982,11.2101,11.1266,11.1229,11.1123,11.1145,11.1183,11.1138,11.1022,11.091,11.1097,11.1204,11.1136,11.1504,11.1556,11.1409,11.1431,11.1486,11.1502,11.1726,11.1952,11.2218,11.2753,11.3208,11.3446,11.4197,11.4841,11.7425,11.7419,11.7425,11.7425,11.7425,11.7244,11.7172,11.7136,11.6961,11.5506,11.3405,11.3188,11.3181,11.3254,11.3863,11.4117,11.4189,11.4732,11.495,11.4769,11.4769,11.4769,11.48,11.5027,11.5587,11.6328,11.6831,11.7481,11.8219,11.9028,11.9364,11.9246,11.9427,11.9403,11.9223,11.9223,11.8825,11.8107,11.7323,11.623,11.4811,11.3416,11.2613,11.2347,11.1164,11.0068,10.908,10.7893,10.6924,10.6136,10.4856,10.4169,10.408,10.3964,10.4074,10.4399,10.4472,10.4619,10.506,10.6203,10.7482,10.8688,10.8793,10.8872,10.8982,10.8516,10.8044,10.7823,10.7299,10.6969,10.6942,10.699,10.7374,10.8337,10.9018,10.9613,11.0237,11.0853,11.141,11.1687,11.2151,11.243,11.2584,11.2543,11.2465,11.2523,11.2859,11.3412,11.3722,11.3102,11.2536,11.2185,11.2067,11.1966,11.2118,11.2003,11.1868,11.1821,11.1705,11.1551,11.1417,11.141,11.1436,11.1311,11.1409,11.1545,11.1631,11.1779,11.1994,11.2243,11.2759,11.3256,11.3938,11.5,11.5909,11.8963,11.8999,11.8927,11.8999,11.8854,11.8252,11.7969,11.789,11.7244,11.678,11.6375,11.6454,11.6375,11.649,11.6447,11.6447,11.6447,11.6629,11.6266,11.5621,11.5584,11.5584,11.5604,11.5862,11.6381,11.7073,11.7616,11.8182,11.8735,11.8863,11.9002,11.9169,11.9239,11.922,11.9223,11.9223,11.8825,11.8114,11.7323,11.6496,11.5548,11.4039,11.285,11.2162,11.1323,11.0139,10.8767,10.8654,10.7983,10.6605,10.6033,10.5432,10.4801,10.4248,10.4614,10.6056,10.6161,10.6785,10.8138,10.851,10.8652,10.8756,10.8867,10.9166,10.9801,10.9801,10.947,10.8872,10.8615,10.851,10.8589,10.8666,10.8787,10.8998,10.9462,10.9973,11.0744,11.0987,11.1574,11.3073,11.3024,11.3293,11.3768,11.3836,11.3819,11.3486,11.346,11.3329,11.2987,11.2659,11.2283,11.1797,11.1603,11.1699,11.1832,11.1731,11.1646,11.1529,11.1393,11.1294,11.1256,11.1262,11.1251,11.1436,11.1507,11.1678,11.1879,11.2046,11.202,11.2373,11.2885,11.3578,11.4951,11.6067,11.6804,11.9261,11.9642,11.9332,11.9223,11.9144,11.8861,11.8752,11.8716,11.8426,11.8288,11.8282,11.8245,11.7745,11.6918,11.6882,11.6882,11.6882,11.6882,11.6744,11.6418,11.6424,11.6418,11.643,11.6526,11.6976,11.7746,11.8275,11.8875,11.9451,11.9585,11.9529,11.9418,11.9266,11.9223,11.9223,11.9223,11.9072,11.8716,11.7534,11.6744,11.6236,11.4377,11.3139,11.2704,11.1588,11.0646,10.9898,10.9166,10.8445,10.7931,10.7368,10.698,10.6916,10.6695,10.6929,10.7755,10.7807,10.8327,10.9433,10.9501,10.9722,11.0151,11.0225,11.0377,11.0671,11.0707,11.0555,11.0261,10.979,10.9318,10.8956,10.9289,10.9685,10.985,11.0377,11.0982,11.146,11.1973,11.2554,11.3161,11.3456,11.3684,11.3957,11.3943,11.3833,11.3722,11.3663,11.344,11.3104,11.2732,11.2325,11.2029,11.1653,11.1425,11.1609,11.1572,11.1443,11.1349,11.1245,11.1216,11.1227,11.1316,11.1394,11.148,11.1673,11.1816,11.1952,11.1989,11.2026,11.2433,11.3416,11.4345,11.546,11.6428,11.7064,11.9678,11.9899,11.9424,11.9223,11.9223,11.9223,11.9223,11.9223,11.9223,11.9223,11.9223,11.9223,11.8608,11.76,11.7528,11.7528,11.7534,11.7534,11.7432,11.7244,11.7244,11.7251,11.7214,11.7251,11.7643,11.8366,11.885,11.9369,11.9896,11.9856,11.9723,11.9487,11.9279,11.9223,11.9223,11.9223,11.9223,11.9072,11.7896,11.7142,11.6665,11.4962,11.3755,11.3248,11.195,11.1117,11.0863,10.956,10.8786,10.8776,10.8271,10.8091,10.8299,10.8351,10.8616,10.9096,10.9349,10.9716,11.0314,11.0309,11.056,11.1106,11.1216,11.132,11.1473,11.1546,11.1662,11.1808,11.1295,11.0718,11.001,11.0493,11.1047,11.123,11.1811,11.223,11.2496,11.3023,11.3392,11.3623,11.3997,11.4258,11.4425,11.4434,11.4339,11.407,11.3954,11.3655,11.3325,11.2732,11.2328,11.2102,11.1552,11.1324,11.1361,11.1414,11.1333,11.1262,11.1216,11.1216,11.1216,11.1344,11.1453,11.1475,11.1826,11.201,11.1931,11.1895,11.2132,11.2622,11.3635,11.492,11.5767,11.6625,11.7133,12.0645,11.9964,11.9424,11.9223,11.9223,11.9223,11.9223,11.9223,11.9223,11.9223,11.9223,11.9223,11.9144,11.8999,11.897,11.9078,11.9036,11.8963,11.8608,11.8077,11.8041,11.8035,11.8035,11.8035,11.8426,11.9032,11.9367,11.9558,11.9641,11.9426,11.9213,11.9243,11.9259,11.9217,11.9223,11.9223,11.9223,11.9115,11.8361,11.7643,11.6888,11.6019,11.4781,11.3465,11.2487,11.166,11.0978,11.0109,10.9294,10.8575,10.8716,10.8635,10.8158,10.8358,10.8962,10.9872,11.0623,11.1052,11.1052,11.1036,11.1109,11.1236,11.1298,11.154,11.2286,11.2359,11.2616,11.3361,11.3251,11.2921,11.2365,11.2622,11.311,11.3223,11.3531,11.3673,11.3737,11.3743,11.4221,11.4715,11.4816,11.5028,11.5697,11.59,11.5338,11.4782,11.4635,11.4121,11.2768,11.2365,11.2029,11.1552,11.1289,11.1221,11.1201,11.1245,11.1265,11.1221,11.1216,11.1216,11.1216,11.1249,11.1344,11.1463,11.1641,11.1758,11.1805,11.2027,11.2359,11.3014,11.4178,11.5298,11.5982,11.6781,11.729,12.0381,11.9951,11.9424,11.9223,11.9223,11.9223,11.9223,11.9223,11.9223,11.9223,11.9223,11.9223,11.9223,11.9223,11.9223,11.9223,11.9223,11.9223,11.9036,11.8825,11.8789,11.8789,11.8795,11.8825,11.8933,11.919,11.948,11.9616,11.9676,12.0008,11.9865,11.9381,11.9753,11.9724,11.9289,11.9223,11.9223,11.9144,11.8469,11.7715,11.6925,11.6092,11.5173,11.4074,11.2771,11.195,11.1696,11.0399,10.9566,10.9276,10.936,10.9453,10.96,10.9955,11.0351,11.0716,11.0899,11.0956,11.0903,11.0768,11.1007,11.163,11.1731,11.2115,11.2955,11.3181,11.3274,11.3607,11.4132,11.4158,11.3974,11.376,11.3587,11.3599,11.3655,11.3784,11.381,11.4135,11.4607,11.4895,11.5231,11.5705,11.5883,11.5999,11.5485,11.431,11.4053,11.3313,11.2097,11.1619,11.1546,11.1326,11.1216,11.1216,11.1216,11.1216,11.1216,11.1216,11.1216,11.1216,11.1216,11.13,11.1405,11.1458,11.155,11.1745,11.1941,11.2897,11.3112,11.3647,11.4777,11.5593,11.6154,11.6934,11.7306,12.0802,12.0652,11.9937,11.9572,11.9543,11.9289,11.9361,11.9536,11.9572,11.9579,11.9615,11.9832,11.9724,11.9325,11.947,11.9434,11.9217,11.9223,11.9223,11.9223,11.9223,11.9223,11.9223,11.9223,11.9223,11.9279,11.966,11.9982,12.0279,12.0787,12.064,12.0063,12.0527,12.0375,11.9724,11.9615,11.95,11.9144,11.868,11.7962,11.6991,11.6375,11.5578,11.4473,11.3175,11.2378,11.2095,11.0791,10.9922,10.9747,10.971,10.9903,11.0285,11.0719,11.0945,11.0923,11.0768,11.0677,11.0677,11.0592,11.0943,11.1908,11.2117,11.2614,11.3791,11.3988,11.411,11.4415,11.4824,11.5185,11.5075,11.4714,11.4353,11.4358,11.4353,11.4353,11.4389,11.4867,11.516,11.5276,11.5637,11.5962,11.5962,11.5742,11.5013,11.3765,11.3404,11.2622,11.1552,11.1216,11.1216,11.1216,11.1216,11.1216,11.1216,11.1216,11.1216,11.1216,11.1216,11.1216,11.1243,11.1355,11.1394,11.1421,11.1595,11.1849,11.2482,11.3486,11.4062,11.4396,11.519,11.607,11.6563,11.7009,11.7306,12.2028,12.2005,12.0936,12.0322,12.0223,11.9625,11.9687,12.0333,12.0405,12.0412,12.0491,12.1149,12.0642,11.9724,12.0122,12.0013,11.9549,11.9477,11.9361,11.9217,11.9223,11.9223,11.9223,11.9223,11.9253,11.9361,12.0056,12.08,12.1413,12.1565,12.1574,12.1525,12.1518,12.1143,12.0369,12.026,11.9934,11.9325,11.9115,11.839,11.7106,11.6852,11.6085,11.4696,11.3755,11.2958,11.2203,11.137,11.0574,10.9964,10.9855,10.9867,11.0208,11.0374,11.0411,11.0477,11.0431,11.0455,11.0515,11.0743,11.1298,11.2133,11.2363,11.3198,11.4488,11.4804,11.5073,11.5564,11.5815,11.5925,11.5889,11.5705,11.5668,11.5968,11.5705,11.5711,11.5815,11.5925,11.5999,11.5925,11.5999,11.5999,11.5852,11.5516,11.4782,11.3943,11.3246,11.2585,11.1808,11.1625,11.1362,11.1289,11.1546,11.173,11.1473,11.1216,11.1216,11.1216,11.1216,11.1216,11.1216,11.1272,11.1278,11.1337,11.1636,11.1895,11.256,11.3549,11.45,11.4978,11.583,11.6505,11.6934,11.7269,11.7306,12.1553,12.1353,12.0488,12.0321,12.0529,12.0202,12.0484,12.1186,12.1228,12.1222,12.1265,12.1475,12.1308,12.1004,12.1113,12.1077,12.086,12.0823,12.0273,11.9404,11.9217,11.9217,11.9223,11.9223,11.95,12.0086,12.0853,12.1337,12.1663,12.2134,12.2206,12.1808,12.217,12.1686,12.0441,12.0369,12.0007,11.9289,11.9223,11.8673,11.7751,11.7172,11.6381,11.5391,11.4551,11.3755,11.2958,11.2167,11.1624,11.1334,11.1334,11.1233,11.0947,11.0577,11.0413,11.0438,11.0803,11.1017,11.1126,11.164,11.2371,11.3241,11.3623,11.4344,11.5408,11.5606,11.5722,11.5962,11.5999,11.5999,11.592,11.5479,11.5485,11.5925,11.5999,11.5962,11.5999,11.5999,11.5999,11.5999,11.5999,11.5999,11.5962,11.5626,11.5185,11.4525,11.4084,11.3607,11.3025,11.2701,11.2585,11.217,11.2396,11.2249,11.1735,11.1509,11.1583,11.1362,11.1216,11.1216,11.1216,11.1216,11.1216,11.1362,11.1656,11.2104,11.277,11.3735,11.4757,11.5697,11.6524,11.7005,11.7312,11.7412,11.7412,12.1649,12.1382,12.0784,12.0735,12.1075,12.0706,12.0993,12.1644,12.1577,12.1591,12.1724,12.1902,12.167,12.142,12.1585,12.1617,12.1452,12.1436,12.0983,12.0115,11.9724,11.9651,11.9724,11.9984,12.0527,12.1251,12.1801,12.2206,12.2496,12.2641,12.2532,12.2243,12.2569,12.1982,12.0586,12.0665,12.0346,11.9398,11.9187,11.8825,11.8186,11.7606,11.6816,11.5802,11.5216,11.4551,11.3791,11.3248,11.2698,11.2234,11.2095,11.1927,11.159,11.125,11.1048,11.1103,11.1449,11.1741,11.1819,11.2386,11.3161,11.4026,11.4427,11.4955,11.5775,11.5999,11.5999,11.5999,11.5999,11.5999,11.5925,11.5589,11.5516,11.5925,11.5699,11.5705,11.5889,11.5999,11.5999,11.5999,11.5999,11.5999,11.5999,11.5626,11.5411,11.4892,11.4525,11.4268,11.3728,11.3551,11.3215,11.3025,11.3104,11.2695,11.1919,11.1845,11.1955,11.1619,11.1216,11.1216,11.1216,11.1216,11.1216,11.1436,11.1693,11.2202,11.2842,11.4315,11.5467,11.6343,11.6974,11.7265,11.7412,11.7412,11.7412,12.2192,12.205,12.1529,12.1482,12.1696,12.1076,12.129,12.1945,12.1782,12.1853,12.2103,12.2542,12.2119,12.1304,12.1876,12.1951,12.1475,12.1553,12.1608,12.1379,12.0955,12.0586,12.0557,12.1186,12.1874,12.2489,12.2786,12.3221,12.3648,12.3112,12.2822,12.275,12.2713,12.2055,12.0962,12.1265,12.086,11.9766,11.9332,11.8861,11.8367,11.8077,11.7425,11.6026,11.5736,11.5252,11.466,11.4364,11.3676,11.2487,11.2342,11.2246,11.218,11.2131,11.1963,11.1994,11.2383,11.2571,11.2685,11.3225,11.3763,11.4493,11.483,11.5152,11.5858,11.5999,11.5999,11.5999,11.5999,11.5999,11.5999,11.5779,11.5815,11.5815,11.5442,11.5448,11.5889,11.5999,11.5999,11.5999,11.5999,11.5999,11.5999,11.5442,11.5149,11.4892,11.4457,11.42,11.4096,11.4132,11.3844,11.3808,11.3949,11.3251,11.2511,11.2475,11.2548,11.1992,11.1583,11.1473,11.1326,11.1258,11.1216,11.1436,11.1849,11.2353,11.3163,11.4519,11.5622,11.637,11.6873,11.7243,11.7412,11.7412,11.7412,12.2265,12.1117,12.0811,12.1109,12.1665,12.1345,12.1947,12.304,12.3006,12.2878,12.3169,12.3466,12.3204,12.2866,12.2982,12.3177,12.3056,12.2973,12.2753,12.2499,12.2308,12.1801,12.1548,12.2091,12.2598,12.2874,12.3331,12.3793,12.3931,12.3144,12.2802,12.2822,12.2772,12.2302,12.1518,12.1482,12.141,12.0823,11.9694,11.9434,11.9549,11.8614,11.7932,11.7462,11.6345,11.5693,11.5325,11.4805,11.44,11.3893,11.3284,11.2994,11.2934,11.2506,11.2338,11.2595,11.3079,11.3498,11.3781,11.4425,11.5035,11.5241,11.5468,11.579,11.5962,11.5999,11.5999,11.5999,11.5999,11.5999,11.5925,11.5516,11.5216,11.5185,11.5406,11.5705,11.5925,11.5999,11.5999,11.5999,11.5999,11.5999,11.5925,11.581,11.5626,11.5558,11.5411,11.5191,11.5044,11.5081,11.4903,11.4824,11.4708,11.3906,11.3325,11.3251,11.2994,11.2401,11.2065,11.1882,11.1667,11.1416,11.1295,11.1289,11.1992,11.2564,11.3405,11.4485,11.5375,11.6461,11.6926,11.7402,11.7412,11.7412,11.7412,12.2579,12.1618,12.1259,12.1443,12.1895,12.1511,12.1885,12.2636,12.2628,12.2773,12.2967,12.3024,12.3046,12.301,12.3124,12.3351,12.3597,12.359,12.3453,12.3354,12.3293,12.2858,12.246,12.2931,12.3268,12.3174,12.3615,12.3782,12.3639,12.2913,12.2577,12.2711,12.27,12.2266,12.1627,12.1591,12.1446,12.0925,11.9839,11.9434,11.9753,11.9042,11.8433,11.8071,11.7099,11.6599,11.62,11.5427,11.4877,11.4509,11.4044,11.3835,11.3917,11.3573,11.3412,11.3619,11.4201,11.457,11.4786,11.5418,11.5736,11.5808,11.5941,11.5982,11.5999,11.5999,11.5999,11.5999,11.5999,11.5999,11.5925,11.5553,11.5332,11.5442,11.5736,11.5999,11.5999,11.5999,11.5999,11.5999,11.5999,11.5999,11.5999,11.5999,11.5999,11.5962,11.5925,11.5852,11.5889,11.5962,11.5931,11.5626,11.54,11.4708,11.4121,11.398,11.3692,11.3099,11.3025,11.2763,11.2534,11.2189,11.2246,11.2343,11.2523,11.2985,11.4021,11.4947,11.5772,11.6646,11.7127,11.7365,11.7412,11.7412,11.7412,12.3083,12.2886,12.2154,12.2085,12.2328,12.1596,12.1601,12.1867,12.1737,12.1852,12.2238,12.2015,12.2297,12.226,12.2657,12.2838,12.321,12.3407,12.3708,12.3806,12.3859,12.3483,12.2974,12.3444,12.3665,12.3592,12.361,12.3667,12.3472,12.2622,12.2343,12.263,12.2577,12.2229,12.1942,12.1808,12.1403,12.1064,12.005,11.9658,11.9796,11.9506,11.9042,11.8397,11.8041,11.7462,11.6829,11.6094,11.5431,11.4704,11.4589,11.4582,11.4799,11.483,11.4966,11.5038,11.5229,11.5433,11.5642,11.5928,11.6159,11.6233,11.6269,11.6225,11.6408,11.6408,11.6262,11.6285,11.6078,11.5999,11.5999,11.5925,11.5889,11.5889,11.5956,11.5999,11.5999,11.5999,11.5999,11.5999,11.5999,11.5999,11.5999,11.5999,11.5999,11.5999,11.5999,11.5999,11.5999,11.5999,11.5999,11.5925,11.5736,11.5589,11.5112,11.4703,11.4305,11.3906,11.409,11.3991,11.3932,11.3742,11.3804,11.3841,11.3566,11.4096,11.5175,11.5942,11.6428,11.6825,11.7317,11.7412,11.7412,11.7412,11.7412,12.3665,12.2558,12.1828,12.2197,12.2926,12.1836,12.1997,12.3171,12.2549,12.2226,12.2511,12.265,12.2656,12.2504,12.2592,12.2917,12.333,12.333,12.3485,12.397,12.4004,12.3787,12.3476,12.3665,12.3756,12.3763,12.3652,12.3694,12.361,12.3076,12.2666,12.2791,12.2829,12.2675,12.2585,12.2496,12.2858,12.2736,12.1208,12.0484,12.0751,12.0375,11.9753,11.9036,11.8433,11.7715,11.697,11.6338,11.593,11.5646,11.5265,11.5072,11.5013,11.5075,11.5281,11.5563,11.5633,11.572,11.5987,11.6571,11.6936,11.6978,11.7388,11.7888,11.7825,11.7259,11.6982,11.6802,11.6375,11.6109,11.5999,11.5999,11.5999,11.5999,11.5999,11.5999,11.5999,11.5999,11.5999,11.5999,11.5999,11.5999,11.5999,11.5999,11.5999,11.5999,11.5999,11.5999,11.5999,11.5999,11.5999,11.5999,11.5925,11.5773,11.5442,11.5112,11.4929,11.4677,11.4861,11.5076,11.498,11.4807,11.4685,11.4547,11.4345,11.5117,11.6116,11.6221,11.6543,11.7025,11.7412,11.7412,11.7412,11.7412,11.7412,12.4271,12.3505,12.2776,12.2926,12.3294,12.2002,12.1927,12.2674,12.2225,12.2047,12.2232,12.2504,12.2584,12.2424,12.2562,12.2831,12.3096,12.3316,12.3569,12.3935,12.4004,12.3922,12.3777,12.366,12.3654,12.3617,12.3633,12.3709,12.3605,12.331,12.3073,12.3318,12.3243,12.3265,12.3236,12.3003,12.2967,12.2967,12.191,12.1186,12.1446,12.1222,12.0557,11.9796,11.9042,11.8361,11.8018,11.7513,11.7277,11.7104,11.6659,11.5956,11.5342,11.5347,11.5684,11.6214,11.6346,11.6649,11.7096,11.7492,11.7749,11.7743,11.8195,11.8304,11.8364,11.7968,11.7575,11.7224,11.6827,11.647,11.6072,11.5999,11.5999,11.5999,11.6035,11.5999,11.5999,11.5999,11.5999,11.5999,11.5999,11.5999,11.5999,11.6103,11.5999,11.6035,11.5999,11.5999,11.5999,11.5999,11.5999,11.5999,11.5999,11.5889,11.5595,11.5485,11.5516,11.5448,11.5522,11.5746,11.5811,11.5587,11.5336,11.5324,11.5413,11.5958,11.6735,11.6734,11.6749,11.7157,11.7412,11.7412,11.7412,11.7412,11.7412,12.4796,12.4734,12.4013,12.3801,12.3701,12.2336,12.2015,12.2332,12.1829,12.2012,12.1907,12.2223,12.2482,12.2296,12.2424,12.257,12.2874,12.3343,12.3818,12.3976,12.3915,12.3825,12.3722,12.3534,12.3323,12.3103,12.3323,12.3528,12.3542,12.3365,12.3409,12.3822,12.3755,12.3687,12.3759,12.3395,12.3148,12.3076,12.2351,12.1808,12.188,12.1808,12.1367,12.0599,11.9832,11.9253,11.8933,11.8592,11.8413,11.8467,11.828,11.7347,11.6395,11.6088,11.6347,11.7322,11.7347,11.7579,11.8037,11.8416,11.8563,11.8599,11.8777,11.8843,11.8872,11.8739,11.8335,11.79,11.7521,11.7162,11.647,11.658,11.6544,11.6476,11.6403,11.636,11.636,11.6366,11.6476,11.6287,11.6617,11.6801,11.6507,11.6391,11.6177,11.6035,11.6035,11.5999,11.5999,11.5999,11.5999,11.5999,11.5999,11.5999,11.5779,11.5705,11.5779,11.5815,11.5962,11.6054,11.6253,11.5981,11.5799,11.6385,11.6703,11.6969,11.7106,11.7121,11.7194,11.7417,11.7412,11.7412,11.7412,11.7412,11.7454,12.4796,12.4726,12.4013,12.4213,12.4775,12.3409,12.3237,12.4086,12.3538,12.3174,12.2725,12.3007,12.2742,12.2402,12.2267,12.2547,12.3182,12.3626,12.3915,12.3949,12.3798,12.3597,12.3407,12.3302,12.3053,12.2852,12.3075,12.3396,12.3521,12.3534,12.3697,12.3958,12.3942,12.397,12.3947,12.3866,12.3685,12.3547,12.2967,12.2634,12.2605,12.246,12.217,12.141,12.0636,11.9977,11.9364,11.8951,11.8644,11.8426,11.8371,11.7956,11.7591,11.7668,11.7956,11.8069,11.8184,11.8379,11.8673,11.9119,11.9339,11.956,11.9921,12.0324,12.0232,11.9822,11.9291,11.8962,11.8471,11.8085,11.8012,11.7755,11.7902,11.7938,11.7828,11.7823,11.7823,11.7828,11.7645,11.7314,11.7535,11.7682,11.7272,11.6905,11.6727,11.6507,11.6323,11.614,11.5999,11.5999,11.5999,11.5999,11.5999,11.5999,11.5962,11.5925,11.5925,11.5925,11.5999,11.5999,11.6079,11.6056,11.6233,11.6608,11.6934,11.7037,11.7207,11.7365,11.7412,11.7412,11.7412,11.7412,11.7603,11.7752,11.7752,12.4796,12.4761,12.4383,12.4588,12.4833,12.3873,12.3673,12.4043,12.37,12.3181,12.2866,12.2936,12.2794,12.2479,12.2851,12.3354,12.3856,12.3748,12.3896,12.3894,12.3708,12.3549,12.3273,12.3174,12.3218,12.3231,12.3383,12.3369,12.3424,12.3961,12.4029,12.3806,12.3915,12.4004,12.4004,12.3968,12.4011,12.3902,12.3612,12.3395,12.3322,12.3069,12.2532,12.2134,12.1475,12.086,12.0498,12.003,11.9804,11.9652,11.9416,11.9242,11.9157,11.9096,11.912,11.8911,11.8926,11.9254,11.959,12.011,12.0257,12.033,12.0691,12.0875,12.0838,12.0471,12.0086,11.9549,11.8919,11.8416,11.8342,11.8452,11.8416,11.8416,11.8452,11.8489,11.8526,11.8819,11.8673,11.8379,11.8306,11.8232,11.8012,11.7639,11.7351,11.7015,11.6685,11.6434,11.6177,11.5999,11.5999,11.6109,11.6103,11.6109,11.6072,11.6035,11.5999,11.5999,11.5999,11.5999,11.5999,11.601,11.6193,11.6534,11.6787,11.6983,11.7181,11.7297,11.7355,11.7412,11.7454,11.7566,11.79,11.8086,11.8128,12.4796,12.4796,12.4796,12.4796,12.4699,12.4189,12.3916,12.3833,12.3694,12.3329,12.2839,12.2995,12.2898,12.2656,12.3185,12.3916,12.4493,12.3877,12.382,12.3784,12.3583,12.3479,12.3295,12.3125,12.3022,12.3499,12.3445,12.3581,12.3872,12.4447,12.448,12.4411,12.4301,12.4373,12.4554,12.4264,12.4155,12.4155,12.4011,12.4004,12.3823,12.3395,12.2924,12.2786,12.217,12.1778,12.1364,12.115,12.0945,12.0749,12.0531,12.0347,12.0453,12.025,11.9928,11.9584,11.9668,12.0173,12.0612,12.0802,12.0765,12.0765,12.0875,12.0912,12.0912,12.0808,12.0581,11.989,11.9413,11.9076,11.9187,11.896,11.9003,11.904,11.904,11.8997,11.9223,11.9517,11.9816,11.9523,11.915,11.8893,11.8746,11.8563,11.8275,11.7566,11.7199,11.7162,11.6874,11.6146,11.6035,11.6213,11.625,11.6219,11.6182,11.6103,11.6072,11.5999,11.5999,11.5999,11.5999,11.5999,11.6236,11.6425,11.6556,11.6755,11.6994,11.7355,11.7572,11.7672,11.7635,11.7789,11.8197,11.8463,11.8616,12.4796,12.4796,12.4796,12.4796,12.4761,12.4664,12.4656,12.4635,12.4851,12.4669,12.3802,12.3798,12.3362,12.3003,12.3001,12.3418,12.3693,12.3865,12.3756,12.3597,12.3281,12.2996,12.2686,12.2127,12.2699,12.3362,12.3253,12.3757,12.4526,12.5187,12.5398,12.5265,12.5113,12.5308,12.5452,12.4807,12.4409,12.4807,12.433,12.4004,12.3974,12.3873,12.3431,12.2996,12.2713,12.2424,12.198,12.1847,12.1725,12.1526,12.1223,12.0957,12.0728,12.0335,12.0257,12.0266,12.0407,12.0529,12.0864,12.0876,12.09,12.0894,12.0894,12.0906,12.0912,12.0912,12.0838,12.0808,12.0514,12.0361,12.0288,12.0514,12.0545,12.0545,12.0502,12.0581,12.0691,12.0691,12.0954,12.0844,12.0508,11.9994,11.9664,11.9449,11.9162,11.8416,11.778,11.778,11.7566,11.6911,11.658,11.6837,11.6911,11.6837,11.6874,11.6727,11.6434,11.625,11.6213,11.614,11.5999,11.6035,11.6109,11.6264,11.6434,11.6907,11.7478,11.779,11.7896,11.8044,11.8165,11.8309,11.8532,11.8797,11.9253,12.4796,12.4796,12.4796,12.4796,12.4796,12.4796,12.4796,12.4829,12.497,12.472,12.4132,12.3636,12.3227,12.291,12.2862,12.3154,12.3613,12.3771,12.359,12.3245,12.2874,12.254,12.2283,12.1861,12.2157,12.332,12.3616,12.4342,12.522,12.549,12.5426,12.5174,12.56,12.567,12.6104,12.5561,12.5278,12.5054,12.4475,12.404,12.4004,12.3968,12.3829,12.351,12.3474,12.3214,12.2958,12.2541,12.2443,12.2168,12.1797,12.1473,12.1426,12.1345,12.1368,12.184,12.1846,12.158,12.1004,12.0816,12.0883,12.0846,12.0858,12.0724,12.0858,12.0912,12.0912,12.0912,12.0912,12.0912,12.1022,12.1358,12.1511,12.1652,12.1756,12.2007,12.2086,12.2233,12.227,12.2086,12.1829,12.1242,12.0765,12.0508,12.011,11.9266,11.8673,11.8489,11.8306,11.7902,11.7718,11.7786,11.7755,11.7682,11.7755,11.7718,11.7272,11.7015,11.6831,11.6648,11.6103,11.6035,11.636,11.6655,11.7028,11.7526,11.8015,11.8259,11.8394,11.8569,11.8765,11.9137,11.9545,11.9996,12.0373,12.4796,12.4796,12.4796,12.4796,12.4796,12.4796,12.4796,12.4796,12.4804,12.4637,12.4174,12.3463,12.2926,12.2738,12.2635,12.2915,12.3685,12.3547,12.3353,12.296,12.2547,12.2253,12.203,12.173,12.2206,12.3974,12.3305,12.4255,12.5477,12.5898,12.5524,12.508,12.6288,12.6562,12.6358,12.614,12.5923,12.517,12.4402,12.404,12.4004,12.4004,12.4004,12.3968,12.4004,12.4004,12.3895,12.3474,12.3112,12.2981,12.2378,12.2093,12.221,12.1956,12.2084,12.2412,12.2477,12.2236,12.1775,12.1567,12.1354,12.1299,12.1054,12.1066,12.0876,12.0912,12.0912,12.0912,12.0912,12.0912,12.1059,12.1615,12.1878,12.2245,12.2643,12.3041,12.3292,12.3071,12.2931,12.2747,12.2527,12.2447,12.2007,12.1677,12.1095,12.019,11.9639,11.9272,11.8935,11.8642,11.8715,11.8673,11.8306,11.8306,11.8563,11.8526,11.8116,11.7817,11.7596,11.7345,11.6947,11.6874,11.7125,11.7419,11.7747,11.8128,11.8609,11.8754,11.8891,11.9205,11.9556,12.023,12.0713,12.1122,12.1344,12.4796,12.4796,12.4796,12.4796,12.4796,12.4796,12.4796,12.4796,12.4796,12.4716,12.4323,12.3537,12.2674,12.2295,12.2279,12.267,12.3531,12.326,12.3089,12.2866,12.2546,12.2255,12.2006,12.1872,12.2176,12.3591,12.3385,12.4133,12.5504,12.6196,12.6452,12.7069,12.7264,12.7896,12.7705,12.6937,12.6322,12.5489,12.4662,12.4185,12.4112,12.4047,12.4004,12.4004,12.4004,12.4004,12.4004,12.3823,12.375,12.3721,12.3112,12.2802,12.2899,12.2472,12.2592,12.2993,12.2886,12.2882,12.296,12.2778,12.2943,12.2863,12.2435,12.1671,12.1205,12.0985,12.0942,12.1022,12.1022,12.1059,12.1242,12.1578,12.2239,12.2833,12.3304,12.3597,12.3701,12.3512,12.3365,12.3261,12.3071,12.2851,12.2778,12.2374,12.1866,12.0997,12.0184,11.978,11.948,11.926,11.9449,11.9413,11.8856,11.8893,11.9339,11.9223,11.8887,11.8593,11.8373,11.8232,11.8049,11.8054,11.7879,11.8316,11.8656,11.8924,11.927,11.9805,12.0135,12.0065,12.0384,12.1015,12.1382,12.161,12.1865,12.4796,12.4796,12.4796,12.4796,12.4796,12.4796,12.4796,12.4796,12.4796,12.4199,12.3408,12.2869,12.2166,12.1634,12.1775,12.206,12.2531,12.3303,12.2927,12.253,12.2219,12.2199,12.1981,12.2084,12.247,12.3712,12.3715,12.431,12.6005,12.6405,12.6946,12.7509,12.8,12.8026,12.7806,12.7517,12.6966,12.6394,12.5452,12.4764,12.4619,12.4185,12.4004,12.4004,12.4004,12.4004,12.4004,12.4004,12.4004,12.3895,12.3648,12.3585,12.3635,12.3227,12.3449,12.3899,12.3668,12.3959,12.4163,12.3686,12.2919,12.3064,12.2857,12.2496,12.1695,12.1597,12.1634,12.153,12.1205,12.1205,12.2343,12.2668,12.3071,12.3591,12.3965,12.4221,12.4111,12.3885,12.3695,12.3591,12.3298,12.2967,12.2967,12.2888,12.238,12.1799,12.0991,12.0288,12.0031,11.9884,12.0073,12.0184,11.97,11.9664,12.0104,11.9957,11.97,11.9407,11.915,11.9032,11.8915,11.8632,11.8591,11.9078,11.9655,12.0054,12.0515,12.113,12.1227,12.0909,12.1196,12.1759,12.2019,12.2093,12.2162,12.4796,12.4796,12.4796,12.4796,12.4796,12.4796,12.4796,12.4796,12.4796,12.4001,12.2661,12.2607,12.2055,12.1374,12.1464,12.1875,12.229,12.2903,12.2848,12.2631,12.251,12.247,12.2376,12.25,12.2935,12.4004,12.4528,12.5216,12.6072,12.6751,12.73,12.783,12.8397,12.8365,12.8132,12.7691,12.7611,12.7256,12.6387,12.5561,12.5452,12.48,12.4402,12.433,12.4185,12.4004,12.4004,12.4004,12.4004,12.4004,12.3931,12.3968,12.4043,12.4192,12.4503,12.4715,12.4873,12.5061,12.5071,12.4596,12.343,12.3577,12.3597,12.3096,12.2429,12.2105,12.2007,12.1982,12.1585,12.1835,12.3255,12.3438,12.3695,12.4179,12.4852,12.5109,12.4552,12.4258,12.4068,12.3885,12.3518,12.3151,12.3157,12.3077,12.2386,12.1872,12.1211,12.0691,12.0581,12.0508,12.0618,12.0691,12.0618,12.0691,12.0838,12.0508,12.0251,12.0214,11.9981,11.9863,11.9719,11.9446,11.959,12.0238,12.0781,12.1229,12.1485,12.1713,12.1691,12.1535,12.1859,12.2162,12.2162,12.2199,12.2236,12.4796,12.4796,12.4796,12.4796,12.4796,12.4796,12.4796,12.4796,12.4761,12.417,12.3111,12.2967,12.2498,12.1803,12.1771,12.2051,12.2564,12.2983,12.3116,12.3139,12.3091,12.3169,12.3184,12.3265,12.3466,12.4171,12.4821,12.5425,12.5961,12.6974,12.7606,12.7998,12.8505,12.8733,12.8697,12.8024,12.7647,12.751,12.6785,12.6466,12.6213,12.5597,12.5235,12.4837,12.4475,12.4221,12.4011,12.4004,12.4004,12.4004,12.4036,12.4029,12.4038,12.4097,12.4423,12.482,12.4643,12.4888,12.5522,12.5517,12.5083,12.4471,12.4442,12.3854,12.2649,12.2239,12.2417,12.2686,12.2239,12.2527,12.3298,12.3922,12.4289,12.4809,12.5445,12.5445,12.4852,12.4478,12.4252,12.3958,12.3665,12.3408,12.3414,12.3236,12.2429,12.1805,12.1285,12.1022,12.0948,12.0912,12.0912,12.0912,12.0912,12.0912,12.0912,12.0912,12.0802,12.0844,12.0757,12.0558,12.0663,12.0653,12.0965,12.1448,12.1573,12.1759,12.1916,12.2142,12.2012,12.1891,12.2045,12.2273,12.2273,12.231,12.231,12.4796,12.4796,12.4796,12.4796,12.4796,12.4796,12.4796,12.4796,12.4751,12.4405,12.371,12.3069,12.255,12.2245,12.2186,12.2443,12.2872,12.4126,12.4356,12.3463,12.3608,12.3634,12.3683,12.3837,12.403,12.4661,12.5294,12.5953,12.6531,12.7306,12.7917,12.8383,12.8606,12.8777,12.8733,12.8472,12.84,12.8248,12.7662,12.7184,12.7075,12.6394,12.5742,12.5271,12.4873,12.4438,12.4047,12.4004,12.4004,12.4045,12.409,12.4158,12.4131,12.4255,12.4643,12.4903,12.4748,12.4931,12.5375,12.5503,12.558,12.5329,12.5145,12.4705,12.3824,12.3708,12.3701,12.3481,12.3077,12.3591,12.4699,12.4478,12.4699,12.5219,12.5592,12.5219,12.4809,12.4589,12.4368,12.3965,12.3597,12.2863,12.2612,12.2502,12.1878,12.1695,12.1248,12.1022,12.0912,12.0912,12.0912,12.0912,12.0912,12.0912,12.0912,12.0912,12.0954,12.091,12.0969,12.0988,12.122,12.149,12.1667,12.1788,12.1978,12.2202,12.2213,12.2229,12.2267,12.2273,12.231,12.231,12.231,12.231,12.231,12.4796,12.4796,12.4796,12.4796,12.4796,12.4796,12.4796,12.4796,12.4769,12.4581,12.4106,12.3369,12.2804,12.2604,12.2673,12.2614,12.2945,12.4117,12.4669,12.3821,12.4187,12.4225,12.4248,12.4281,12.4467,12.499,12.5631,12.6289,12.6772,12.7366,12.8012,12.857,12.8798,12.8798,12.8769,12.8733,12.8733,12.8581,12.8176,12.7995,12.7698,12.7046,12.614,12.5633,12.5054,12.4475,12.4149,12.4011,12.4011,12.407,12.4192,12.4313,12.4333,12.4563,12.4896,12.4922,12.5046,12.5158,12.5445,12.5583,12.5659,12.5629,12.5702,12.5298,12.4705,12.4332,12.4332,12.4215,12.3952,12.4546,12.5256,12.4882,12.5145,12.5666,12.5555,12.5219,12.4809,12.4589,12.4552,12.4118,12.3383,12.2576,12.1768,12.1505,12.1211,12.1211,12.1211,12.1065,12.0912,12.0912,12.0912,12.0912,12.0912,12.0912,12.0912,12.0912,12.096,12.1001,12.1106,12.1222,12.1536,12.1746,12.1952,12.2096,12.2169,12.2262,12.2283,12.231,12.231,12.231,12.231,12.231,12.231,12.231,12.231,12.4796,12.4796,12.4796,12.4796,12.4796,12.4796,12.4796,12.4796,12.4796,12.4608,12.4249,12.4181,12.3547,12.2832,12.3248,12.3228,12.3036,12.4012,12.4289,12.4366,12.4603,12.4668,12.4681,12.4697,12.4749,12.5097,12.5628,12.6234,12.6856,12.7762,12.8433,12.8684,12.8798,12.8798,12.8798,12.8798,12.8798,12.8733,12.8654,12.8545,12.8291,12.7451,12.672,12.6068,12.5308,12.4554,12.4169,12.4051,12.4036,12.4138,12.4313,12.4387,12.4507,12.4741,12.4876,12.5007,12.5201,12.5558,12.5816,12.5941,12.5916,12.6026,12.5916,12.5329,12.4925,12.4742,12.4772,12.4772,12.4625,12.5029,12.5439,12.5476,12.5555,12.5702,12.5702,12.5329,12.4846,12.4699,12.4699,12.4221,12.3347,12.2466,12.1468,12.0985,12.1248,12.0985,12.1065,12.1022,12.0912,12.0912,12.0912,12.0912,12.0912,12.0912,12.0912,12.0912,12.0995,12.1047,12.1223,12.1398,12.1696,12.1985,12.2113,12.218,12.2262,12.231,12.231,12.231,12.231,12.231,12.231,12.2528,12.2602,12.2348,12.231,12.4796,12.4796,12.4796,12.4796,12.4796,12.4796,12.4796,12.4796,12.4796,12.4862,12.5006,12.4189,12.3834,12.4054,12.4033,12.3967,12.4253,12.4659,12.4981,12.5024,12.4813,12.4802,12.4796,12.4796,12.4796,12.4995,12.5453,12.6163,12.6948,12.7976,12.862,12.8755,12.8798,12.8798,12.8798,12.8798,12.8798,12.8798,12.8798,12.8798,12.8769,12.811,12.7372,12.6466,12.5815,12.5018,12.435,12.4244,12.4225,12.4313,12.4794,12.4918,12.4433,12.4886,12.5177,12.525,12.5755,12.6273,12.6581,12.7085,12.7054,12.6461,12.6424,12.61,12.5623,12.5298,12.5256,12.5182,12.5182,12.5476,12.5586,12.5666,12.5709,12.5709,12.5709,12.5519,12.5145,12.5145,12.5109,12.4662,12.3781,12.2716,12.1683,12.1468,12.1615,12.1175,12.0948,12.0985,12.0948,12.0948,12.0912,12.0912,12.0912,12.0912,12.0912,12.0912,12.1036,12.1153,12.1328,12.1542,12.1848,12.207,12.2207,12.2273,12.2262,12.231,12.231,12.231,12.231,12.231,12.2348,12.2682,12.2862,12.2719,12.2756,12.4796,12.4796,12.4796,12.4796,12.4796,12.4796,12.473,12.4575,12.4414,12.473,12.5247,12.4213,12.3973,12.4361,12.4398,12.4344,12.4216,12.4715,12.5058,12.4993,12.4912,12.4838,12.4796,12.4796,12.4796,12.4978,12.5469,12.621,12.7033,12.8012,12.8798,12.8798,12.8798,12.8798,12.8798,12.8798,12.8798,12.8798,12.8798,12.8798,12.8733,12.8545,12.7662,12.7003,12.6466,12.538,12.4661,12.455,12.4387,12.4487,12.5003,12.5158,12.4784,12.5139,12.5674,12.5815,12.6173,12.6587,12.6832,12.7195,12.7048,12.6718,12.6491,12.6137,12.5886,12.5592,12.5592,12.5592,12.5629,12.5702,12.5702,12.5709,12.5709,12.5709,12.5709,12.5709,12.5666,12.5666,12.5439,12.5139,12.4295,12.3267,12.2606,12.2355,12.1915,12.1322,12.1248,12.1542,12.1358,12.1095,12.0985,12.0912,12.0912,12.0912,12.0912,12.0948,12.1101,12.1241,12.1427,12.1667,12.1987,12.2158,12.2256,12.2294,12.2305,12.231,12.231,12.231,12.231,12.2385,12.2719,12.3276,12.3499,12.3314,12.3462,12.4796,12.4796,12.4796,12.4726,12.4726,12.4726,12.46,12.4209,12.3956,12.433,12.4981,12.426,12.4111,12.4641,12.4761,12.4554,12.4471,12.4724,12.4896,12.4813,12.4821,12.4796,12.4796,12.4796,12.4796,12.5151,12.5676,12.6351,12.7096,12.8056,12.8798,12.8798,12.8798,12.8798,12.8798,12.8798,12.8798,12.8798,12.8798,12.8762,12.8617,12.8212,12.7618,12.7292,12.6351,12.5271,12.513,12.4865,12.4463,12.4772,12.5028,12.5467,12.5663,12.5635,12.6168,12.663,12.6937,12.7046,12.7247,12.7556,12.7042,12.6497,12.588,12.6026,12.6063,12.5776,12.5702,12.5702,12.5709,12.5709,12.5709,12.5709,12.5709,12.5709,12.5709,12.5709,12.5709,12.5629,12.5402,12.5139,12.4888,12.3861,12.2937,12.2643,12.2753,12.1835,12.1646,12.2129,12.2056,12.1683,12.1462,12.1279,12.1248,12.1248,12.0912,12.099,12.1166,12.1359,12.155,12.1803,12.212,12.2234,12.2262,12.231,12.231,12.231,12.231,12.2459,12.2645,12.2756,12.3202,12.3945,12.4131,12.4094,12.428,12.4796,12.4796,12.4796,12.4488,12.4075,12.4559,12.4581,12.4214,12.4138,12.4397,12.4772,12.465,12.4838,12.534,12.5217,12.4983,12.4969,12.4712,12.4778,12.4796,12.4796,12.4796,12.4796,12.4796,12.4821,12.5044,12.5612,12.662,12.7569,12.8354,12.8798,12.8798,12.8798,12.8798,12.8798,12.8798,12.8798,12.8798,12.8798,12.8798,12.869,12.8581,12.8291,12.7589,12.6611,12.617,12.5796,12.5074,12.5605,12.6272,12.6189,12.6571,12.7079,12.6903,12.7052,12.7464,12.7895,12.7865,12.7834,12.7996,12.7813,12.7366,12.6962,12.6705,12.6454,12.599,12.5739,12.5739,12.5709,12.5709,12.5709,12.5709,12.5709,12.5709,12.5709,12.5709,12.5709,12.5519,12.5329,12.5256,12.5182,12.4485,12.3524,12.3194,12.3298,12.3188,12.2924,12.3035,12.3077,12.282,12.249,12.2276,12.1952,12.1762,12.1358,12.1172,12.1465,12.1534,12.1693,12.1978,12.2282,12.2432,12.2571,12.2348,12.231,12.2608,12.2905,12.3016,12.3165,12.3314,12.3871,12.4688,12.5208,12.5283,12.5431,12.4594,12.4321,12.4321,12.4278,12.4216,12.4286,12.4346,12.4364,12.4048,12.4361,12.5011,12.4917,12.5148,12.5773,12.5529,12.5252,12.5153,12.4904,12.4813,12.4796,12.4796,12.4796,12.4796,12.4804,12.511,12.5355,12.6328,12.7329,12.8122,12.8498,12.8798,12.8798,12.8798,12.8798,12.8798,12.8798,12.8798,12.8798,12.8798,12.8798,12.8798,12.8697,12.8654,12.7958,12.7444,12.7003,12.6666,12.6024,12.6323,12.7048,12.7126,12.735,12.7669,12.7622,12.7925,12.8229,12.8434,12.8423,12.8355,12.8437,12.851,12.788,12.777,12.7372,12.6932,12.6534,12.6283,12.6247,12.5776,12.5709,12.5709,12.5709,12.5709,12.5709,12.5709,12.5709,12.5709,12.5629,12.5513,12.5476,12.5329,12.5035,12.4258,12.3928,12.3891,12.3481,12.3402,12.3812,12.3885,12.3958,12.3634,12.334,12.301,12.2686,12.2386,12.209,12.1905,12.1943,12.1985,12.2356,12.2786,12.2835,12.2868,12.3054,12.3276,12.3537,12.3759,12.3834,12.3945,12.4131,12.4725,12.5469,12.5914,12.6286,12.636,12.4313,12.3627,12.3803,12.4005,12.4286,12.4001,12.3981,12.4211,12.3948,12.4414,12.5314,12.509,12.5385,12.5575,12.5537,12.5186,12.4904,12.4829,12.4796,12.4796,12.4796,12.4796,12.4796,12.4829,12.5298,12.5988,12.6867,12.7792,12.8641,12.8798,12.8798,12.8798,12.8798,12.8798,12.8798,12.8798,12.8798,12.8798,12.8798,12.8798,12.8798,12.8806,12.8726,12.8509,12.8103,12.7698,12.7528,12.721,12.7039,12.7731,12.8242,12.8522,12.8606,12.8708,12.894,12.9217,12.907,12.8765,12.848,12.8473,12.8106,12.7696,12.7996,12.7923,12.7476,12.7256,12.7042,12.6724,12.6253,12.6106,12.6106,12.6069,12.6069,12.5886,12.5886,12.5739,12.5739,12.5739,12.5702,12.5659,12.5476,12.5249,12.5029,12.4699,12.4405,12.3922,12.3958,12.4368,12.4662,12.4778,12.4705,12.4442,12.4148,12.3818,12.3298,12.2911,12.2563,12.2659,12.2801,12.3048,12.3321,12.3573,12.3871,12.428,12.4503,12.4428,12.4577,12.4688,12.48,12.5023,12.5617,12.6212,12.6323,12.6695,12.6955,12.3997,12.283,12.4059,12.3681,12.2501,12.351,12.3626,12.3193,12.4345,12.4895,12.5026,12.5782,12.6064,12.5867,12.5529,12.5186,12.4838,12.4796,12.4796,12.4796,12.4738,12.4763,12.4949,12.5193,12.5647,12.6482,12.728,12.776,12.8852,12.895,12.8798,12.8798,12.8798,12.8798,12.8798,12.8798,12.8798,12.8798,12.8798,12.8798,12.8798,12.8798,12.8798,12.8472,12.8031,12.8132,12.8016,12.7131,12.7818,12.8805,12.959,12.9728,12.9795,12.9728,12.9905,12.9825,12.9685,12.9311,12.9054,12.8914,12.8504,12.8534,12.8754,12.8551,12.8295,12.8252,12.8044,12.7856,12.7532,12.7532,12.7495,12.7421,12.7348,12.6687,12.643,12.6063,12.588,12.5843,12.5806,12.5739,12.5629,12.5555,12.5519,12.5335,12.5298,12.4999,12.4962,12.5298,12.5262,12.5445,12.5629,12.5366,12.5066,12.4362,12.3585,12.3463,12.3265,12.3419,12.3584,12.3841,12.4136,12.4432,12.48,12.5246,12.5134,12.4911,12.5134,12.5654,12.584,12.61,12.654,12.6949,12.7023,12.6955,12.714]},{"header":{"parameterUnit":"m.s-1","parameterCategory":1,"la1":31.0,"la2":29.5877,"lo1":-88.7671,"lo2":-86.6584,"dy":0.0162,"dx":0.0185,"nx":115,"ny":88,"refTime":"2023-11-01T06:00:00:Z","depth":0,"parameterNumber":3,"parameterNumberName":"V-component_of_WINDS"},"data":[0.0,0.0,0.0,0.0,0.0,0.0,0.0,0.0,0.0,0.0,0.0,0.0,0.0,0.0,0.0,0.0,0.0,0.0,0.0,0.0,0.0,0.0,0.0,0.0,0.0,0.0,0.0,0.0,0.0,0.0,0.0,0.0,0.0,0.0,0.0,0.0,0.0,0.0,0.0,0.0,0.0,0.0,0.0,0.0,0.0,0.0,0.0,0.0,0.0,0.0,0.0,0.0,0.0,0.0,0.0,0.0,0.0,0.0,0.0,0.0,0.0,0.0,0.0,0.0,0.0,0.0,0.0,0.0,0.0,0.0,0.0,0.0,0.0,0.0,0.0,0.0,0.0,0.0,0.0,0.0,0.0,0.0,0.0,0.0,0.0,0.0,0.0,0.0,0.0,0.0,0.0,0.0,0.0,0.0,0.0,0.0,0.0,0.0,0.0,0.0,0.0,0.0,0.0,0.0,0.0,0.0,0.0,0.0,0.0,0.0,0.0,0.0,0.0,0.0,0.0,0.0,0.0,0.0,0.0,0.0,0.0,0.0,0.0,0.0,0.0,0.0,0.0,0.0,0.0,0.0,0.0,0.0,0.0,0.0,0.0,0.0,0.0,0.0,0.0,0.0,0.0,0.0,0.0,0.0,0.0,0.0,0.0,0.0,0.0,0.0,0.0,0.0,0.0,0.0,0.0,0.0,0.0,0.0,0.0,0.0,0.0,0.0,0.0,0.0,0.0,0.0,0.0,0.0,0.0,0.0,0.0,0.0,0.0,0.0,0.0,0.0,0.0,0.0,0.0,0.0,0.0,0.0,0.0,0.0,0.0,0.0,0.0,0.0,0.0,0.0,0.0,0.0,0.0,0.0,0.0,0.0,0.0,0.0,0.0,0.0,0.0,0.0,0.0,0.0,0.0,0.0,0.0,0.0,0.0,0.0,0.0,0.0,0.0,0.0,0.0,0.0,0.0,0.0,0.0,0.0,0.0,0.0,0.0,0.0,0.0,0.0,0.0,0.0,0.0,0.0,0.0,0.0,0.0,0.0,0.0,0.0,0.0,0.0,0.0,0.0,0.0,0.0,0.0,0.0,0.0,0.0,0.0,0.0,0.0,0.0,0.0,0.0,0.0,0.0,0.0,0.0,0.0,0.0,0.0,0.0,0.0,0.0,0.0,0.0,0.0,0.0,0.0,0.0,0.0,0.0,0.0,0.0,0.0,0.0,0.0,0.0,0.0,0.0,0.0,0.0,0.0,0.0,0.0,0.0,0.0,0.0,0.0,0.0,0.0,0.0,0.0,0.0,0.0,0.0,0.0,0.0,0.0,0.0,0.0,0.0,0.0,0.0,0.0,0.0,0.0,0.0,0.0,0.0,0.0,0.0,0.0,0.0,0.0,0.0,0.0,0.0,0.0,0.0,0.0,0.0,0.0,0.0,0.0,0.0,0.0,0.0,0.0,0.0,0.0,0.0,0.0,0.0,0.0,0.0,0.0,0.0,0.0,0.0,0.0,0.0,0.0,0.0,0.0,0.0,0.0,0.0,0.0,0.0,0.0,0.0,0.0,0.0,0.0,0.0,0.0,0.0,0.0,0.0,0.0,0.0,0.0,0.0,0.0,0.0,0.0,0.0,0.0,0.0,0.0,0.0,0.0,0.0,0.0,0.0,0.0,0.0,0.0,0.0,0.0,0.0,0.0,0.0,0.0,0.0,0.0,0.0,0.0,0.0,0.0,0.0,0.0,0.0,0.0,0.0,0.0,0.0,0.0,0.0,0.0,0.0,0.0,0.0,0.0,0.0,0.0,0.0,0.0,0.0,0.0,0.0,0.0,0.0,0.0,0.0,0.0,0.0,0.0,0.0,0.0,0.0,0.0,0.0,0.0,0.0,0.0,0.0,0.0,0.0,0.0,0.0,0.0,0.0,0.0,0.0,0.0,0.0,0.0,0.0,0.0,0.0,0.0,0.0,0.0,0.0,0.0,0.0,0.0,0.0,0.0,0.0,0.0,0.0,0.0,0.0,0.0,0.0,0.0,0.0,0.0,0.0,0.0,0.0,0.0,0.0,0.0,0.0,0.0,0.0,0.0,0.0,0.0,0.0,0.0,0.0,0.0,0.0,0.0,0.0,0.0,0.0,0.0,0.0,0.0,0.0,0.0,0.0,0.0,0.0,0.0,0.0,0.0,0.0,0.0,0.0,0.0,0.0,0.0,0.0,0.0,0.0,0.0,0.0,0.0,0.0,0.0,0.0,0.0,0.0,0.0,0.0,0.0,0.0,0.0,0.0,0.0,0.0,0.0,0.0,0.0,0.0,0.0,0.0,0.0,0.0,0.0,0.0,0.0,0.0,0.0,0.0,0.0,0.0,0.0,0.0,0.0,0.0,0.0,0.0,0.0,0.0,0.0,0.0,0.0,0.0,0.0,0.0,0.0,0.0,0.0,0.0,0.0,0.0,0.0,0.0,0.0,0.0,0.0,0.0,0.0,0.0,0.0,0.0,0.0,0.0,0.0,0.0,0.0,0.0,0.0,0.0,0.0,0.0,0.0,0.0,0.0,0.0,0.0,0.0,0.0,0.0,0.0,0.0,0.0,0.0,0.0,0.0,0.0,0.0,0.0,0.0,0.0,0.0,0.0,0.0,0.0,0.0,0.0,0.0,0.0,0.0,0.0,0.0,0.0,0.0,0.0,0.0,0.0,0.0,0.0,0.0,0.0,0.0,0.0,0.0,0.0,0.0,0.0,0.0,0.0,0.0,0.0,0.0,0.0,0.0,0.0,0.0,0.0,0.0,0.0,0.0,0.0,0.0,0.0,0.0,0.0,0.0,0.0,0.0,0.0,0.0,0.0,0.0,0.0,0.0,0.0,0.0,0.0,0.0,0.0,0.0,0.0,0.0,0.0,0.0,0.0,0.0,0.0,0.0,0.0,0.0,0.0,0.0,0.0,0.0,0.0,0.0,0.0,0.0,0.0,0.0,0.0,0.0,0.0,0.0,0.0,0.0,0.0,0.0,0.0,0.0,0.0,0.0,0.0,0.0,0.0,0.0,0.0,0.0,0.0,0.0,0.0,0.0,0.0,0.0,0.0,0.0,0.0,0.0,0.0,0.0,0.0,0.0,0.0,0.0,0.0,0.0,0.0,0.0,0.0,0.0,0.0,0.0,0.0,0.0,0.0,0.0,0.0,0.0,0.0,0.0,0.0,0.0,0.0,0.0,0.0,0.0,0.0,0.0,0.0,0.0,0.0,0.0,0.0,0.0,0.0,0.0,0.0,0.0,0.0,0.0,0.0,0.0,0.0,0.0,0.0,0.0,0.0,0.0,0.0,0.0,0.0,0.0,0.0,0.0,0.0,0.0,0.0,0.0,0.0,0.0,0.0,0.0,0.0,0.0,0.0,0.0,0.0,0.0,0.0,0.0,0.0,0.0,0.0,0.0,0.0,0.0,0.0,0.0,0.0,0.0,0.0,0.0,0.0,0.0,0.0,0.0,0.0,0.0,0.0,0.0,0.0,0.0,0.0,0.0,0.0,0.0,0.0,0.0,0.0,0.0,0.0,0.0,0.0,0.0,0.0,0.0,0.0,0.0,0.0,0.0,0.0,0.0,0.0,0.0,0.0,0.0,0.0,0.0,0.0,0.0,0.0,0.0,0.0,0.0,0.0,0.0,0.0,0.0,0.0,0.0,0.0,0.0,0.0,0.0,0.0,0.0,0.0,0.0,0.0,0.0,0.0,0.0,0.0,0.0,0.0,0.0,0.0,0.0,0.0,0.0,0.0,0.0,0.0,0.0,0.0,0.0,0.0,0.0,0.0,0.0,0.0,0.0,0.0,0.0,0.0,0.0,0.0,0.0,0.0,0.0,0.0,0.0,0.0,0.0,0.0,0.0,0.0,0.0,0.0,0.0,0.0,0.0,0.0,0.0,0.0,0.0,0.0,0.0,0.0,0.0,0.0,0.0,0.0,0.0,0.0,0.0,0.0,0.0,0.0,0.0,0.0,0.0,0.0,0.0,0.0,0.0,0.0,0.0,0.0,0.0,0.0,0.0,0.0,0.0,0.0,0.0,0.0,0.0,0.0,0.0,0.0,0.0,0.0,0.0,0.0,0.0,0.0,0.0,0.0,0.0,0.0,0.0,0.0,0.0,0.0,0.0,0.0,0.0,0.0,0.0,0.0,0.0,0.0,0.0,0.0,0.0,0.0,0.0,0.0,0.0,0.0,0.0,0.0,0.0,0.0,0.0,0.0,0.0,0.0,0.0,0.0,0.0,0.0,0.0,0.0,0.0,1.1925,0.0,0.0,0.0,0.0,0.0,0.0,0.0,0.0,0.0,0.0,0.0,0.0,0.0,0.0,0.0,0.0,0.0,0.0,0.0,0.0,0.0,0.0,0.0,0.0,0.0,0.0,0.0,0.0,0.0,0.0,0.0,0.0,0.0,0.0,0.0,0.0,0.0,0.0,0.0,0.0,0.0,0.0,0.0,0.0,0.0,0.0,0.0,0.0,0.0,0.0,0.0,0.0,0.0,0.0,0.0,0.0,0.0,0.0,0.0,0.0,0.0,0.0,0.0,0.0,0.0,0.0,0.0,0.0,0.0,0.0,0.0,0.0,0.0,0.0,0.0,0.0,0.0,0.0,0.0,0.0,0.0,0.0,0.0,0.0,0.0,0.0,0.0,0.0,0.0,0.0,0.0,0.0,0.0,0.0,0.0,0.0,0.0,0.0,0.0,0.0,0.0,0.0,0.0,0.0,0.0,0.0,0.0,0.0,0.0,0.0,1.2008,1.1717,1.1574,1.1573,1.1733,0.0,0.0,0.0,0.0,0.0,0.0,0.0,0.0,0.0,0.0,0.0,0.0,0.0,0.0,0.0,0.0,0.0,0.0,0.0,0.0,0.0,0.0,0.0,0.0,0.0,0.0,0.0,0.0,0.0,0.0,0.0,0.0,0.0,0.0,0.0,0.0,0.0,0.0,0.0,0.0,0.0,0.0,0.0,0.0,0.0,0.0,0.0,0.0,0.0,0.0,0.0,0.0,0.0,0.0,0.0,0.0,0.0,0.0,0.0,0.0,0.0,0.0,0.0,0.0,0.0,0.0,0.0,0.0,0.0,0.0,0.0,0.0,0.0,0.0,0.0,0.0,0.0,0.0,0.0,0.0,0.0,0.0,0.0,0.0,0.0,0.0,0.0,0.0,0.0,0.0,0.0,0.0,0.0,0.0,0.0,0.0,0.0,0.0,0.0,0.0,0.0,0.0,0.0,0.0,0.0,0.0,0.0,0.0,0.0,0.0,0.0,0.0,1.1778,1.1692,1.166,0.0,0.0,0.0,0.0,0.0,0.0,0.0,0.0,0.0,0.0,0.0,0.0,0.0,0.0,0.0,0.0,0.0,0.0,0.0,0.0,0.0,0.0,0.0,0.0,0.0,0.0,0.0,0.0,0.0,0.0,0.0,0.0,0.0,0.0,0.0,0.0,0.0,0.0,0.0,0.0,0.0,0.0,0.0,0.0,0.0,0.0,0.0,0.0,0.0,0.0,0.0,0.0,0.0,0.0,0.0,0.0,0.0,0.0,0.0,0.0,0.0,0.0,0.0,0.0,0.0,0.0,0.0,0.0,0.0,0.0,0.0,0.0,0.0,0.0,0.0,0.0,0.0,0.0,0.0,0.0,0.0,0.0,0.0,0.0,0.0,0.0,0.0,0.0,0.0,0.0,0.0,0.0,0.0,0.0,0.0,0.0,0.0,0.0,0.0,0.0,0.0,0.0,0.0,0.0,0.0,0.0,0.0,0.0,0.0,0.0,1.2159,1.2253,1.2122,0.0,1.1812,0.0,0.0,0.0,0.0,0.0,0.0,0.0,0.0,0.0,0.0,0.0,0.0,0.0,0.0,0.0,0.0,0.0,0.0,0.0,0.0,0.0,0.0,0.0,0.0,0.0,0.0,0.0,0.0,0.0,0.0,0.0,0.0,0.0,0.0,0.0,0.0,0.0,0.0,0.0,0.0,0.0,0.0,0.0,0.0,0.0,0.0,0.0,0.0,0.0,0.0,0.0,0.0,0.0,0.0,0.0,0.0,0.0,0.0,0.0,0.0,0.0,0.0,0.0,0.0,0.0,0.0,0.0,0.0,0.0,0.0,0.0,0.0,0.0,0.0,0.0,0.0,0.0,0.0,0.0,0.0,0.0,0.0,0.0,0.0,0.0,0.0,0.0,0.0,0.0,0.0,0.0,0.0,0.0,0.0,0.0,0.0,0.0,0.0,0.0,0.0,0.0,0.0,0.0,0.0,0.0,0.0,0.0,0.0,0.0,0.0,1.1978,1.1949,1.1785,1.1708,0.0,0.0,0.0,0.0,0.0,0.0,0.0,0.0,0.0,0.0,0.0,0.0,0.0,0.0,0.0,0.0,0.0,0.0,0.0,0.0,0.0,0.0,0.0,0.0,0.0,0.0,0.0,0.0,0.0,0.0,0.0,0.0,0.0,0.0,0.0,0.0,0.0,0.0,0.0,0.0,0.0,0.0,0.0,0.0,0.0,0.0,0.0,0.0,0.0,0.0,0.0,0.0,0.0,0.0,0.0,0.0,0.0,0.0,0.0,0.0,0.0,0.0,0.0,0.0,0.0,0.0,0.0,0.0,0.0,0.0,0.0,0.0,0.0,0.0,0.0,0.0,0.0,0.0,0.0,0.0,0.0,0.0,0.0,0.0,0.0,0.0,0.0,0.0,0.0,0.0,0.0,0.0,0.0,0.0,0.0,0.0,0.0,0.0,0.0,0.0,0.0,0.0,0.0,0.0,0.0,0.0,0.0,0.0,0.0,0.0,1.1995,1.1885,1.1769,1.1693,1.1711,1.187,0.0,0.0,0.0,0.0,0.0,0.0,0.0,0.0,0.0,0.0,0.0,0.0,0.0,0.0,0.0,0.0,0.0,0.0,0.0,0.0,0.0,0.0,0.0,0.0,0.0,0.0,0.0,0.0,0.0,0.0,0.0,0.0,0.0,0.0,0.0,0.0,0.0,0.0,0.0,0.0,0.0,0.0,0.0,0.0,0.0,0.0,0.0,0.0,0.0,0.0,0.0,0.0,0.0,0.0,0.0,0.0,0.0,0.0,0.0,0.0,0.0,0.0,0.0,0.0,0.0,0.0,0.0,0.0,0.0,0.0,0.0,0.0,0.0,0.0,0.0,0.0,0.0,0.0,0.0,0.0,0.0,0.0,0.0,0.0,0.0,0.0,0.0,0.0,0.0,0.0,0.0,0.0,0.0,0.0,0.0,0.0,0.0,0.0,0.0,0.0,0.0,0.0,0.0,0.0,0.0,0.0,0.0,0.0,1.2479,1.2214,1.2018,1.1885,1.2113,1.221,0.0,0.0,0.0,0.0,0.0,0.0,0.0,0.0,0.0,0.0,0.0,0.0,0.0,0.0,0.0,0.0,0.0,0.0,0.0,0.0,0.0,0.0,0.0,0.0,0.0,0.0,0.0,0.0,0.0,0.0,0.0,0.0,0.0,0.0,0.0,0.0,0.0,0.0,0.0,0.0,0.0,0.0,0.0,0.0,0.0,0.0,0.0,0.0,0.0,0.0,0.0,0.0,0.0,0.0,0.0,0.0,0.0,0.0,0.0,0.0,0.0,0.0,0.0,0.0,0.0,0.0,0.0,0.0,0.0,0.0,0.0,0.0,0.0,0.0,0.0,0.0,0.0,0.0,0.0,0.0,0.0,0.0,0.0,0.0,0.0,0.0,0.0,0.0,0.0,0.0,0.0,0.0,0.0,0.0,0.0,0.0,0.0,0.0,0.0,0.0,0.0,0.0,0.0,0.0,0.0,0.0,0.0,0.0,0.0,1.2395,1.2268,1.1898,1.1249,1.1836,1.2144,0.0,0.0,0.0,0.0,0.0,0.0,0.0,0.0,0.0,0.0,0.0,0.0,0.0,0.0,0.0,0.0,0.0,0.0,0.0,0.0,0.0,0.0,0.0,0.0,0.0,0.0,0.0,0.0,0.0,0.0,0.0,0.0,0.0,0.0,0.0,0.0,0.0,0.0,0.0,0.0,0.0,0.0,0.0,0.0,0.0,0.0,0.0,0.0,0.0,0.0,0.0,0.0,0.0,0.0,0.0,0.0,0.0,0.0,0.0,0.0,0.0,0.0,0.0,0.0,0.0,0.0,0.0,0.0,0.0,0.0,0.0,0.0,0.0,0.0,0.0,0.0,0.0,0.0,0.0,0.0,0.0,0.0,0.0,0.0,0.0,0.0,0.0,0.0,0.0,0.0,0.0,0.0,0.0,0.0,0.0,0.0,0.0,0.0,0.0,0.0,0.0,0.0,0.0,0.0,0.0,0.0,0.0,0.0,0.0,1.22,0.0,1.1887,1.1288,1.1914,1.2261,0.0,0.0,0.0,0.0,0.0,0.0,0.0,0.0,0.0,0.0,0.0,0.0,0.0,0.0,0.0,0.0,0.0,0.0,0.0,0.0,0.0,0.0,0.0,0.0,0.0,0.0,0.0,0.0,0.0,0.0,0.0,0.0,0.0,0.0,0.0,0.0,0.0,0.0,0.0,0.0,0.0,0.0,0.0,0.0,0.0,0.0,0.0,0.0,0.0,0.0,0.0,0.0,0.0,0.0,0.0,0.0,0.0,0.0,0.0,0.0,0.0,0.0,0.0,0.0,0.0,0.0,0.0,0.0,0.0,0.0,0.0,0.0,0.0,0.0,0.0,0.0,0.0,0.0,0.0,0.0,0.0,0.0,0.0,0.0,0.0,0.0,0.0,0.0,0.0,0.0,0.0,0.0,0.0,0.0,0.0,0.0,0.0,0.0,0.0,0.0,0.0,0.0,0.0,0.0,0.0,0.0,0.0,0.0,1.2448,1.1926,1.2018,1.2102,1.2088,1.2473,1.2584,0.0,0.0,0.0,0.0,0.0,0.0,0.0,0.0,0.0,0.0,0.0,0.0,0.0,0.0,0.0,0.0,0.0,0.0,0.0,0.0,0.0,0.0,0.0,0.0,0.0,0.0,0.0,0.0,0.0,0.0,0.0,0.0,0.0,0.0,0.0,0.0,0.0,0.0,0.0,0.0,0.0,0.0,0.0,0.0,0.0,0.0,0.0,0.0,0.0,0.0,0.0,0.0,0.0,0.0,0.0,0.0,0.0,0.0,0.0,0.0,0.0,0.0,0.0,0.0,0.0,0.0,0.0,0.0,0.0,0.0,0.0,0.0,0.0,0.0,0.0,0.0,0.0,0.0,0.0,0.0,0.0,0.0,0.0,0.0,0.0,0.0,0.0,0.0,0.0,0.0,0.0,0.0,0.0,0.0,0.0,0.0,0.0,0.0,0.0,0.0,0.0,0.0,0.0,0.0,0.0,0.0,0.0,0.0,0.0,1.1886,1.2898,1.3059,1.2312,1.2851,1.2993,0.0,0.0,0.0,0.0,0.0,0.0,0.0,0.0,0.0,0.0,0.0,0.0,0.0,0.0,0.0,0.0,0.0,0.0,0.0,0.0,0.0,0.0,0.0,0.0,0.0,0.0,0.0,0.0,0.0,0.0,0.0,0.0,0.0,0.0,0.0,0.0,0.0,0.0,0.0,0.0,0.0,0.0,0.0,0.0,0.0,0.0,0.0,0.0,0.0,0.0,0.0,0.0,0.0,0.0,0.0,0.0,0.0,0.0,0.0,0.0,0.0,0.0,0.0,0.0,0.0,0.0,0.0,0.0,0.0,0.0,0.0,0.0,0.0,0.0,0.0,0.0,0.0,0.0,0.0,0.0,0.0,0.0,0.0,0.0,0.0,0.0,0.0,0.0,0.0,0.0,0.0,0.0,0.0,0.0,0.0,0.0,0.0,0.0,0.0,0.0,0.0,0.0,0.0,0.0,0.0,0.0,0.0,0.0,0.0,1.4069,1.4707,1.4758,1.4101,1.4468,1.4071,1.289,0.0,0.0,0.0,0.0,0.0,0.0,0.0,0.0,0.0,0.0,0.0,0.0,0.0,0.0,0.0,0.0,0.0,0.0,0.0,0.0,0.0,0.0,0.0,0.0,0.0,0.0,0.0,0.0,0.0,0.0,0.0,0.0,0.0,0.0,0.0,0.0,0.0,0.0,0.0,0.0,0.0,0.0,0.0,0.0,0.0,0.0,0.0,0.0,0.0,0.0,0.0,0.0,0.0,0.0,0.0,0.0,0.0,0.0,0.0,0.0,0.0,0.0,0.0,0.0,0.0,0.0,0.0,0.0,0.0,0.0,0.0,0.0,0.0,0.0,0.0,0.0,0.0,0.0,0.0,0.0,0.0,0.0,0.0,0.0,0.0,0.0,0.0,0.0,0.0,0.0,0.0,0.0,0.0,0.0,0.0,0.0,0.0,0.0,0.0,0.0,0.0,0.0,0.0,0.0,0.0,0.0,0.0,0.0,1.7998,1.7546,1.7363,1.7408,1.7081,1.5759,0.0,0.0,0.0,0.0,0.0,0.0,0.0,0.0,0.0,0.0,0.0,0.0,0.0,0.0,0.0,0.0,0.0,0.0,0.0,0.0,0.0,0.0,0.0,0.0,0.0,0.0,0.0,0.0,0.0,0.0,0.0,0.0,0.0,0.0,0.0,0.0,0.0,0.0,0.0,0.0,0.0,0.0,0.0,0.0,0.0,0.0,0.0,0.0,0.0,0.0,0.0,0.0,0.0,0.0,0.0,0.0,0.0,0.0,0.0,0.0,0.0,0.0,0.0,0.0,0.0,0.0,0.0,0.0,0.0,0.0,0.0,0.0,0.0,0.0,0.0,0.0,0.0,0.0,0.0,0.0,0.0,0.0,0.0,0.0,0.0,0.0,0.0,0.0,0.0,0.0,0.0,0.0,0.0,0.0,0.0,0.0,0.0,0.0,0.0,0.0,0.0,0.0,0.0,0.0,0.0,0.0,0.0,0.0,0.0,2.0572,2.3073,2.3345,2.1225,1.93,1.7753,0.0,0.0,0.0,0.0,0.0,0.0,0.0,0.0,0.0,0.0,0.0,0.0,0.0,0.0,0.0,0.0,0.0,0.0,0.0,0.0,0.0,0.0,0.0,0.0,0.0,0.0,0.0,0.0,0.0,0.0,0.0,0.0,0.0,0.0,0.0,0.0,0.0,0.0,0.0,0.0,0.0,0.0,0.0,0.0,0.0,0.0,0.0,0.0,0.0,0.0,0.0,0.0,0.0,0.0,0.0,0.0,0.0,0.0,0.0,0.0,0.0,0.0,0.0,0.0,0.0,0.0,0.0,0.0,0.0,0.0,0.0,0.0,0.0,0.0,0.0,0.0,0.0,0.0,0.0,0.0,0.0,0.0,0.0,0.0,0.0,0.0,0.0,0.0,0.0,0.0,0.0,0.0,0.0,0.0,0.0,0.0,0.0,0.0,0.0,0.0,0.0,0.0,0.0,0.0,0.0,0.0,0.0,0.0,2.0726,2.2857,2.7457,2.8953,2.7016,2.2971,1.9987,0.0,0.0,0.0,0.0,0.0,0.0,0.0,0.0,0.0,0.0,0.0,0.0,0.0,0.0,0.0,0.0,0.0,0.0,0.0,0.0,0.0,0.0,0.0,0.0,0.0,0.0,0.0,0.0,0.0,0.0,0.0,0.0,0.0,0.0,0.0,0.0,0.0,0.0,0.0,0.0,0.0,0.0,0.0,0.0,0.0,0.0,0.0,0.0,0.0,0.0,0.0,0.0,0.0,0.0,0.0,0.0,0.0,0.0,0.0,0.0,0.0,0.0,0.0,0.0,0.0,0.0,0.0,0.0,0.0,0.0,0.0,0.0,0.0,0.0,0.0,0.0,0.0,0.0,0.0,0.0,0.0,0.0,0.0,0.0,0.0,0.0,0.0,0.0,0.0,0.0,0.0,0.0,0.0,0.0,0.0,0.0,0.0,0.0,0.0,0.0,0.0,0.0,0.0,0.0,0.0,0.0,0.0,0.0,2.3599,2.521,3.0841,3.3617,3.306,2.7082,2.2353,0.0,0.0,0.0,0.0,0.0,0.0,0.0,0.0,0.0,0.0,0.0,0.0,0.0,0.0,0.0,0.0,0.0,0.0,0.0,0.0,0.0,0.0,0.0,0.0,0.0,0.0,0.0,0.0,0.0,0.0,0.0,0.0,0.0,0.0,0.0,0.0,0.0,0.0,0.0,0.0,0.0,0.0,0.0,0.0,0.0,0.0,0.0,0.0,0.0,0.0,0.0,0.0,0.0,0.0,0.0,0.0,0.0,0.0,0.0,0.0,0.0,0.0,0.0,0.0,0.0,0.0,0.0,0.0,0.0,0.0,0.0,0.0,0.0,0.0,0.0,0.0,0.0,0.0,0.0,0.0,0.0,0.0,0.0,0.0,0.0,0.0,0.0,0.0,0.0,0.0,0.0,0.0,0.0,0.0,0.0,0.0,0.0,0.0,0.0,0.0,0.0,0.0,0.0,0.0,0.0,0.0,0.0,0.0,2.5338,2.8976,3.2644,3.4578,3.4547,2.8263,2.4192,0.0,0.0,0.0,0.0,0.0,0.0,0.0,0.0,0.0,0.0,0.0,0.0,0.0,0.0,0.0,0.0,0.0,0.0,0.0,0.0,0.0,0.0,0.0,0.0,0.0,0.0,0.0,0.0,0.0,0.0,0.0,0.0,0.0,0.0,0.0,0.0,0.0,0.0,0.0,0.0,0.0,0.0,0.0,0.0,0.0,0.0,0.0,0.0,1.8189,0.0,0.0,0.0,0.0,0.0,0.0,0.0,0.0,0.0,0.0,0.0,0.0,0.0,0.0,0.0,0.0,0.0,0.0,0.0,0.0,0.0,0.0,0.0,0.0,0.0,0.0,0.0,0.0,0.0,0.0,0.0,0.0,0.0,0.0,0.0,0.0,0.0,0.0,0.0,0.0,0.0,0.0,0.0,0.0,0.0,0.0,0.0,0.0,0.0,0.0,0.0,0.0,0.0,0.0,0.0,0.0,0.0,0.0,0.0,2.6592,3.0854,3.3905,3.5436,3.5182,3.0348,2.6552,0.0,0.0,0.0,0.0,0.0,0.0,0.0,0.0,0.0,0.0,0.0,0.0,0.0,0.0,0.0,0.0,0.0,0.0,0.0,0.0,0.0,0.0,0.0,0.0,0.0,0.0,0.0,0.0,0.0,0.0,0.0,0.0,0.0,0.0,0.0,0.0,0.0,0.0,0.0,0.0,0.0,0.0,0.0,0.0,0.0,0.0,0.0,0.0,0.0,0.0,0.0,0.0,0.0,0.0,0.0,0.0,0.0,0.0,0.0,0.0,0.0,0.0,0.0,0.0,0.0,0.0,0.0,0.0,0.0,0.0,0.0,0.0,0.0,0.0,0.0,0.0,0.0,0.0,0.0,0.0,0.0,0.0,0.0,0.0,0.0,0.0,0.0,0.0,0.0,0.0,0.0,0.0,0.0,0.0,0.0,0.0,0.0,0.0,0.0,0.0,0.0,0.0,0.0,0.0,0.0,0.0,0.0,2.3889,2.7784,3.2388,3.5024,3.6156,3.5815,3.238,2.8714,2.4998,0.0,0.0,0.0,0.0,0.0,0.0,0.0,0.0,0.0,0.0,0.0,0.0,0.0,0.0,0.0,0.0,0.0,0.0,0.0,0.0,0.0,0.0,0.0,0.0,0.0,0.0,0.0,0.0,0.0,0.0,0.0,0.0,0.0,0.0,0.0,0.0,0.0,0.0,1.0683,1.1751,0.0,0.0,0.0,0.0,0.0,0.0,0.0,0.0,1.7633,0.0,0.0,0.0,0.0,0.0,0.0,0.0,0.0,0.0,0.0,0.0,0.0,0.0,0.0,0.0,0.0,0.0,0.0,0.0,0.0,0.0,0.0,0.0,0.0,0.0,0.0,0.0,0.0,0.0,0.0,0.0,0.0,0.0,0.0,0.0,0.0,0.0,0.0,0.0,0.0,0.0,0.0,0.0,0.0,0.0,0.0,0.0,0.0,0.0,0.0,0.0,0.0,0.0,0.0,0.0,0.0,2.4357,2.568,2.9382,3.5635,3.6494,3.6642,3.6065,3.2736,2.938,2.6125,0.0,0.0,0.0,0.0,0.0,0.0,0.0,0.0,0.0,0.0,0.0,0.0,0.0,0.0,0.0,0.0,0.0,0.0,0.0,0.0,0.0,0.0,0.0,0.0,0.0,0.0,0.0,0.0,0.0,0.0,0.0,0.0,0.0,0.0,0.0,0.0,0.0,0.0,0.0,1.2489,1.3019,0.0,0.0,0.0,0.0,0.0,0.0,0.0,0.0,1.8809,0.0,0.0,0.0,0.0,0.0,0.0,0.0,0.0,0.0,0.0,0.0,0.0,0.0,0.0,0.0,0.0,0.0,0.0,0.0,0.0,0.0,0.0,0.0,0.0,0.0,0.0,0.0,0.0,0.0,0.0,0.0,0.0,0.0,0.0,0.0,0.0,0.0,0.0,0.0,0.0,0.0,0.0,0.0,0.0,0.0,0.0,0.0,0.0,0.0,0.0,0.0,0.0,0.0,0.0,0.0,2.5982,2.8071,3.1698,3.6992,3.7077,3.6868,3.6551,3.3141,2.9885,0.0,0.0,0.0,0.0,0.0,0.0,0.0,0.0,0.0,0.0,0.0,0.0,0.0,0.0,0.0,0.0,0.0,0.0,0.0,0.0,0.0,0.0,0.0,0.0,0.0,0.0,0.0,0.0,0.0,0.0,0.0,0.0,0.0,0.0,0.0,0.0,0.0,0.0,0.0,0.0,1.3145,1.3984,1.6329,0.0,0.0,0.0,0.0,0.0,0.0,1.9004,1.9152,0.0,0.0,0.0,0.0,0.0,0.0,0.0,0.0,0.0,0.0,0.0,0.0,0.0,0.0,0.0,0.0,0.0,0.0,0.0,0.0,0.0,0.0,0.0,0.0,0.0,0.0,0.0,0.0,0.0,0.0,0.0,0.0,0.0,0.0,0.0,0.0,0.0,0.0,0.0,0.0,0.0,0.0,0.0,0.0,0.0,0.0,0.0,0.0,0.0,0.0,0.0,0.0,0.0,0.0,0.0,2.6995,3.0022,3.3583,3.7574,3.7456,3.7174,3.6925,3.3192,3.0048,0.0,0.0,0.0,0.0,0.0,0.0,0.0,0.0,0.0,0.0,0.0,0.0,0.0,0.0,0.0,0.0,0.0,0.0,0.0,0.0,0.0,0.0,0.0,0.0,0.0,0.0,0.0,0.0,0.0,0.0,0.0,0.0,0.0,0.0,0.0,0.0,0.0,0.0,0.0,0.0,0.0,1.5335,1.7398,1.6849,0.0,0.0,0.0,0.0,1.8843,1.9584,0.0,0.0,0.0,0.0,0.0,0.0,0.0,0.0,0.0,0.0,0.0,0.0,0.0,0.0,0.0,0.0,0.0,0.0,0.0,0.0,0.0,0.0,0.0,0.0,0.0,0.0,0.0,0.0,0.0,0.0,0.0,0.0,0.0,0.0,0.0,0.0,0.0,0.0,0.0,0.0,0.0,0.0,0.0,0.0,0.0,0.0,0.0,0.0,0.0,0.0,0.0,0.0,0.0,0.0,0.0,0.0,2.7196,3.0448,3.3954,3.7586,3.8022,3.7783,3.698,3.239,2.9353,0.0,0.0,0.0,0.0,0.0,0.0,0.0,0.0,0.0,0.0,0.0,0.0,0.0,0.0,0.0,0.0,0.0,0.0,0.0,0.0,0.0,0.0,0.0,0.0,0.0,0.0,0.0,0.0,0.0,0.0,0.0,0.0,0.0,0.0,0.0,0.0,0.0,0.0,0.0,0.0,0.0,1.6539,1.7641,1.8045,1.8333,0.0,0.0,0.0,2.0899,2.2591,0.0,0.0,0.0,0.0,0.0,0.0,0.0,0.0,0.0,0.0,0.0,0.0,0.0,0.0,0.0,0.0,0.0,0.0,0.0,0.0,0.0,0.0,0.0,0.0,0.0,0.0,0.0,0.0,0.0,0.0,0.0,0.0,0.0,0.0,0.0,0.0,0.0,0.0,0.0,0.0,0.0,0.0,0.0,0.0,0.0,0.0,0.0,0.0,0.0,0.0,0.0,0.0,0.0,0.0,0.0,2.5865,2.8443,3.3214,3.6651,3.8528,3.9091,3.8959,3.8089,3.3269,3.0226,0.0,0.0,0.0,0.0,0.0,0.0,0.0,0.0,0.0,0.0,0.0,0.0,0.0,0.0,0.0,0.0,0.0,0.0,0.0,0.0,0.0,0.0,0.0,0.0,0.0,0.0,0.0,0.0,0.0,0.0,0.0,0.0,0.0,0.0,0.0,0.0,0.0,0.0,0.0,0.0,0.0,0.0,1.8107,1.8861,0.0,0.0,0.0,2.0907,2.0565,0.0,0.0,0.0,0.0,0.0,0.0,0.0,0.0,0.0,0.0,0.0,0.0,0.0,0.0,0.0,0.0,0.0,0.0,0.0,0.0,0.0,0.0,0.0,0.0,0.0,0.0,0.0,0.0,0.0,0.0,0.0,0.0,0.0,0.0,0.0,0.0,0.0,0.0,0.0,0.0,0.0,0.0,0.0,0.0,0.0,0.0,0.0,0.0,0.0,0.0,0.0,0.0,0.0,0.0,0.0,0.0,0.0,2.9458,3.5394,3.8753,3.9302,4.0003,3.9912,3.8986,3.4517,0.0,0.0,0.0,0.0,0.0,0.0,0.0,0.0,0.0,0.0,0.0,0.0,0.0,0.0,0.0,0.0,0.0,0.0,0.0,0.0,0.0,0.0,0.0,0.0,0.0,0.0,0.0,1.5866,0.0,0.0,0.0,0.0,0.0,0.0,0.0,0.0,0.0,0.0,0.0,0.0,0.0,0.0,1.8554,1.894,2.004,2.1178,0.0,0.0,2.16,2.127,2.3666,2.4703,0.0,0.0,0.0,0.0,0.0,0.0,0.0,0.0,0.0,0.0,0.0,0.0,0.0,0.0,0.0,0.0,0.0,0.0,0.0,0.0,0.0,0.0,0.0,0.0,0.0,0.0,0.0,0.0,0.0,0.0,0.0,0.0,0.0,0.0,0.0,0.0,0.0,0.0,0.0,0.0,0.0,0.0,0.0,0.0,0.0,0.0,0.0,0.0,0.0,0.0,0.0,0.0,0.0,0.0,0.0,3.0022,3.5762,3.9066,3.9563,4.0342,4.0325,3.9344,3.5897,3.3018,0.0,0.0,0.0,0.0,0.0,0.0,0.0,0.0,0.0,0.0,0.0,0.0,0.0,0.0,0.0,0.0,0.0,0.0,0.0,0.0,0.0,0.0,0.0,0.0,0.0,0.0,0.0,0.0,0.0,0.0,0.0,0.0,0.0,0.0,0.0,0.0,0.0,0.0,0.0,0.0,0.0,2.0543,2.0396,2.2076,2.3783,0.0,0.0,2.3254,2.4621,2.6826,2.7253,2.382,0.0,0.0,0.0,0.0,0.0,0.0,0.0,0.0,0.0,0.0,0.0,0.0,0.0,0.0,0.0,0.0,0.0,0.0,0.0,0.0,0.0,0.0,0.0,0.0,0.0,0.0,0.0,0.0,0.0,0.0,0.0,0.0,0.0,0.0,0.0,0.0,0.0,0.0,0.0,0.0,0.0,0.0,0.0,0.0,0.0,0.0,0.0,0.0,0.0,0.0,0.0,0.0,0.0,2.9602,3.1242,3.6977,4.0243,4.0848,4.1739,4.1622,4.0356,3.7341,3.4618,0.0,0.0,0.0,0.0,0.0,0.0,0.0,0.0,0.0,0.0,0.0,0.0,0.0,0.0,0.0,0.0,0.0,0.0,0.0,0.0,0.0,0.0,0.0,0.0,0.0,0.0,0.0,0.0,1.8309,1.8105,1.7094,0.0,0.0,0.0,0.0,0.0,0.0,0.0,0.0,0.0,0.0,2.1964,2.3326,2.4515,0.0,0.0,2.5822,2.5189,2.4932,2.6473,2.6665,2.3638,2.2805,0.0,0.0,0.0,0.0,0.0,0.0,0.0,0.0,0.0,0.0,0.0,0.0,0.0,0.0,0.0,0.0,0.0,0.0,0.0,0.0,0.0,0.0,0.0,0.0,0.0,0.0,0.0,0.0,0.0,0.0,0.0,0.0,0.0,0.0,0.0,0.0,0.0,0.0,0.0,0.0,0.0,0.0,0.0,0.0,0.0,0.0,0.0,0.0,0.0,0.0,0.0,0.0,3.0196,3.2123,3.7754,4.0999,4.1717,4.2546,4.2352,4.101,3.8605,3.6171,0.0,0.0,0.0,0.0,0.0,0.0,0.0,0.0,0.0,0.0,0.0,0.0,0.0,0.0,0.0,0.0,0.0,0.0,0.0,0.0,0.0,0.0,0.0,0.0,0.0,0.0,0.0,0.0,1.9125,1.8887,1.7808,0.0,0.0,0.0,0.0,0.0,0.0,0.0,0.0,0.0,0.0,2.3696,2.4845,2.5745,2.634,2.6291,2.5791,2.5282,2.4914,2.575,2.5788,2.3837,0.0,0.0,0.0,0.0,0.0,0.0,0.0,0.0,0.0,0.0,0.0,0.0,0.0,0.0,0.0,0.0,0.0,0.0,0.0,0.0,0.0,0.0,0.0,0.0,0.0,0.0,0.0,0.0,0.0,0.0,0.0,0.0,0.0,0.0,0.0,0.0,0.0,0.0,0.0,0.0,0.0,0.0,0.0,0.0,0.0,0.0,0.0,0.0,0.0,0.0,0.0,0.0,0.0,0.0,3.245,3.7836,4.1073,4.1977,4.2453,4.2245,4.129,3.9586,3.76,3.5363,0.0,0.0,0.0,0.0,0.0,0.0,0.0,0.0,0.0,0.0,0.0,0.0,0.0,0.0,0.0,0.0,0.0,0.0,0.0,0.0,0.0,0.0,0.0,0.0,0.0,0.0,1.7157,1.7817,1.8453,0.0,0.0,0.0,0.0,0.0,0.0,0.0,0.0,0.0,0.0,2.3399,2.5798,2.429,2.5384,2.5966,2.4779,2.337,2.3045,2.4955,2.5081,2.4901,0.0,0.0,0.0,0.0,0.0,0.0,0.0,0.0,0.0,0.0,0.0,0.0,0.0,0.0,0.0,0.0,0.0,0.0,0.0,0.0,0.0,0.0,0.0,0.0,0.0,0.0,0.0,0.0,0.0,0.0,0.0,0.0,0.0,0.0,0.0,0.0,0.0,0.0,0.0,0.0,2.7554,2.7712,0.0,0.0,0.0,0.0,0.0,0.0,0.0,0.0,0.0,0.0,0.0,0.0,3.2361,3.4256,3.883,4.1733,4.2702,4.2723,4.2261,4.1332,4.0174,3.8049,3.4823,0.0,0.0,0.0,0.0,0.0,0.0,0.0,0.0,0.0,0.0,0.0,0.0,0.0,0.0,0.0,0.0,0.0,0.0,0.0,0.0,0.0,0.0,0.0,0.0,0.0,1.965,0.0,0.0,0.0,0.0,0.0,0.0,0.0,0.0,0.0,0.0,0.0,1.8731,2.0966,2.2631,2.4,2.4978,2.5465,2.6159,0.0,0.0,0.0,0.0,0.0,0.0,0.0,0.0,0.0,0.0,0.0,0.0,0.0,0.0,2.6617,2.4884,2.5087,2.5366,2.4832,0.0,0.0,0.0,0.0,0.0,0.0,0.0,0.0,0.0,0.0,0.0,0.0,0.0,0.0,0.0,0.0,2.69,0.0,0.0,0.0,0.0,0.0,0.0,0.0,0.0,2.8086,2.9162,3.0106,3.0255,3.0142,0.0,2.8818,2.7336,0.0,0.0,0.0,0.0,0.0,0.0,0.0,0.0,3.3123,3.5086,3.9353,4.2083,4.3044,4.2952,4.2485,4.1659,4.0503,3.8388,3.5243,3.2506,3.054,0.0,0.0,0.0,0.0,0.0,0.0,0.0,0.0,0.0,0.0,0.0,0.0,0.0,0.0,0.0,0.0,0.0,0.0,0.0,0.0,0.0,0.0,0.0,2.0804,0.0,0.0,0.0,0.0,0.0,0.0,0.0,0.0,0.0,1.8728,1.974,2.1445,2.3618,2.4505,2.5032,2.5216,0.0,0.0,0.0,0.0,0.0,0.0,0.0,2.5101,2.4416,2.4588,2.5191,2.623,2.7268,2.8037,2.8227,0.0,0.0,2.6258,2.6502,2.6828,2.6111,2.6907,2.7651,2.7437,2.7992,2.8312,0.0,0.0,0.0,0.0,0.0,0.0,0.0,0.0,2.8594,2.8197,0.0,0.0,0.0,0.0,0.0,0.0,0.0,0.0,0.0,0.0,3.1025,3.2175,3.2469,3.211,3.2097,0.0,3.1185,3.0505,3.0268,2.7108,0.0,0.0,0.0,0.0,0.0,0.0,3.3354,3.5238,3.9444,4.2118,4.3105,4.3191,4.2894,4.224,4.0544,3.8633,3.6567,3.486,3.3252,3.1588,2.9552,0.0,0.0,0.0,0.0,0.0,0.0,0.0,0.0,0.0,0.0,0.0,0.0,0.0,0.0,0.0,0.0,0.0,0.0,0.0,0.0,2.1862,0.0,0.0,0.0,0.0,0.0,0.0,0.0,0.0,0.0,0.0,2.1774,2.3405,2.5297,2.6719,0.0,0.0,0.0,0.0,2.6732,2.2535,2.2205,2.2807,2.3409,2.4433,2.567,2.7071,0.0,0.0,3.0085,2.9441,2.9033,2.9517,3.0001,2.9775,2.8209,2.8213,2.8195,2.7624,2.8233,2.8786,2.8844,2.9335,2.9594,3.5425,0.0,0.0,0.0,0.0,3.1715,3.2008,3.2497,3.189,3.1388,3.0978,3.0441,0.0,0.0,0.0,0.0,0.0,0.0,3.0498,3.1735,3.311,3.4216,3.5032,3.5294,3.5183,3.4733,3.3961,3.3297,3.265,3.1294,2.9793,2.8178,0.0,0.0,0.0,0.0,3.5768,3.7749,4.0563,4.2608,4.3777,4.3416,4.2721,4.1756,3.976,3.8086,3.6833,3.5544,3.4163,3.2695,3.1506,0.0,0.0,0.0,0.0,0.0,0.0,0.0,0.0,0.0,0.0,0.0,0.0,0.0,0.0,0.0,0.0,0.0,0.0,0.0,2.2533,2.3119,2.2836,0.0,0.0,0.0,0.0,0.0,0.0,0.0,0.0,0.0,2.619,2.4792,2.4012,0.0,0.0,2.4146,2.3041,2.4698,2.6123,2.6379,0.0,0.0,0.0,2.8294,2.7869,2.8112,2.9328,3.0304,3.0466,3.1033,3.1525,3.1688,3.1809,3.1615,3.0804,3.0363,2.998,2.9381,3.0068,3.0887,3.0936,3.1492,3.1942,3.7969,3.6195,3.4967,3.4376,3.4229,3.4049,3.4347,3.4928,3.4387,3.3933,3.3495,3.2761,3.1519,2.9965,2.9842,0.0,0.0,0.0,3.2769,3.4147,3.5032,3.5921,3.6767,3.71,3.6999,3.6522,3.6101,3.5608,3.5112,3.4429,3.3496,0.0,0.0,0.0,3.2162,3.5136,3.7368,3.8846,4.1307,4.3049,4.3924,4.3479,4.2686,4.1494,3.9987,3.8657,3.7488,3.6569,3.5358,3.3837,3.2668,3.1236,0.0,0.0,0.0,0.0,0.0,0.0,0.0,0.0,0.0,0.0,0.0,2.3246,0.0,0.0,0.0,0.0,2.4506,2.4261,2.3942,2.4264,0.0,0.0,0.0,0.0,0.0,0.0,0.0,2.3781,2.5528,2.7179,2.8239,2.6808,2.5977,2.6926,2.6461,2.5743,2.4936,0.0,2.8078,2.8614,2.8886,2.9446,3.0549,3.0327,3.0129,3.0536,3.1177,3.1773,3.2028,3.265,3.3085,3.3209,3.3233,3.3108,3.2745,3.2455,3.1924,3.0969,3.1701,3.2549,3.2586,3.3142,3.3583,4.0328,3.9529,3.7354,3.649,3.6557,3.6127,3.6148,3.6428,3.6348,3.5957,3.5333,3.4738,3.3608,3.2118,3.1485,0.0,0.0,3.3914,3.5006,3.626,3.6793,3.7354,3.7916,3.8,3.7985,3.7956,3.7719,3.7599,3.7474,3.6691,3.6452,3.6685,3.4744,3.381,3.4118,3.6767,3.8457,3.9069,4.1784,4.3399,4.3802,4.3494,4.2728,4.1568,4.0862,3.983,3.8402,3.7716,3.664,3.5001,3.3395,3.2098,3.1131,0.0,0.0,0.0,0.0,0.0,0.0,0.0,0.0,0.0,0.0,0.0,0.0,0.0,0.0,0.0,2.5814,0.0,2.5788,2.5387,0.0,0.0,0.0,2.4704,2.5445,2.6044,2.6651,2.7177,0.0,0.0,0.0,0.0,3.0057,3.1751,3.1711,3.0885,2.9056,3.0568,3.1457,2.9722,2.996,3.0325,3.0699,3.1311,3.2234,3.3298,3.362,3.3551,3.3923,3.3929,3.3946,3.4091,3.4202,3.4163,3.4202,3.4062,3.3823,3.2533,3.3081,3.3811,3.3855,3.4221,3.4486,4.2084,4.166,4.1095,4.0194,3.9119,3.9012,3.9148,3.9367,3.8477,3.7876,3.7478,3.6439,3.5628,3.5093,3.5379,3.554,3.5624,3.6545,3.7125,3.7436,3.7994,3.8462,3.8809,3.9577,3.967,3.9203,3.9359,3.9195,3.8689,3.8279,3.8341,3.8804,3.8529,3.799,3.7267,3.8734,4.0039,4.1097,4.2485,4.3729,4.4775,4.3879,4.3115,4.2541,4.0792,3.9454,3.861,3.7823,3.6992,3.6122,3.5086,3.3834,3.2355,3.0784,0.0,0.0,0.0,0.0,0.0,0.0,0.0,0.0,0.0,2.51,2.5393,0.0,2.5547,0.0,2.7058,2.7546,2.7356,2.7249,0.0,0.0,2.6153,2.6281,2.6522,2.7647,2.8223,2.7776,2.9036,3.0219,3.0885,3.1237,3.2103,3.3898,3.1961,3.0152,2.9727,3.1197,3.2261,3.1908,3.2793,3.3687,3.3417,3.3525,3.3675,3.4048,3.4054,3.4054,3.4189,3.4151,3.4141,3.4187,3.4214,3.4214,3.4223,3.4356,3.4397,3.4063,3.4077,3.4236,3.461,3.4818,3.5066,4.3197,4.3007,4.2889,4.2318,4.1484,4.1205,4.1089,4.1061,4.0407,3.9892,3.9443,3.8221,3.7397,3.6921,3.7246,3.7586,3.7962,3.8458,3.875,3.8855,3.9604,3.9728,3.9374,4.02,4.0251,3.9616,3.9795,3.9737,3.9503,3.9356,3.9583,4.0159,4.0438,4.0573,4.0548,4.1014,4.165,4.2451,4.368,4.4597,4.5146,4.4037,4.3167,4.2648,4.1084,3.9802,3.8917,3.8455,3.7636,3.6367,3.5219,3.4081,3.2868,3.1303,2.9852,0.0,0.0,0.0,0.0,0.0,0.0,0.0,0.0,0.0,0.0,0.0,2.6876,0.0,0.0,0.0,2.8337,2.8301,2.8261,2.8201,2.8394,2.8687,2.9028,3.0122,3.0731,3.0396,3.1446,3.2401,3.2925,3.3127,3.3673,3.501,3.354,3.2343,3.2409,3.3214,3.3797,3.3838,3.448,3.4917,3.4649,3.4479,3.4395,3.4356,3.4286,3.4272,3.4504,3.4455,3.4419,3.4528,3.4549,3.4598,3.4706,3.4839,3.4987,3.5096,3.5008,3.4984,3.5144,3.5359,3.57,4.3986,4.3957,4.3738,4.3651,4.3607,4.2962,4.2465,4.2099,4.2041,4.1689,4.106,4.0011,3.9131,3.8444,3.85,3.9071,3.9996,4.0082,4.0206,4.0436,4.1285,4.1083,4.0058,4.0622,4.0521,3.9855,3.9825,3.9913,4.0104,4.0117,4.0426,4.1002,4.1263,4.2067,4.3288,4.319,4.3284,4.3615,4.4983,4.5569,4.5333,4.4145,4.322,4.2638,4.1571,4.0458,3.9358,3.9146,3.8185,3.63,3.4874,3.3834,3.3217,3.146,3.021,0.0,2.8951,0.0,0.0,0.0,0.0,0.0,0.0,0.0,0.0,2.8188,2.8613,2.8576,2.9258,2.9595,2.9419,2.942,2.9749,3.056,3.0903,3.1312,3.1954,3.2666,3.3211,3.3463,3.3948,3.4359,3.4545,3.4646,3.4839,3.5349,3.5333,3.5163,3.5408,3.5306,3.5233,3.5371,3.5156,3.4929,3.4733,3.4661,3.4649,3.4636,3.454,3.4513,3.4977,3.4902,3.4856,3.5153,3.5245,3.536,3.563,3.5654,3.5664,3.5849,3.5823,3.5736,3.5615,3.5845,3.6183,4.5011,4.5026,4.4968,4.4939,4.4909,4.4514,4.3885,4.3094,4.2831,4.2333,4.1719,4.1489,4.1318,4.1191,4.173,4.1791,4.1588,4.207,4.2184,4.2001,4.2429,4.2508,4.2281,4.2403,4.1975,4.1093,4.1048,4.0926,4.072,4.0733,4.1027,4.1617,4.1895,4.2563,0.0,0.0,0.0,0.0,4.554,4.5821,4.6036,4.4809,4.4079,4.3896,4.2024,0.0,4.0304,3.9139,3.7923,3.6807,3.5804,0.0,0.0,0.0,0.0,0.0,0.0,0.0,0.0,0.0,0.0,0.0,3.1176,3.0367,2.8358,3.0775,3.2417,3.2244,3.2521,3.2738,3.2701,3.2688,3.2643,3.2582,3.2801,3.3018,3.3111,3.3426,3.3752,3.4032,3.432,3.4636,3.4878,3.4914,3.5132,3.5624,3.5721,3.5805,3.6014,3.5673,3.5349,3.5132,3.5071,3.5014,3.4941,3.4941,3.4951,3.4938,3.5096,3.5204,3.5331,3.5512,3.5778,3.6242,3.6373,3.6552,3.7116,3.6833,3.6439,3.6506,3.6312,3.611,3.6062,3.6107,3.6271,4.5553,0.0,4.5363,4.5289,0.0,0.0,4.4778,4.428,4.3621,4.2977,4.2406,4.2567,4.2538,4.2407,4.276,4.2991,4.3135,4.3314,4.3385,4.3367,4.3858,4.3731,4.3135,4.3105,4.2669,4.189,4.1538,4.135,4.1352,4.1483,4.179,4.2265,4.2894,4.3673,4.4648,4.6002,4.6519,4.6216,4.636,4.6405,4.6238,4.47,4.385,4.382,0.0,0.0,0.0,0.0,0.0,0.0,0.0,0.0,0.0,0.0,0.0,3.2909,3.2383,3.203,3.197,3.2341,3.275,3.3105,3.3641,3.3155,3.1205,3.302,3.4241,3.4231,3.4229,3.4362,3.4774,3.4725,3.4558,3.4363,3.4455,3.4346,3.3938,3.4153,3.4443,3.4598,3.4951,3.5253,3.5388,3.5398,3.557,3.5929,3.6002,3.6053,3.6147,3.5977,3.5685,3.5446,3.5398,3.5383,3.5412,3.5398,3.54,3.5422,3.5518,3.5725,3.5994,3.6148,3.6444,3.7042,3.7191,3.7366,3.7712,3.7362,3.6961,3.7009,3.6717,3.6419,3.6388,3.6388,3.6424,4.6051,4.6006,4.5758,4.564,4.5626,4.5552,4.5479,4.5334,0.0,0.0,0.0,4.3504,4.3504,4.3255,4.3307,4.3743,4.4469,4.4321,4.435,4.4595,4.519,4.4884,4.3843,4.3505,4.3092,4.254,4.1692,4.1492,4.1873,4.2222,4.2582,4.3027,4.3951,4.4916,4.5905,4.7409,4.7733,4.6853,4.7057,4.6914,4.6284,4.4623,4.3727,4.3727,4.2452,4.1224,4.0147,3.9882,3.8979,3.7308,3.6287,3.5565,3.5123,3.475,3.4382,3.4072,3.4032,3.3993,3.3871,3.4321,3.4718,3.4987,3.5667,3.5626,3.4519,3.4994,3.5459,3.5723,3.5541,3.5695,3.6323,3.6085,3.5845,3.5705,3.5624,3.5239,3.4507,3.4769,3.5071,3.5183,3.5518,3.582,3.5845,3.5793,3.5974,3.6319,3.6419,3.6447,3.6532,3.645,3.6143,3.5826,3.5844,3.5937,3.5826,3.5922,3.5946,3.5985,3.6121,3.6395,3.6802,3.699,3.7285,3.7948,3.8016,3.8146,3.8265,3.7848,3.7405,3.7494,3.7167,3.6838,3.6866,3.701,3.7111,4.7,4.7,4.6956,4.6942,4.6927,4.6619,4.621,4.567,4.4982,4.4616,4.4543,4.4587,4.4557,4.4558,4.4832,4.5022,4.5172,4.5417,4.5562,0.0,4.5976,4.5915,4.5405,4.4278,4.3533,4.3097,4.1924,4.1599,4.2158,4.2821,4.3437,4.402,4.4932,4.5903,4.6883,4.7769,4.7852,4.7145,4.719,4.6898,4.6316,4.5472,4.5029,4.497,4.3769,4.278,4.2022,4.0733,3.9575,3.8561,3.715,3.6326,3.6246,3.5725,3.5618,3.6031,3.6084,3.6163,3.636,3.6719,3.7052,3.7303,3.7703,3.7438,3.6272,3.67,3.716,3.7431,3.7593,3.7731,3.7573,3.7069,3.6544,3.602,3.5695,3.5354,3.4942,3.5168,3.5431,3.5651,3.5733,3.5932,3.6132,3.6026,3.6328,3.7047,3.7181,3.7249,3.776,3.7284,3.647,3.6018,3.6261,3.6321,3.6082,3.6261,3.6538,3.6578,3.7225,3.7679,3.786,3.8039,3.8409,3.911,3.9134,3.9158,3.9223,3.8777,3.8107,3.7666,3.7569,3.7761,3.7742,3.8287,3.8648,4.7205,4.7205,4.7205,4.7205,4.719,4.7028,4.6825,4.6548,4.6239,4.5698,4.5084,4.5055,4.507,4.5099,4.5406,4.5568,4.5583,4.5905,4.6081,4.6081,4.6243,4.6213,4.5988,4.5025,4.4587,4.4506,4.3239,4.2841,4.3279,4.3375,4.375,4.4475,4.5755,4.6842,4.7671,4.8042,4.797,4.7483,4.7277,4.6898,4.63,4.5287,4.4754,4.4739,4.3512,4.2642,4.2189,4.1166,4.0186,3.9334,3.8298,3.7584,3.7222,3.6954,3.69,3.7181,3.7221,3.7247,3.738,3.7835,3.8303,3.873,3.8905,3.8776,3.8221,3.8256,3.8386,3.8472,3.853,3.8478,3.8302,3.8044,3.755,3.6723,3.6654,3.6338,3.5642,3.5675,3.5881,3.6044,3.645,3.6781,3.6891,3.7094,3.7385,3.798,3.8066,3.837,3.8903,3.8702,3.8007,3.7014,3.6962,3.702,3.678,3.6917,3.7265,3.7598,3.8017,3.8426,3.8742,3.899,3.9316,3.9846,3.9785,3.9513,3.9468,3.8948,3.8292,3.7752,3.812,3.836,3.8268,3.8851,3.9263,4.7424,4.744,4.7424,4.7424,4.7424,4.7351,4.7322,4.7307,4.7218,4.6649,4.5801,4.5713,4.5728,4.5757,4.6022,4.6124,4.6154,4.6373,4.6461,4.6388,4.6388,4.6388,4.6309,4.5637,4.5495,4.564,4.4446,4.4052,4.4421,4.4152,4.448,4.5458,4.6724,4.7637,4.8188,4.8188,4.8027,4.7718,4.7364,4.6942,4.6387,4.5248,4.4626,4.4449,4.3509,4.2769,4.2402,4.1788,4.1044,4.0261,3.9449,3.8721,3.8172,3.792,3.7848,3.7982,3.8009,3.8062,3.8222,3.8622,3.9104,3.9559,3.9614,3.9626,3.9666,3.9463,3.9275,3.9195,3.9037,3.8917,3.8874,3.8743,3.8369,3.7634,3.7455,3.7042,3.6284,3.6286,3.6468,3.6626,3.7338,3.7857,3.8012,3.8375,3.8725,3.8916,3.9257,3.957,3.9748,3.9982,3.9472,3.8457,3.7956,3.7888,3.7803,3.7901,3.8178,3.8674,3.889,3.9211,3.9592,3.9726,3.977,4.0119,3.9846,3.9346,3.9103,3.8796,3.817,3.7556,3.8105,3.8825,3.8642,3.9037,3.9399,4.8102,4.8117,4.8087,4.8117,4.8058,4.7777,4.7644,4.7631,4.7351,4.7145,4.7,4.7013,4.7,4.7028,4.7029,4.7029,4.7029,4.7102,4.6956,4.6677,4.6662,4.6662,4.6615,4.5968,4.5825,4.5987,4.4799,4.4628,4.5374,4.5367,4.6202,4.7694,4.8044,4.8092,4.8188,4.8188,4.8027,4.7702,4.7364,4.7012,4.6648,4.6003,4.5505,4.5227,4.4801,4.429,4.3617,4.3057,4.2417,4.1758,4.0421,3.9469,3.9037,3.8282,3.8076,3.8568,3.8623,3.885,3.9359,3.9478,3.9546,3.9601,3.9641,3.9733,3.993,3.993,3.981,3.9626,3.9533,3.9478,3.949,3.9048,3.8707,3.8464,3.7607,3.683,3.6987,3.7001,3.7214,3.7782,3.8418,3.8958,3.9139,3.9301,3.9591,4.0066,4.0492,4.0741,4.0653,4.064,4.0417,3.9572,3.9298,3.9024,3.8643,3.8933,3.9177,3.9392,3.9891,4.0164,4.0271,4.0256,4.0286,3.977,3.9453,3.8966,3.8387,3.8017,3.8094,3.7412,3.7976,3.9091,3.9423,3.9417,3.9065,4.8924,4.9023,4.844,4.8188,4.8175,4.8042,4.7998,4.7983,4.7866,4.7791,4.7808,4.7793,4.7572,4.7219,4.7205,4.7205,4.7205,4.7205,4.713,4.6999,4.6983,4.6999,4.6967,4.6729,4.6761,4.6939,4.5698,4.5335,4.5797,4.5885,4.6463,4.7492,4.7978,4.8188,4.8188,4.8188,4.8146,4.7983,4.7468,4.713,4.6926,4.6211,4.5729,4.5553,4.5084,4.4704,4.4367,4.3777,4.3162,4.2549,4.1736,4.0898,4.0074,3.966,3.9365,3.9269,3.9239,3.9411,3.9797,3.9838,3.9918,4.0109,4.0136,4.0174,4.0281,4.0294,4.0256,4.0149,3.996,3.9772,3.9623,3.9508,3.933,3.8984,3.8545,3.8231,3.792,3.8112,3.8344,3.862,3.9326,3.9857,4.0022,4.0297,4.0608,4.0918,4.1195,4.1236,4.1132,4.1014,4.0761,4.043,4.0208,3.98,3.9283,3.927,3.9635,4.0013,4.0301,4.0496,4.0466,4.0104,3.9772,3.9529,3.8981,3.857,3.8292,3.8185,3.8198,3.7603,3.7742,3.878,3.9141,3.9204,3.8903,4.9553,4.953,4.863,4.8188,4.8188,4.8188,4.8188,4.8188,4.8188,4.8188,4.8188,4.8188,4.7939,4.7513,4.7484,4.7484,4.7468,4.7468,4.7408,4.7351,4.7351,4.7335,4.7321,4.7335,4.7512,4.7598,4.6592,4.612,4.6381,4.6591,4.6934,4.7425,4.7946,4.8188,4.8188,4.8188,4.8188,4.8146,4.7614,4.7291,4.7117,4.643,4.5978,4.5773,4.5231,4.4894,4.4792,4.4265,4.3677,4.3174,4.2752,4.2034,4.0946,4.0696,4.0323,3.9809,3.98,3.9933,4.0117,4.0132,4.0241,4.0456,4.0496,4.0552,4.059,4.0617,4.0642,4.0695,4.0508,4.0264,4.004,4.0199,4.0161,3.9765,3.9766,3.9519,3.9113,3.9262,3.939,3.9557,4.0263,4.0812,4.0924,4.1245,4.151,4.1448,4.1423,4.1332,4.1212,4.1014,4.0867,4.0802,4.0601,4.0312,3.9863,3.983,4.0058,4.0256,4.0496,4.0496,4.0496,4.0028,3.9605,3.9544,3.8539,3.8124,3.8353,3.846,3.861,3.8144,3.8073,3.8295,3.8472,3.8739,3.8695,4.9973,4.9576,4.863,4.8188,4.8188,4.8188,4.8188,4.8188,4.8188,4.8188,4.8188,4.8188,4.8175,4.8117,4.8086,4.813,4.8131,4.8102,4.7939,4.7688,4.7673,4.7689,4.7689,4.7689,4.7866,4.8035,4.7302,4.6926,4.7034,4.7684,4.8109,4.8139,4.8203,4.8204,4.8188,4.8188,4.8188,4.8144,4.7821,4.7512,4.7189,4.6838,4.6356,4.5861,4.5466,4.5114,4.482,4.4469,4.4088,4.3781,4.3219,4.2468,4.1535,4.0901,4.0401,4.0075,4.0298,4.0488,4.0488,4.0534,4.0561,4.0555,4.0612,4.0632,4.0869,4.0895,4.0989,4.1225,4.1185,4.1065,4.088,4.0974,4.1116,4.1035,4.064,4.0358,4.0294,4.0278,4.0448,4.0693,4.1223,4.1671,4.2003,4.2131,4.1962,4.1777,4.1724,4.1537,4.1027,4.088,4.0775,4.0601,4.0523,4.0481,4.0422,4.0301,4.036,4.0481,4.0496,4.0496,4.0496,4.0405,4.0028,3.9694,3.9192,3.8857,3.8719,3.8796,3.9031,3.869,3.7927,3.7898,3.807,3.8138,3.8216,5.0808,4.9609,4.863,4.8188,4.8188,4.8188,4.8188,4.8188,4.8188,4.8188,4.8188,4.8188,4.8188,4.8188,4.8188,4.8188,4.8188,4.8188,4.8131,4.8027,4.8013,4.8013,4.7996,4.8027,4.8071,4.8061,4.7441,4.7099,4.716,4.7594,4.7954,4.8214,4.844,4.8409,4.8234,4.8188,4.8188,4.8175,4.7865,4.7541,4.7204,4.6867,4.6533,4.6125,4.5598,4.5231,4.5128,4.4586,4.425,4.4133,4.3924,4.327,4.214,4.1093,4.0472,4.0383,4.0793,4.1089,4.1121,4.1483,4.1625,4.1407,4.1358,4.1222,4.12,4.1264,4.1351,4.135,4.1506,4.155,4.1483,4.1388,4.129,4.1259,4.1104,4.0975,4.102,4.1154,4.1342,4.1464,4.1798,4.2095,4.2178,4.2202,4.2015,4.1588,4.1494,4.1243,4.0817,4.0643,4.0617,4.0536,4.0496,4.0496,4.0496,4.0496,4.0496,4.0496,4.0496,4.0496,4.0496,4.0149,3.9741,3.9709,3.945,3.9365,3.916,3.9149,3.9362,3.9132,3.8352,3.775,3.7793,3.8047,3.8168,5.1316,4.9957,4.8819,4.8367,4.8336,4.8234,4.8263,4.8353,4.8367,4.8351,4.8366,4.8453,4.8409,4.8248,4.8307,4.8292,4.8204,4.8188,4.8188,4.8188,4.8188,4.8188,4.8188,4.8188,4.8188,4.8154,4.7834,4.766,4.7758,4.796,4.8226,4.8509,4.8715,4.8673,4.8409,4.8366,4.8338,4.8175,4.7969,4.766,4.7249,4.7,4.6678,4.6286,4.5744,4.5422,4.5289,4.4762,4.4411,4.4323,4.4309,4.3829,4.2749,4.1724,4.1119,4.118,4.1483,4.1725,4.1725,4.1951,4.2015,4.1893,4.1553,4.1336,4.1416,4.1559,4.1568,4.1644,4.1775,4.1924,4.1884,4.1735,4.1586,4.157,4.1586,4.1586,4.1599,4.1773,4.1879,4.1904,4.2053,4.2189,4.2189,4.2109,4.1826,4.1372,4.1223,4.0974,4.0601,4.0496,4.0496,4.0496,4.0496,4.0496,4.0496,4.0496,4.0496,4.0496,4.0496,4.0496,4.0421,3.9998,3.9772,3.9696,3.9672,3.9659,3.9625,3.9596,3.9484,3.9355,3.8595,3.7801,3.7926,3.8071,3.8168,5.1425,5.0672,4.9265,4.8804,4.8841,4.8445,4.8395,4.8675,4.8704,4.8688,4.8701,4.8948,4.8743,4.8409,4.8571,4.8527,4.832,4.8291,4.8263,4.8204,4.8188,4.8188,4.8188,4.8188,4.8219,4.8263,4.8525,4.8768,4.8919,4.8961,4.9042,4.9061,4.9077,4.8964,4.8689,4.8646,4.8514,4.8248,4.8144,4.7852,4.7277,4.7174,4.6883,4.6358,4.5978,4.5656,4.5333,4.4997,4.4675,4.4411,4.4367,4.4024,4.3377,4.2628,4.2314,4.2253,4.2373,4.2417,4.2371,4.1991,4.1959,4.196,4.1227,4.1218,4.167,4.1715,4.1777,4.2026,4.2135,4.2175,4.2162,4.2095,4.2082,4.2173,4.2095,4.208,4.2135,4.2175,4.2202,4.2175,4.2202,4.2202,4.2149,4.2044,4.1777,4.1454,4.1201,4.096,4.0695,4.0628,4.055,4.0523,4.0617,4.0683,4.059,4.0496,4.0496,4.0496,4.0496,4.0496,4.0496,4.0225,4.021,4.0163,4.0253,4.0226,4.0223,4.0123,3.9653,3.9345,3.8528,3.7978,3.8047,3.8156,3.8168,5.2636,5.2608,5.0351,4.9838,5.0252,4.9099,4.8717,4.8962,4.896,4.8977,4.8975,4.9079,4.8973,4.8889,4.8933,4.8918,4.883,4.8816,4.8613,4.8261,4.8204,4.8204,4.8188,4.8188,4.8338,4.8556,4.8847,4.9004,4.9136,4.9326,4.9355,4.9194,4.9341,4.9184,4.8719,4.8689,4.8543,4.8234,4.8188,4.7985,4.7556,4.7322,4.6984,4.6621,4.63,4.5978,4.5656,4.5319,4.5099,4.4982,4.4982,4.4606,4.3738,4.2862,4.2418,4.2462,4.3037,4.3347,4.3389,4.3362,4.3205,4.3115,4.2659,4.229,4.2112,4.2024,4.2048,4.2189,4.2202,4.2202,4.2191,4.2031,4.2015,4.2175,4.2202,4.2189,4.2202,4.2202,4.2202,4.2202,4.2202,4.2202,4.2189,4.2084,4.1924,4.1684,4.1523,4.135,4.112,4.0985,4.096,4.0844,4.0909,4.0855,4.0668,4.0603,4.063,4.055,4.0496,4.0496,4.0496,4.0496,4.0496,4.055,4.0657,4.0681,4.0679,4.0416,3.9864,3.9415,3.8794,3.8459,3.8276,3.822,3.822,5.3685,5.3805,5.1756,5.1074,5.1374,5.0133,4.9847,5.0115,5.0378,5.0345,5.0226,5.0513,5.0358,5.0042,5.0052,4.9871,4.9552,4.9488,4.9149,4.8587,4.8409,4.838,4.8409,4.8496,4.8715,4.9008,4.9211,4.9355,4.9472,4.9531,4.9487,4.937,4.9501,4.9284,4.8777,4.879,4.8642,4.8278,4.8174,4.8027,4.7731,4.7497,4.716,4.675,4.6532,4.63,4.5993,4.5773,4.5569,4.5363,4.5289,4.4973,4.4344,4.3823,4.3481,4.3555,4.3743,4.3963,4.3976,4.3599,4.3545,4.3361,4.2961,4.2552,4.2246,4.2202,4.2202,4.2202,4.2202,4.2202,4.2175,4.2071,4.2044,4.2175,4.2111,4.2095,4.2162,4.2202,4.2202,4.2202,4.2202,4.2202,4.2202,4.2084,4.1989,4.1817,4.1684,4.159,4.1359,4.1276,4.1172,4.112,4.1132,4.1,4.0735,4.0708,4.0748,4.0643,4.0496,4.0496,4.0496,4.0496,4.0496,4.0577,4.067,4.0527,4.048,4.0183,3.9723,3.9334,3.8926,3.8544,3.822,3.822,3.822,5.4483,5.442,5.3375,5.2605,5.2108,5.1569,5.1367,5.1723,5.2204,5.2038,5.1849,5.2115,5.2112,5.1432,5.1283,5.0904,5.0317,5.0232,4.979,4.9214,4.8907,4.8777,4.8746,4.8962,4.924,4.9489,4.9589,4.9765,4.9957,4.9721,4.9604,4.9575,4.956,4.9313,4.8891,4.8975,4.883,4.8408,4.8232,4.8042,4.7805,4.7688,4.7424,4.6822,4.6705,4.6547,4.6344,4.6242,4.5964,4.5466,4.5407,4.5332,4.5288,4.5304,4.5094,4.4911,4.457,4.4307,4.4015,4.3268,4.2729,4.2896,4.2327,4.1787,4.2133,4.2202,4.2202,4.2202,4.2202,4.2202,4.2202,4.2122,4.2135,4.2135,4.2018,4.2002,4.2162,4.2202,4.2202,4.2202,4.2202,4.2202,4.2202,4.2018,4.1911,4.1817,4.1641,4.1548,4.1492,4.1506,4.1383,4.137,4.1439,4.1185,4.0933,4.092,4.0947,4.0762,4.063,4.059,4.0536,4.0495,4.0496,4.0577,4.0468,4.0339,4.016,3.9834,3.9512,3.9131,3.8734,3.836,3.822,3.822,3.822,5.5559,5.6558,5.5077,5.4417,5.4228,5.3018,5.2019,5.1437,5.162,5.1823,5.1432,5.1023,5.1348,5.1246,5.1374,5.0904,5.0481,5.0682,5.0395,4.957,4.9416,4.9211,4.9108,4.9328,4.9533,4.9683,4.9907,5.0016,5.0091,4.9851,4.9654,4.9604,4.9623,4.9432,4.9077,4.9063,4.9033,4.8816,4.8379,4.8292,4.832,4.7923,4.7629,4.7439,4.697,4.6706,4.6576,4.6402,4.6257,4.6052,4.5788,4.567,4.561,4.542,4.5103,4.4672,4.4614,4.4404,4.389,4.3298,4.301,4.3015,4.2402,4.209,4.2189,4.2202,4.2202,4.2202,4.2202,4.2202,4.2175,4.2044,4.1953,4.1924,4.2004,4.2095,4.2175,4.2202,4.2202,4.2202,4.2202,4.2202,4.2175,4.2151,4.2084,4.2042,4.1989,4.1908,4.1855,4.1868,4.1786,4.1775,4.175,4.1441,4.1212,4.1185,4.1092,4.0893,4.0788,4.0722,4.0626,4.0518,4.0508,4.0523,4.0071,3.9861,3.9707,3.9455,3.9147,3.8861,3.8574,3.8252,3.822,3.822,3.822,5.7119,5.7968,5.6806,5.6227,5.5993,5.4856,5.3829,5.3184,5.33,5.3065,5.2612,5.2478,5.2428,5.2512,5.2243,5.1706,5.1116,5.1133,5.0644,4.9956,4.9794,4.9619,4.9458,4.9648,4.996,5.0294,5.0454,5.0562,5.0602,5.052,5.0206,4.9773,4.9905,4.9729,4.9121,4.9107,4.9048,4.8876,4.8437,4.8292,4.844,4.8115,4.785,4.7704,4.7293,4.7072,4.6911,4.6635,4.6432,4.6301,4.6095,4.5884,4.5574,4.5383,4.4942,4.4309,4.4213,4.3907,4.356,4.3099,4.2805,4.2724,4.236,4.225,4.2202,4.2202,4.2202,4.2202,4.2202,4.2202,4.2175,4.2058,4.1978,4.2018,4.2124,4.2202,4.2202,4.2202,4.2202,4.2202,4.2202,4.2202,4.2202,4.2202,4.2202,4.2189,4.2175,4.2149,4.2162,4.2189,4.216,4.2084,4.202,4.175,4.1537,4.1468,4.1345,4.1147,4.112,4.1042,4.0872,4.0678,4.0404,4.0249,3.9743,3.937,3.9243,3.9072,3.8825,3.8552,3.8339,3.824,3.822,3.822,3.822,5.8707,5.8758,5.8387,5.7803,5.7103,5.664,5.5697,5.5397,5.5399,5.505,5.4284,5.4784,5.4151,5.4234,5.3233,5.2815,5.2042,5.1571,5.0847,5.0296,5.0062,4.9949,4.9958,5.0149,5.0435,5.0819,5.1083,5.1047,5.0907,5.1223,5.0774,4.9974,5.0206,5.0025,4.9384,4.9194,4.905,4.8951,4.8541,4.8364,4.8439,4.8322,4.8115,4.7835,4.7673,4.7439,4.7128,4.6758,4.6417,4.6234,4.6206,4.5804,4.5257,4.5179,4.4726,4.4105,4.3603,4.3284,4.3057,4.2624,4.2332,4.2359,4.2372,4.2266,4.2333,4.2333,4.228,4.2216,4.2213,4.2202,4.2202,4.2175,4.2162,4.2162,4.2205,4.2202,4.2202,4.2202,4.2202,4.2202,4.2202,4.2202,4.2202,4.2202,4.2202,4.2202,4.2202,4.2202,4.2202,4.2202,4.2202,4.2175,4.2124,4.2071,4.1897,4.1766,4.1603,4.1441,4.1508,4.1437,4.1257,4.0978,4.0457,3.9999,3.9364,3.9026,3.8886,3.8688,3.8463,3.8382,3.826,3.822,3.822,3.822,3.822,5.8757,5.9527,5.9152,5.8387,5.7485,5.6772,5.5677,5.4397,5.4162,5.4119,5.3568,5.325,5.3333,5.3584,5.3384,5.2631,5.1756,5.1756,5.1386,5.0205,5.012,5.0446,5.0692,5.0849,5.0729,5.0712,5.0982,5.088,5.057,5.043,4.9989,4.9786,4.9899,4.9759,4.9566,4.9472,4.9619,4.9608,4.901,4.8717,4.8787,4.8673,4.844,4.8131,4.785,4.7541,4.7092,4.6359,4.5904,4.5773,4.5567,4.531,4.5033,4.466,4.4126,4.3603,4.3305,4.296,4.2575,4.2572,4.2597,4.2595,4.2726,4.2835,4.2667,4.2624,4.247,4.2278,4.2195,4.2242,4.2202,4.2202,4.2202,4.2202,4.2202,4.2202,4.2202,4.2202,4.2202,4.2202,4.2202,4.2202,4.2202,4.2202,4.2202,4.2202,4.2202,4.2202,4.2202,4.2202,4.2202,4.2202,4.2175,4.2138,4.2018,4.1897,4.1831,4.1721,4.1788,4.1653,4.1459,4.1132,4.0542,3.9756,3.8902,3.8692,3.8658,3.8342,3.8113,3.8147,3.822,3.822,3.822,3.822,3.822,5.9753,6.0258,5.9882,5.9396,5.8808,5.807,5.7038,5.5886,5.5079,5.4618,5.4202,5.3584,5.35,5.3768,5.3451,5.2832,5.2211,5.179,5.1184,5.0289,5.012,5.0323,5.0678,5.1064,5.1081,5.1066,5.1131,5.0946,5.0686,5.0683,5.0645,4.9941,5.0126,5.0174,4.983,4.9677,4.9662,4.9662,4.9255,4.8962,4.9048,4.8977,4.8746,4.8439,4.8115,4.7821,4.7626,4.6679,4.6215,4.5907,4.522,4.4548,4.4294,4.3953,4.3504,4.309,4.2958,4.2926,4.2728,4.2782,4.2875,4.2891,4.302,4.295,4.2898,4.2846,4.2667,4.2377,4.2323,4.2392,4.2229,4.2202,4.2202,4.2202,4.2216,4.2202,4.2202,4.2202,4.2202,4.2202,4.2202,4.2202,4.2202,4.2258,4.2202,4.2216,4.2202,4.2202,4.2202,4.2202,4.2202,4.2202,4.2202,4.2162,4.2055,4.2015,4.2044,4.2002,4.2029,4.1753,4.1456,4.1038,4.0577,3.978,3.9037,3.8641,3.8529,3.8158,3.7987,3.812,3.822,3.822,3.822,3.822,3.822,6.0909,6.0858,6.0464,6.0277,6.0124,5.9358,5.8587,5.792,5.6972,5.5926,5.5496,5.4797,5.4313,5.425,5.3768,5.3434,5.2731,5.1623,5.0577,5.0188,5.034,5.056,5.0813,5.1268,5.1773,5.2294,5.1773,5.1384,5.135,5.1672,5.1059,5.0361,5.0629,5.0484,5.01,4.9855,4.9736,4.9706,4.9414,4.9194,4.9224,4.9194,4.9035,4.8744,4.8453,4.8219,4.7864,4.7032,4.6421,4.6498,4.4923,4.3965,4.3609,4.3205,4.3067,4.2792,4.2838,4.2886,4.2998,4.31,4.3153,4.3167,4.325,4.3182,4.3101,4.3126,4.2979,4.2803,4.2702,4.2662,4.2392,4.2432,4.2418,4.2376,4.2349,4.2352,4.2352,4.2336,4.2376,4.2325,4.2445,4.2512,4.2405,4.2381,4.2285,4.2216,4.2216,4.2202,4.2202,4.2202,4.2202,4.2202,4.2202,4.2202,4.2122,4.2095,4.2122,4.2135,4.2189,4.1936,4.1614,4.1445,4.1024,4.0057,3.9367,3.8942,3.8527,3.8232,3.8132,3.8204,3.822,3.822,3.822,3.822,3.8216,6.0909,6.0875,6.0464,6.0143,5.9786,5.9111,5.8657,5.8048,5.7095,5.6296,5.5868,5.5149,5.4689,5.4397,5.4317,5.3583,5.2407,5.1148,5.034,5.0256,5.0627,5.1116,5.1571,5.1823,5.2411,5.2781,5.246,5.1902,5.1401,5.1268,5.1079,5.0338,5.0273,5.0205,5.0156,5.0045,4.9972,4.9896,4.9662,4.9547,4.9516,4.9458,4.9341,4.9033,4.8759,4.8512,4.7943,4.6762,4.6045,4.6388,4.446,4.412,4.4313,4.3775,4.3334,4.3138,4.3052,4.3086,4.3193,4.3337,4.3418,4.3498,4.3648,4.3795,4.3705,4.3575,4.3437,4.3427,4.3175,4.298,4.2953,4.2859,4.2913,4.2926,4.2886,4.2902,4.2902,4.2886,4.2819,4.2699,4.2779,4.2833,4.2702,4.2568,4.2485,4.2405,4.2338,4.2271,4.2202,4.2202,4.2202,4.2202,4.2202,4.2202,4.2189,4.2175,4.2175,4.2175,4.2202,4.2202,4.1981,4.2044,4.1553,4.0489,3.9658,3.9107,3.872,3.8364,3.822,3.822,3.822,3.822,3.8265,3.8313,3.8313,6.0909,6.0892,6.0687,6.0534,6.0296,5.977,5.9466,5.9145,5.8135,5.7215,5.65,5.5782,5.5053,5.4511,5.4156,5.3296,5.2017,5.1159,5.049,5.0391,5.0847,5.1334,5.1891,5.2126,5.2819,5.3283,5.3229,5.2665,5.1835,5.1564,5.1196,5.071,5.034,5.012,5.012,5.0106,5.0104,5.006,4.9943,4.9855,4.9825,4.9723,4.9487,4.9326,4.9079,4.883,4.8474,4.7432,4.6834,4.6793,4.556,4.5028,4.4922,4.4862,4.4352,4.3905,4.3524,4.3423,4.3527,4.3698,4.3751,4.3778,4.3928,4.3995,4.3982,4.3848,4.3763,4.3641,4.343,4.31,4.3073,4.3113,4.31,4.31,4.3113,4.3127,4.314,4.3247,4.3193,4.3086,4.306,4.3033,4.2953,4.2835,4.2712,4.2608,4.2488,4.2378,4.2285,4.2202,4.2202,4.2242,4.2258,4.2242,4.2229,4.2216,4.2202,4.2202,4.2202,4.2202,4.2202,4.2171,4.1664,4.082,4.0088,3.9515,3.8924,3.8572,3.8396,3.822,3.8216,3.8253,3.8361,3.8422,3.8418,6.0909,6.0909,6.0909,6.0909,6.0841,6.055,6.0396,6.021,5.9331,5.8371,5.7485,5.6498,5.5583,5.469,5.3782,5.2779,5.1606,5.1153,5.0676,5.0661,5.115,5.1502,5.184,5.2541,5.3472,5.404,5.4357,5.3754,5.288,5.2325,5.184,5.1294,5.0635,5.025,5.0323,5.0206,5.0162,5.0162,5.0104,5.012,5.0047,4.9855,4.9665,4.9589,4.9341,4.9163,4.8938,4.8104,4.7775,4.7526,4.6796,4.5971,4.5692,4.5896,4.5643,4.4785,4.4111,4.3981,4.3918,4.3968,4.3955,4.3955,4.3995,4.4008,4.4008,4.3952,4.3888,4.3618,4.3444,4.334,4.338,4.3316,4.3314,4.3327,4.3327,4.333,4.3394,4.3501,4.3591,4.3484,4.3367,4.3273,4.322,4.3153,4.303,4.2809,4.2675,4.2662,4.2539,4.2256,4.2216,4.2298,4.2312,4.2282,4.2269,4.2258,4.2229,4.2202,4.2202,4.2202,4.2202,4.2202,4.1661,4.1246,4.0757,4.0184,3.9483,3.8769,3.8485,3.8305,3.8293,3.8325,3.8458,3.8527,3.8559,6.0909,6.0909,6.0909,6.0909,6.0892,6.0824,6.0841,6.0705,5.999,5.9464,5.874,5.7277,5.626,5.5348,5.3422,5.215,5.1393,5.0773,5.0729,5.1116,5.1874,5.2545,5.3166,5.4534,5.4689,5.5025,5.5461,5.51,5.4226,5.3482,5.2684,5.1987,5.1125,5.0647,5.0706,5.0425,5.0264,5.0425,5.0252,5.012,5.0089,5.0028,4.9869,4.9694,4.956,4.9443,4.9186,4.8573,4.8352,4.8638,4.7388,4.6886,4.7043,4.6437,4.5768,4.519,4.4813,4.4596,4.414,4.4107,4.4041,4.4058,4.4058,4.4025,4.4008,4.4008,4.3982,4.3952,4.3845,4.3808,4.3781,4.3845,4.3875,4.3875,4.3878,4.3888,4.3928,4.3928,4.4005,4.3965,4.3861,4.3674,4.3554,4.3458,4.3334,4.31,4.2905,4.2905,4.2809,4.2552,4.2432,4.2525,4.2552,4.2525,4.2539,4.2485,4.2378,4.2312,4.2298,4.2271,4.2202,4.2216,4.2242,4.1815,4.1339,4.07,3.9878,3.9198,3.8627,3.8426,3.843,3.8494,3.8567,3.8635,3.8748,6.0909,6.0909,6.0909,6.0909,6.0909,6.0909,6.0909,6.0841,6.0552,5.999,5.9229,5.8269,5.7115,5.565,5.3741,5.2871,5.2391,5.1307,5.1133,5.1958,5.283,5.36,5.4184,5.5315,5.5891,5.5977,5.6457,5.6748,5.5751,5.426,5.3018,5.251,5.1484,5.0794,5.0969,5.075,5.0616,5.0545,5.0311,5.0135,5.012,5.0106,5.003,4.9882,4.9867,4.9782,4.9581,4.9257,4.9082,4.9243,4.8381,4.7926,4.7831,4.7398,4.6798,4.5668,4.5538,4.5023,4.421,4.4384,4.4315,4.419,4.4269,4.4407,4.4157,4.4008,4.4008,4.4008,4.4008,4.4008,4.4048,4.4152,4.4189,4.4259,4.4316,4.4426,4.4436,4.4489,4.4503,4.4436,4.4342,4.4129,4.3955,4.3861,4.3698,4.3391,4.3193,4.3127,4.306,4.2913,4.2846,4.2889,4.2859,4.2833,4.2859,4.2846,4.2702,4.2608,4.2541,4.2474,4.2258,4.2216,4.2352,4.2225,4.1765,4.106,4.024,3.9641,3.9112,3.883,3.8607,3.8728,3.8861,3.8989,3.9093,6.0909,6.0909,6.0909,6.0909,6.0909,6.0909,6.0909,6.0909,6.0892,6.0432,5.9686,5.8909,5.7485,5.5652,5.416,5.3325,5.292,5.1946,5.1904,5.2629,5.3583,5.4251,5.4751,5.5696,5.6439,5.6519,5.6946,5.7406,5.6894,5.5376,5.3686,5.3335,5.1967,5.1295,5.1072,5.0984,5.0896,5.0572,5.0281,5.0135,5.012,5.012,5.012,5.0106,5.012,5.012,5.0077,4.9867,4.9721,4.9629,4.9347,4.8903,4.8718,4.8405,4.7437,4.6473,4.6192,4.5835,4.4944,4.4604,4.4619,4.4543,4.4416,4.4495,4.4107,4.4008,4.4008,4.4008,4.4008,4.4008,4.4062,4.4246,4.4322,4.4456,4.4619,4.4783,4.4893,4.4813,4.4743,4.4676,4.4596,4.4586,4.4426,4.4305,4.4075,4.3708,4.3508,4.3375,4.3271,4.3164,4.319,4.3193,4.306,4.306,4.3153,4.314,4.3009,4.2918,4.2838,4.2728,4.2565,4.2539,4.2648,4.2411,4.2076,4.1469,4.0678,4.0131,3.96,3.9146,3.8828,3.9029,3.9186,3.9318,3.9391,6.0909,6.0909,6.0909,6.0909,6.0909,6.0909,6.0909,6.0909,6.0909,6.0807,6.0364,5.9297,5.7285,5.521,5.4482,5.3398,5.1682,5.2023,5.2427,5.2946,5.3683,5.4631,5.528,5.6043,5.6688,5.6793,5.7331,5.7946,5.7775,5.5959,5.5085,5.484,5.2572,5.1957,5.1596,5.1306,5.1057,5.0721,5.0367,5.0194,5.0164,5.0118,5.012,5.012,5.012,5.012,5.012,5.0047,5.0018,4.9986,4.9721,4.9654,4.9518,4.9113,4.7962,4.6924,4.7095,4.6556,4.5458,4.5048,4.4937,4.4813,4.4619,4.4435,4.4115,4.4035,4.4038,4.4048,4.4048,4.4062,4.4129,4.4232,4.4473,4.467,4.486,4.4967,4.5024,4.4974,4.492,4.4863,4.4813,4.4733,4.4706,4.4559,4.4356,4.4002,4.3725,4.3578,4.3487,4.3407,4.3458,4.3444,4.326,4.3273,4.3418,4.3394,4.329,4.3183,4.3103,4.3033,4.2966,4.295,4.2632,4.2571,4.2201,4.1676,4.1159,4.0559,3.9942,3.9283,3.9061,3.9266,3.9403,3.9458,3.9559,6.0909,6.0909,6.0909,6.0909,6.0909,6.0909,6.0909,6.0909,6.0909,6.0618,6.019,5.9513,5.827,5.6557,5.5316,5.4684,5.3815,5.3314,5.369,5.4494,5.5377,5.6173,5.6739,5.7071,5.772,5.8017,5.8286,5.8029,5.7714,5.6258,5.5321,5.4309,5.2733,5.2051,5.1657,5.154,5.1338,5.1087,5.0706,5.0428,5.0369,5.0194,5.012,5.012,5.012,5.012,5.012,5.012,5.012,5.0077,4.9957,5.001,4.9991,4.9435,4.8453,4.7289,4.7782,4.7022,4.5921,4.5745,4.6015,4.5401,4.4944,4.4453,4.4256,4.4295,4.4309,4.4252,4.4115,4.4115,4.4529,4.4666,4.4813,4.4984,4.51,4.5194,4.5154,4.509,4.5041,4.4984,4.4877,4.4756,4.4756,4.4746,4.4543,4.4312,4.4018,4.3781,4.3688,4.3634,4.3685,4.3725,4.3567,4.3554,4.3714,4.3661,4.3567,4.3461,4.3367,4.3232,4.3098,4.2502,4.2268,4.2296,4.2189,4.1521,4.1019,4.0787,4.025,3.9468,3.9342,3.9507,3.9591,3.9615,3.9656,6.0909,6.0909,6.0909,6.0909,6.0909,6.0909,6.0909,6.0909,6.0909,6.0312,5.9495,5.9427,5.8503,5.7021,5.5996,5.5001,5.4647,5.4519,5.4836,5.5604,5.662,5.7536,5.792,5.8204,5.8472,5.9043,5.8669,5.8119,5.8037,5.6537,5.529,5.4055,5.2795,5.2046,5.1789,5.1631,5.1619,5.1455,5.1104,5.075,5.0706,5.0442,5.0281,5.0252,5.0194,5.012,5.012,5.012,5.012,5.012,5.0091,5.0106,4.992,4.9547,4.8867,4.8323,4.7915,4.742,4.6393,4.6101,4.6321,4.559,4.5196,4.4746,4.4523,4.4499,4.4426,4.4379,4.4216,4.4326,4.488,4.4947,4.5041,4.5197,4.5404,4.5497,4.5314,4.5207,4.5157,4.509,4.4957,4.4823,4.4806,4.4797,4.4526,4.4339,4.4099,4.3928,4.3888,4.3861,4.3901,4.3928,4.3901,4.3928,4.3982,4.3861,4.3768,4.3754,4.3595,4.3349,4.3057,4.2427,4.2019,4.2062,4.1809,4.1225,4.0833,4.0522,4.0091,3.9562,3.9576,3.9656,3.9656,3.9668,3.968,6.0909,6.0909,6.0909,6.0909,6.0909,6.0909,6.0909,6.0909,6.0892,6.0143,5.901,5.8858,5.7753,5.6192,5.5795,5.518,5.4609,5.5299,5.5763,5.5996,5.75,5.807,5.8221,5.8506,5.8993,5.8874,5.8412,5.8133,5.8277,5.6035,5.468,5.3756,5.2634,5.1971,5.1956,5.1745,5.1634,5.1558,5.1265,5.1116,5.1013,5.0764,5.0618,5.0457,5.0311,5.0208,5.0104,5.012,5.012,5.012,4.9937,4.9954,5.0036,4.9784,4.907,4.8051,4.851,4.7764,4.6074,4.5859,4.5681,4.5535,4.5274,4.506,4.4603,4.4473,4.4556,4.4616,4.4473,4.4596,4.4877,4.5104,4.5237,4.5407,4.56,4.56,4.5404,4.5287,4.5224,4.5117,4.501,4.4917,4.49,4.4816,4.4523,4.4296,4.4125,4.4048,4.4022,4.4008,4.4008,4.4008,4.4008,4.4008,4.4008,4.4008,4.3968,4.3965,4.3747,4.3378,4.297,4.2411,4.2113,4.1911,4.1305,4.0629,4.0405,4.0221,3.9865,3.9605,3.9636,3.9692,3.9692,3.9704,3.9704,6.0909,6.0909,6.0909,6.0909,6.0909,6.0909,6.0909,6.0909,6.0824,6.0194,5.9297,5.9279,5.8372,5.7004,5.6389,5.5922,5.545,5.5996,5.6529,5.6978,5.8421,5.9095,5.9263,5.9212,5.9533,5.9753,5.8967,5.7545,5.7123,5.5375,5.3948,5.2932,5.2389,5.207,5.1971,5.1886,5.1857,5.1816,5.1599,5.1426,5.1382,5.1087,5.0823,5.0633,5.0472,5.0296,5.0118,5.012,5.012,5.0019,4.9801,4.9632,4.97,4.9494,4.851,4.7946,4.8238,4.7761,4.6584,4.6126,4.5688,4.5577,4.5511,4.535,4.503,4.5007,4.5024,4.4943,4.4797,4.4984,4.5367,4.5287,4.5367,4.5537,4.5654,4.5537,4.5407,4.5327,4.5247,4.51,4.4967,4.47,4.4589,4.4549,4.4322,4.4256,4.4112,4.4048,4.4008,4.4008,4.4008,4.4008,4.4008,4.4008,4.4008,4.4008,4.3893,4.3784,4.3507,4.3104,4.2684,4.2148,4.1634,4.1156,4.0591,4.0038,4.0004,3.9954,3.9838,3.9692,3.9704,3.9704,3.9704,3.9704,3.9704,6.0909,6.0909,6.0909,6.0909,6.0909,6.0909,6.0909,6.0909,6.0875,6.0279,5.9466,5.9465,5.8657,5.7436,5.7102,5.6952,5.6516,5.7424,5.7906,5.8336,5.9296,5.994,6.016,6.0092,6.0245,6.033,5.9168,5.7657,5.6587,5.5236,5.3721,5.2477,5.2018,5.2018,5.1985,5.1971,5.1971,5.193,5.1786,5.1713,5.1613,5.135,5.0984,5.0779,5.0545,5.0311,5.0179,5.0104,5.0104,4.9852,4.9547,4.9243,4.9192,4.8714,4.7963,4.7895,4.7571,4.7165,4.6396,4.6019,4.5697,4.5667,4.5694,4.5547,4.535,4.5234,4.5234,4.5211,4.5134,4.5331,4.5551,4.5434,4.5511,4.568,4.564,4.5537,4.5407,4.5327,4.5314,4.5137,4.487,4.4576,4.4282,4.4205,4.4099,4.4099,4.4099,4.4045,4.4008,4.4008,4.4008,4.4008,4.4008,4.4008,4.4008,4.4008,4.3876,4.3649,4.3239,4.2797,4.2015,4.1401,4.0915,4.0483,4.0138,3.9854,3.9788,3.9704,3.9704,3.9704,3.9704,3.9704,3.9704,3.9704,3.9704,6.0909,6.0909,6.0909,6.0909,6.0909,6.0909,6.0909,6.0909,6.0909,6.0313,5.9347,5.9398,5.864,5.7502,5.7533,5.7483,5.7434,5.8571,5.8992,5.9465,6.0143,6.0637,6.079,6.0756,6.0739,6.0109,5.9083,5.7778,5.6397,5.4314,5.2809,5.2196,5.2018,5.2018,5.2018,5.2018,5.2018,5.1971,5.1959,5.1915,5.1813,5.1494,5.1218,5.0955,5.0647,5.0323,5.0128,5.0002,4.9937,4.9683,4.9243,4.9056,4.8751,4.8255,4.8014,4.7673,4.7161,4.6652,4.6066,4.5839,4.5791,4.5831,4.5791,4.5577,4.543,4.5364,4.5394,4.5394,4.5341,4.5488,4.5617,4.5631,4.564,4.5694,4.5694,4.5577,4.5421,4.5367,4.5367,4.5194,4.4856,4.4536,4.4192,4.4035,4.4112,4.4035,4.4045,4.4048,4.4008,4.4008,4.4008,4.4008,4.4008,4.4008,4.4008,4.4008,4.3665,4.3404,4.2909,4.2413,4.1551,4.0816,4.0433,4.0104,3.9854,3.9704,3.9704,3.9704,3.9704,3.9704,3.9704,3.9793,3.9817,3.9716,3.9704,6.0909,6.0909,6.0909,6.0909,6.0909,6.0909,6.0909,6.0909,6.0909,6.0415,5.9666,5.9923,5.9128,5.793,5.8436,5.8301,5.8519,5.8939,5.9446,5.999,6.0518,6.0807,6.0909,6.0909,6.0909,6.0501,5.9544,5.7932,5.619,5.3808,5.2354,5.202,5.2018,5.2018,5.2018,5.2018,5.2018,5.2018,5.2018,5.2018,5.1985,5.174,5.1482,5.1116,5.0852,5.053,5.0201,4.9627,4.9463,4.9243,4.8119,4.7795,4.8937,4.7881,4.7113,4.7141,4.7018,4.6859,4.6248,4.6235,4.6205,4.6008,4.5995,4.5858,4.5684,4.5547,4.5551,4.5524,4.5524,4.5631,4.5671,4.568,4.5677,4.5677,4.5677,4.5627,4.5511,4.5511,4.5497,4.5354,4.5033,4.4646,4.4289,4.4192,4.4246,4.4085,4.4022,4.4035,4.4022,4.4022,4.4008,4.4008,4.4008,4.4008,4.4008,4.4008,4.355,4.3107,4.2611,4.1999,4.1102,4.0437,4.0021,3.9821,3.9725,3.9704,3.9704,3.9704,3.9704,3.9704,3.9716,3.9825,3.9902,3.9837,3.9849,6.0909,6.0909,6.0909,6.0909,6.0909,6.0909,6.0688,6.0381,6.0534,6.033,5.9886,6.0143,5.9652,5.8839,5.9397,5.9601,5.9144,5.9821,6.0279,6.0415,6.0671,6.0824,6.0909,6.0909,6.0909,6.0535,5.951,5.7829,5.5999,5.3721,5.2018,5.2018,5.2018,5.2018,5.2018,5.2018,5.2018,5.2018,5.2018,5.2018,5.1971,5.1915,5.1599,5.1353,5.1116,5.0677,5.0267,4.9493,4.9056,4.8801,4.7574,4.7165,4.8037,4.7216,4.6675,4.6747,4.7017,4.6798,4.6359,4.6276,4.6222,4.6102,4.6039,4.5871,4.576,4.5654,4.5654,4.5654,4.5667,4.5694,4.5694,4.5677,4.5677,4.5677,4.5677,4.5677,4.568,4.568,4.5617,4.5528,4.522,4.4847,4.4606,4.4496,4.4336,4.4139,4.4112,4.4219,4.4152,4.4075,4.4035,4.4008,4.4008,4.4008,4.4008,4.3909,4.3368,4.2859,4.233,4.1634,4.0687,4.0171,3.9871,3.9754,3.9721,3.9704,3.9704,3.9704,3.9704,3.9728,3.9837,4.0018,4.009,4.003,4.0078,6.0909,6.0909,6.0909,6.0875,6.0875,6.0875,6.033,5.9432,5.9956,5.9991,5.9718,5.9957,5.9635,5.9159,5.9905,6.0245,6.0059,6.0432,6.0705,6.0875,6.0858,6.0909,6.0909,6.0909,6.0909,6.0177,5.898,5.7519,5.5758,5.3616,5.2018,5.2018,5.2018,5.2018,5.2018,5.2018,5.2018,5.2018,5.2018,5.2003,5.1944,5.1801,5.1602,5.147,5.1089,5.0633,5.0357,4.9757,4.8969,4.8501,4.7837,4.7008,4.7042,4.7227,4.6918,4.6795,4.7203,4.6909,4.6589,4.6426,4.6239,4.6022,4.5778,4.5831,4.5844,4.572,4.5694,4.5694,4.5677,4.5677,4.5677,4.5677,4.5677,4.5677,4.5677,4.5677,4.5677,4.5667,4.5604,4.5528,4.5417,4.5043,4.4726,4.4619,4.466,4.4326,4.4275,4.4433,4.4406,4.4289,4.4209,4.4142,4.4112,4.4112,4.4008,4.3794,4.3186,4.2641,4.2094,4.1235,4.0287,3.9938,3.9725,3.9704,3.9704,3.9704,3.9704,3.9752,3.9813,3.9849,3.9994,4.0235,4.0295,4.0283,4.0343,6.0909,6.0909,6.0909,6.0738,6.0516,6.0772,6.0279,5.933,5.9398,5.9126,5.8701,5.8685,5.8836,5.9052,5.9767,6.0075,6.0194,6.0637,6.0858,6.0909,6.0909,6.0909,6.0909,6.0909,6.0858,6.0398,5.9117,5.6831,5.4767,5.3002,5.2018,5.2018,5.2018,5.2018,5.2018,5.2018,5.2018,5.2018,5.2018,5.2018,5.1974,5.193,5.1813,5.157,5.1174,5.1016,5.0586,4.9761,4.9161,4.8629,4.775,4.7402,4.7493,4.7961,4.7898,4.7578,4.754,4.7172,4.6804,4.6587,4.652,4.6377,4.623,4.6136,4.6026,4.5818,4.5707,4.5707,4.5677,4.5677,4.5677,4.5677,4.5677,4.5677,4.5677,4.5677,4.5677,4.5627,4.5577,4.5551,4.5524,4.527,4.494,4.482,4.4877,4.4837,4.476,4.48,4.4797,4.4703,4.4583,4.4486,4.4349,4.4299,4.4152,4.3748,4.3162,4.2497,4.1921,4.0961,3.9916,3.9836,3.9789,3.9716,3.9704,3.9801,3.9897,3.9933,3.9982,4.003,4.0211,4.0476,4.0645,4.0669,4.0717,6.0789,6.0635,6.0635,6.0635,6.0584,6.0618,5.9957,5.8924,5.8587,5.8011,5.7445,5.7835,5.8358,5.8774,5.9476,6.0057,6.0262,6.0688,6.0875,6.0909,6.0909,6.0909,6.0909,6.0892,6.0262,5.975,5.7571,5.5323,5.3459,5.2652,5.2018,5.2018,5.2018,5.2018,5.2018,5.2018,5.2018,5.2018,5.2018,5.2018,5.2018,5.1956,5.1959,5.1699,5.1511,5.1353,5.0935,5.0119,4.9362,4.857,4.759,4.71,4.7139,4.7379,4.7571,4.7426,4.7322,4.7239,4.6856,4.6747,4.6774,4.6564,4.6524,4.636,4.6199,4.6035,4.5924,4.5911,4.572,4.5677,4.5677,4.5677,4.5677,4.5677,4.5677,4.5677,4.5677,4.5667,4.5644,4.5631,4.5577,4.5471,4.5207,4.5087,4.5074,4.4943,4.4934,4.5064,4.509,4.5117,4.498,4.4873,4.4753,4.4616,4.4526,4.3966,4.3206,4.251,4.191,4.094,4.0136,3.9986,3.9885,3.9945,4.0018,4.0102,4.0175,4.0199,4.0235,4.0295,4.0488,4.0729,4.0874,4.0995,4.1019,6.0652,6.0276,6.0362,6.0481,6.0618,6.0312,5.9364,5.8148,5.7695,5.6965,5.6306,5.746,5.8218,5.8828,5.9458,6.0193,6.0688,6.0841,6.0909,6.0909,6.0909,6.0909,6.0909,6.0841,5.9869,5.8311,5.6278,5.4244,5.2301,5.2018,5.2018,5.2018,5.2018,5.2018,5.2018,5.2018,5.2018,5.2018,5.2018,5.2018,5.2018,5.2,5.1988,5.19,5.1757,5.1613,5.1302,5.0732,4.9782,4.8752,4.7729,4.7195,4.6968,4.7144,4.7189,4.7231,4.7177,4.6986,4.6743,4.676,4.6627,4.6497,4.6587,4.656,4.6417,4.6337,4.6239,4.6085,4.5894,4.584,4.584,4.5827,4.5827,4.576,4.576,4.5707,4.5707,4.5707,4.5694,4.5697,4.5631,4.5568,4.5488,4.5367,4.5261,4.5104,4.5117,4.5247,4.5354,4.5377,4.535,4.5274,4.5167,4.5047,4.4877,4.4338,4.3571,4.2947,4.2302,4.1209,4.0386,4.0244,4.0211,4.0343,4.0416,4.0392,4.044,4.0476,4.0512,4.0585,4.0778,4.0971,4.1007,4.1127,4.1212,6.0498,5.995,6.0549,6.0344,5.9644,5.9533,5.8657,5.7466,5.7303,5.6569,5.6279,5.7074,5.8054,5.8756,5.9476,6.0193,6.0824,6.0909,6.0909,6.0909,6.1028,6.0977,6.0773,6.0449,5.9133,5.7516,5.5922,5.4519,5.251,5.2058,5.2018,5.2018,5.2018,5.2018,5.2018,5.2018,5.2018,5.2018,5.2018,5.2018,5.2018,5.2018,5.2018,5.1886,5.1728,5.1789,5.1661,5.1243,5.047,4.9443,4.825,4.7538,4.7241,4.7197,4.7282,4.7272,4.7201,4.7085,4.6992,4.6921,4.6791,4.6822,4.6902,4.6888,4.6794,4.6799,4.6683,4.6516,4.6378,4.6378,4.6365,4.6338,4.6312,4.6071,4.5978,4.5844,4.5778,4.5764,4.5751,4.5707,4.5667,4.564,4.5627,4.556,4.5547,4.5457,4.5444,4.5547,4.5534,4.56,4.5667,4.5591,4.5501,4.5264,4.5,4.4765,4.4162,4.3497,4.2667,4.1549,4.0784,4.0506,4.0512,4.0657,4.0621,4.0548,4.0621,4.079,4.085,4.0934,4.1096,4.1229,4.1253,4.1212,4.1272]}]]